[[{"header":{"parameterUnit":"m.s-1","parameterCategory":1,"la1":30.6,"la2":28.766,"lo1":-90.7593,"lo2":-88.6598,"dy":0.0162,"dx":0.0183,"nx":116,"ny":114,"refTime":"2024-06-23T12:00:00:Z","depth":0,"parameterNumber":2,"parameterNumberName":"U-component_of_WINDS"},"data":[0.0,0.0,0.0,0.0,0.0,0.0,0.0,0.0,0.0,0.0,0.0,0.0,0.0,0.0,0.0,0.0,0.0,0.0,0.0,0.0,0.0,0.0,0.0,0.0,0.0,0.0,0.0,0.0,0.0,0.0,0.0,0.0,0.0,0.0,0.0,0.0,0.0,0.0,0.0,0.0,0.0,0.0,0.0,0.0,0.0,0.0,0.0,0.0,0.0,0.0,0.0,0.0,0.0,0.0,0.0,0.0,0.0,0.0,0.0,0.0,0.0,0.0,0.0,0.0,0.0,0.0,0.0,0.0,0.0,0.0,0.0,0.0,0.0,0.0,0.0,0.0,0.0,0.0,0.0,0.0,0.0,0.0,0.0,0.0,0.0,0.0,0.0,0.0,0.0,0.0,0.0,0.0,0.0,0.0,0.0,0.0,0.0,0.0,0.0,0.0,0.0,0.0,0.0,0.0,0.0,0.0,0.0,0.0,0.0,0.0,0.0,0.0,0.0,0.0,0.0,0.0,0.0,0.0,0.0,0.0,0.0,0.0,0.0,0.0,0.0,0.0,0.0,0.0,0.0,0.0,0.0,0.0,0.0,0.0,0.0,0.0,0.0,0.0,0.0,0.0,0.0,0.0,0.0,0.0,0.0,0.0,0.0,0.0,0.0,0.0,0.0,0.0,0.0,0.0,0.0,0.0,0.0,0.0,0.0,0.0,0.0,0.0,0.0,0.0,0.0,0.0,0.0,0.0,0.0,0.0,0.0,0.0,0.0,0.0,0.0,0.0,0.0,0.0,0.0,0.0,0.0,0.0,0.0,0.0,0.0,0.0,0.0,0.0,0.0,0.0,0.0,0.0,0.0,0.0,0.0,0.0,0.0,0.0,0.0,0.0,0.0,0.0,0.0,0.0,0.0,0.0,0.0,0.0,0.0,0.0,0.0,0.0,0.0,0.0,0.0,0.0,0.0,0.0,0.0,0.0,0.0,0.0,0.0,0.0,0.0,0.0,0.0,0.0,0.0,0.0,0.0,0.0,0.0,0.0,0.0,0.0,0.0,0.0,0.0,0.0,0.0,0.0,0.0,0.0,0.0,0.0,0.0,0.0,0.0,0.0,0.0,0.0,0.0,0.0,0.0,0.0,0.0,0.0,0.0,0.0,0.0,0.0,0.0,0.0,0.0,0.0,0.0,0.0,0.0,0.0,0.0,0.0,0.0,0.0,0.0,0.0,0.0,0.0,0.0,0.0,0.0,0.0,0.0,0.0,0.0,0.0,0.0,0.0,0.0,0.0,0.0,0.0,0.0,0.0,0.0,0.0,0.0,0.0,0.0,0.0,0.0,0.0,0.0,0.0,0.0,0.0,0.0,0.0,0.0,0.0,0.0,0.0,0.0,0.0,0.0,0.0,0.0,0.0,0.0,0.0,0.0,0.0,0.0,0.0,0.0,0.0,0.0,0.0,0.0,0.0,0.0,0.0,0.0,0.0,0.0,0.0,0.0,0.0,0.0,0.0,0.0,0.0,0.0,0.0,0.0,0.0,0.0,0.0,0.0,0.0,0.0,0.0,0.0,0.0,0.0,0.0,0.0,0.0,0.0,0.0,0.0,0.0,0.0,0.0,0.0,0.0,0.0,0.0,0.0,0.0,0.0,0.0,0.0,0.0,0.0,0.0,0.0,0.0,0.0,0.0,0.0,0.0,0.0,0.0,0.0,0.0,0.0,0.0,0.0,0.0,0.0,0.0,0.0,0.0,0.0,0.0,0.0,0.0,0.0,0.0,0.0,0.0,0.0,0.0,0.0,0.0,0.0,0.0,0.0,0.0,0.0,0.0,0.0,0.0,0.0,0.0,0.0,0.0,0.0,0.0,0.0,0.0,0.0,0.0,0.0,0.0,0.0,0.0,0.0,0.0,0.0,0.0,0.0,0.0,0.0,0.0,0.0,0.0,0.0,0.0,0.0,0.0,0.0,0.0,0.0,0.0,0.0,0.0,0.0,0.0,0.0,0.0,0.0,0.0,0.0,0.0,0.0,0.0,0.0,0.0,0.0,0.0,0.0,0.0,0.0,0.0,0.0,0.0,0.0,0.0,0.0,0.0,0.0,0.0,0.0,0.0,0.0,0.0,0.0,0.0,0.0,0.0,0.0,0.0,0.0,0.0,0.0,0.0,0.0,0.0,0.0,0.0,0.0,0.0,0.0,0.0,0.0,0.0,0.0,0.0,0.0,0.0,0.0,0.0,0.0,0.0,0.0,0.0,0.0,0.0,0.0,0.0,0.0,0.0,0.0,0.0,0.0,0.0,0.0,0.0,0.0,0.0,0.0,0.0,0.0,0.0,0.0,0.0,0.0,0.0,0.0,0.0,0.0,0.0,0.0,0.0,0.0,0.0,0.0,0.0,0.0,0.0,0.0,0.0,0.0,0.0,0.0,0.0,0.0,0.0,0.0,0.0,0.0,0.0,0.0,0.0,0.0,0.0,0.0,0.0,0.0,0.0,0.0,0.0,0.0,0.0,0.0,0.0,0.0,0.0,0.0,0.0,0.0,0.0,0.0,0.0,0.0,0.0,0.0,0.0,0.0,0.0,0.0,0.0,0.0,0.0,0.0,0.0,0.0,0.0,0.0,0.0,0.0,0.0,0.0,0.0,0.0,0.0,0.0,0.0,0.0,0.0,0.0,0.0,0.0,0.0,0.0,0.0,0.0,0.0,0.0,0.0,0.0,0.0,0.0,0.0,0.0,0.0,0.0,0.0,0.0,0.0,0.0,0.0,0.0,0.0,0.0,0.0,0.0,0.0,0.0,0.0,0.0,0.0,0.0,0.0,0.0,0.0,0.0,0.0,0.0,0.0,0.0,0.0,0.0,0.0,0.0,0.0,0.0,0.0,0.0,0.0,0.0,0.0,0.0,0.0,0.0,0.0,0.0,0.0,0.0,0.0,0.0,0.0,0.0,0.0,0.0,0.0,0.0,0.0,0.0,0.0,0.0,0.0,0.0,0.0,0.0,0.0,0.0,0.0,0.0,0.0,0.0,0.0,0.0,0.0,0.0,0.0,0.0,0.0,0.0,0.0,0.0,0.0,0.0,0.0,0.0,0.0,0.0,0.0,0.0,0.0,0.0,0.0,0.0,0.0,0.0,0.0,0.0,0.0,0.0,0.0,0.0,0.0,0.0,0.0,0.0,0.0,0.0,0.0,0.0,0.0,0.0,0.0,0.0,0.0,0.0,0.0,0.0,0.0,0.0,0.0,0.0,0.0,0.0,0.0,0.0,0.0,0.0,0.0,0.0,0.0,0.0,0.0,0.0,0.0,0.0,0.0,0.0,0.0,0.0,0.0,0.0,0.0,0.0,0.0,0.0,0.0,0.0,0.0,0.0,0.0,0.0,0.0,0.0,0.0,0.0,0.0,0.0,0.0,0.0,0.0,0.0,0.0,0.0,0.0,0.0,0.0,0.0,0.0,0.0,0.0,0.0,0.0,0.0,0.0,0.0,0.0,0.0,0.0,0.0,0.0,0.0,0.0,0.0,0.0,0.0,0.0,0.0,0.0,0.0,0.0,0.0,0.0,0.0,0.0,0.0,0.0,0.0,0.0,0.0,0.0,0.0,0.0,0.0,0.0,0.0,0.0,0.0,0.0,0.0,0.0,0.0,0.0,0.0,0.0,0.0,0.0,0.0,0.0,0.0,0.0,0.0,0.0,0.0,0.0,0.0,0.0,0.0,0.0,0.0,0.0,0.0,0.0,0.0,0.0,0.0,0.0,0.0,0.0,0.0,0.0,0.0,0.0,0.0,0.0,0.0,0.0,0.0,0.0,0.0,0.0,0.0,0.0,0.0,0.0,0.0,0.0,0.0,0.0,0.0,0.0,0.0,0.0,0.0,0.0,0.0,0.0,0.0,0.0,0.0,0.0,0.0,0.0,0.0,0.0,0.0,0.0,0.0,0.0,0.0,0.0,0.0,0.0,0.0,0.0,0.0,0.0,0.0,0.0,0.0,0.0,0.0,0.0,0.0,0.0,0.0,0.0,0.0,0.0,0.0,0.0,0.0,0.0,0.0,0.0,0.0,0.0,0.0,0.0,0.0,0.0,0.0,0.0,0.0,0.0,0.0,0.0,0.0,0.0,0.0,0.0,0.0,0.0,0.0,0.0,0.0,0.0,0.0,0.0,0.0,0.0,0.0,0.0,0.0,0.0,0.0,0.0,0.0,0.0,0.0,0.0,0.0,0.0,0.0,0.0,0.0,0.0,0.0,0.0,0.0,0.0,0.0,0.0,0.0,0.0,0.0,0.0,0.0,0.0,0.0,0.0,0.0,0.0,0.0,0.0,0.0,0.0,0.0,0.0,0.0,0.0,0.0,0.0,0.0,0.0,0.0,0.0,0.0,0.0,0.0,0.0,0.0,0.0,0.0,0.0,0.0,0.0,0.0,0.0,0.0,0.0,0.0,0.0,0.0,0.0,0.0,0.0,0.0,0.0,0.0,0.0,0.0,0.0,0.0,0.0,0.0,0.0,0.0,0.0,0.0,0.0,0.0,0.0,0.0,0.0,0.0,0.0,0.0,0.0,0.0,0.0,0.0,0.0,0.0,0.0,0.0,0.0,0.0,0.0,0.0,0.0,0.0,0.0,0.0,0.0,0.0,0.0,0.0,0.0,0.0,0.0,0.0,0.0,0.0,0.0,0.0,0.0,0.0,0.0,0.0,0.0,0.0,0.0,0.0,0.0,0.0,0.0,0.0,0.0,0.0,0.0,0.0,0.0,0.0,0.0,0.0,0.0,0.0,0.0,0.0,0.0,0.0,0.0,0.0,0.0,0.0,0.0,0.0,0.0,0.0,0.0,0.0,0.0,0.0,0.0,0.0,0.0,0.0,0.0,0.0,0.0,0.0,0.0,0.0,0.0,0.0,0.0,0.0,0.0,0.0,0.0,0.0,0.0,0.0,0.0,0.0,0.0,0.0,0.0,0.0,0.0,0.0,0.0,0.0,0.0,0.0,0.0,0.0,0.0,0.0,0.0,0.0,0.0,0.0,0.0,0.0,0.0,0.0,0.0,0.0,0.0,0.0,0.0,0.0,0.0,0.0,0.0,0.0,0.0,0.0,0.0,0.0,0.0,0.0,0.0,0.0,0.0,0.0,0.0,0.0,0.0,0.0,0.0,0.0,0.0,0.0,0.0,0.0,0.0,0.0,0.0,0.0,0.0,0.0,0.0,0.0,0.0,0.0,0.0,0.0,0.0,0.0,0.0,0.0,0.0,0.0,0.0,0.0,0.0,0.0,0.0,0.0,0.0,0.0,0.0,0.0,0.0,0.0,0.0,0.0,0.0,0.0,0.0,0.0,0.0,0.0,0.0,0.0,0.0,0.0,0.0,0.0,0.0,0.0,0.0,0.0,0.0,0.0,0.0,0.0,0.0,0.0,0.0,0.0,0.0,0.0,0.0,0.0,0.0,0.0,0.0,0.0,0.0,0.0,0.0,0.0,0.0,0.0,0.0,0.0,0.0,0.0,0.0,0.0,0.0,0.0,0.0,0.0,0.0,0.0,0.0,0.0,0.0,0.0,0.0,0.0,0.0,0.0,0.0,0.0,0.0,0.0,0.0,0.0,0.0,0.0,0.0,0.0,0.0,0.0,0.0,0.0,0.0,0.0,0.0,0.0,0.0,0.0,0.0,0.0,0.0,0.0,0.0,0.0,0.0,0.0,0.0,0.0,0.0,0.0,0.0,0.0,0.0,0.0,0.0,0.0,0.0,0.0,0.0,0.0,0.0,0.0,0.0,0.0,0.0,0.0,0.0,0.0,0.0,0.0,0.0,0.0,0.0,0.0,0.0,0.0,0.0,0.0,0.0,0.0,0.0,0.0,0.0,0.0,0.0,0.0,0.0,0.0,0.0,0.0,0.0,0.0,0.0,0.0,0.0,0.0,0.0,0.0,0.0,0.0,0.0,0.0,0.0,0.0,0.0,0.0,0.0,0.0,0.0,0.0,0.0,0.0,0.0,0.0,0.0,0.0,0.0,0.0,0.0,0.0,0.0,0.0,0.0,0.0,0.0,0.0,0.0,0.0,0.0,0.0,0.0,0.0,0.0,0.0,0.0,0.0,0.0,0.0,0.0,0.5494,0.0,0.0,0.0,0.0,0.0,0.0,0.0,0.0,0.0,0.0,0.0,0.0,0.0,0.0,0.0,0.0,0.0,0.0,0.0,0.0,0.0,0.0,0.0,0.0,0.2972,0.3114,0.3138,0.3953,0.4112,0.3208,0.0,0.0,0.0,0.0,0.0,0.312,0.312,0.3124,0.3127,0.2851,0.2694,0.2707,0.2893,0.2965,0.2893,0.0,0.0,0.0,0.0,0.0,0.0,0.0,0.0,0.0,0.0,0.0,0.0,0.0,0.0,0.0,0.0,0.0,0.0,0.0,0.0,0.0,0.0,0.0,0.0,0.0,0.0,0.0,0.0,0.0,0.0,0.0,0.0,0.0,0.0,0.0,0.0,0.0,0.0,0.0,0.0,0.0,0.0,0.0,0.0,0.0,0.0,0.0,0.0,0.0,0.0,0.0,0.0,0.0,0.0,0.0,0.0,0.0,0.0,0.0,0.0,0.0,0.0,0.0,0.0,0.0,0.0,0.0,0.0,0.0,0.0,0.0,0.4901,0.0,0.0,0.0,0.0,0.0,0.0,0.0,0.0,0.0,0.0,0.0,0.0,0.0,0.0,0.0,0.0,0.0,0.0,0.0,0.0,0.0,0.2133,0.264,0.3231,0.3593,0.3617,0.3605,0.3618,0.361,0.3593,0.0,0.0,0.0,0.3608,0.3608,0.3608,0.3597,0.3606,0.3083,0.2875,0.2861,0.3125,0.3253,0.3192,0.3155,0.0,0.0,0.0,0.0,0.0,0.0,0.0,0.0,0.0,0.0,0.0,0.0,0.0,0.0,0.0,0.0,0.0,0.0,0.0,0.0,0.0,0.0,0.0,0.0,0.0,0.0,0.0,0.0,0.0,0.0,0.0,0.0,0.0,0.0,0.0,0.0,0.0,0.0,0.0,0.0,0.0,0.0,0.0,0.0,0.0,0.0,0.0,0.0,0.0,0.0,0.0,0.0,0.0,0.0,0.0,0.0,0.0,0.0,0.0,0.0,0.0,0.0,0.0,0.6519,0.6607,0.6583,0.6158,0.5779,0.5583,0.5406,0.5304,0.5199,0.5084,0.0,0.0,0.0,0.0,0.0,0.0,0.0,0.0,0.0,0.0,0.0,0.0,0.0,0.0,0.0,0.0,0.0,0.0,0.0,0.2627,0.2679,0.325,0.3616,0.358,0.3608,0.3614,0.3588,0.3618,0.0,0.0,0.3618,0.3608,0.3608,0.3608,0.3588,0.3619,0.3533,0.3474,0.3453,0.324,0.3292,0.3537,0.336,0.3353,0.351,0.0,0.0,0.0,0.0,0.0,0.0,0.0,0.0,0.0,0.0,0.0,0.0,0.0,0.0,0.0,0.0,0.0,0.0,0.0,0.0,0.0,0.0,0.0,0.0,0.0,0.0,0.0,0.0,0.0,0.0,0.0,0.0,0.0,0.0,0.0,0.0,0.0,0.0,0.0,0.0,0.0,0.8015,0.8619,0.0,0.0,0.0,0.0,0.0,0.0,0.0,0.0,0.0,0.0,0.0,0.0,0.0,0.9187,0.6619,0.6595,0.6488,0.6343,0.9795,1.1349,1.1298,0.8027,0.6451,0.6192,0.6312,0.0,0.5528,0.5508,0.0,0.0,0.0,0.0,0.0,0.0,0.0,0.0,0.0,0.0,0.0,0.0,0.0,0.0,0.0,0.0,0.0,0.0,0.0,0.0,0.0,0.323,0.362,0.3606,0.3618,0.3581,0.3581,0.3581,0.3581,0.3581,0.3581,0.3581,0.3581,0.3611,0.3612,0.3586,0.3919,0.412,0.4122,0.3951,0.3953,0.4086,0.3791,0.3795,0.3917,0.3708,0.0,0.0,0.0,0.0,0.0,0.0,0.0,0.0,0.0,0.0,0.0,0.0,0.0,0.0,0.0,0.0,0.0,0.0,0.0,0.0,0.0,0.0,0.0,0.0,0.0,0.0,0.0,0.0,0.0,0.0,0.0,0.0,0.0,0.0,0.0,0.0,0.0,0.0,0.0,0.8228,0.8747,0.9677,0.9187,0.8808,0.0,0.0,0.0,0.0,0.0,0.0,0.0,0.0,0.0,1.157,1.2236,1.0662,0.6772,0.6752,0.6766,0.6752,0.8502,0.9399,0.9317,0.7713,0.6848,0.6767,0.6685,0.6534,0.6203,0.6034,0.5786,0.5508,0.0,0.0,0.0,0.0,0.5922,0.5885,0.0,0.0,0.0,0.0,0.0,0.0,0.0,0.0,0.0,0.0,0.0,0.0,0.2692,0.3114,0.3428,0.3592,0.358,0.3581,0.0,0.3615,0.3615,0.3581,0.3612,0.3609,0.3581,0.3767,0.3835,0.3818,0.4285,0.4517,0.4503,0.4503,0.4517,0.4471,0.4247,0.4187,0.4281,0.4126,0.3945,0.0,0.0,0.0,0.0,0.0,0.0,0.0,0.0,0.0,0.0,0.0,0.0,0.0,0.0,0.0,0.0,0.0,0.0,0.0,0.0,0.0,0.0,0.0,0.0,0.0,0.0,0.0,0.0,0.0,0.0,0.0,0.0,0.0,0.0,0.0,0.0,0.0,0.0,0.9068,0.9579,1.049,0.9558,0.8948,0.0,0.0,0.0,0.0,0.0,0.0,1.103,1.2148,1.2237,1.1016,1.183,1.0594,0.7148,0.714,0.7116,0.708,0.708,0.7059,0.7104,0.7104,0.7126,0.7073,0.6901,0.6814,0.679,0.6495,0.6213,0.5973,0.5973,0.5817,0.5693,0.5878,0.5905,0.5854,0.0,0.0,0.0,0.0,0.0,0.0,0.0,0.0,0.0,0.0,0.0,0.2698,0.2692,0.2728,0.2981,0.3551,0.358,0.3581,0.0,0.0,0.3588,0.3578,0.3614,0.3611,0.3578,0.4149,0.4443,0.4453,0.4509,0.4474,0.4494,0.4494,0.4501,0.4508,0.4508,0.4501,0.4484,0.4453,0.433,0.4137,0.0,0.0,0.0,0.0,0.0,0.0,0.0,0.0,0.0,0.0,0.0,0.0,0.0,0.0,0.0,0.0,0.0,0.0,0.0,0.0,0.0,0.0,0.0,0.0,0.0,0.0,0.0,0.0,0.0,0.0,0.0,0.0,0.0,0.0,0.0,0.0,0.0,0.0,0.0,1.0594,0.9537,0.0,0.0,0.0,0.0,1.0504,1.1552,1.2178,1.2176,1.3372,1.1951,0.7488,0.7407,0.7325,0.7141,0.7118,0.7057,0.7144,0.7144,0.7075,0.7115,0.7115,0.7115,0.7119,0.7119,0.7119,0.7095,0.68,0.6583,0.6437,0.6437,0.6346,0.6234,0.6383,0.6434,0.6451,0.0,0.0,0.0,0.214,0.2345,0.2345,0.1863,0.2315,0.271,0.2712,0.2683,0.2716,0.0,0.2689,0.2955,0.3558,0.3602,0.3591,0.3591,0.0,0.4232,0.5747,0.4365,0.3581,0.3599,0.4217,0.4506,0.4497,0.4497,0.4525,0.4519,0.4519,0.4519,0.4519,0.4519,0.4519,0.4508,0.4474,0.4467,0.4393,0.4072,0.3941,0.0,0.0,0.0,0.0,0.0,0.0,0.0,0.0,0.0,0.0,0.0,0.0,0.0,0.0,0.0,0.0,0.0,0.0,0.0,0.0,0.0,0.0,0.0,0.0,0.0,0.0,0.0,0.0,0.0,0.0,0.0,0.0,0.0,0.0,0.0,0.0,0.0,1.1625,0.8659,0.0,1.1334,1.166,1.2038,1.2806,1.0451,0.8987,0.8922,0.9357,0.886,0.7148,0.7118,0.7103,0.7105,0.7509,0.7709,0.7709,0.7326,0.7108,0.7152,0.753,0.7625,0.7434,0.7438,0.7438,0.7428,0.7322,0.7075,0.6773,0.6865,0.6756,0.6563,0.6712,0.6766,0.6759,0.2104,0.2238,0.0,0.2163,0.2358,0.2438,0.2136,0.2433,0.2716,0.2703,0.2701,0.2779,0.2978,0.2991,0.3172,0.3565,0.3591,0.3938,0.4688,0.0,0.5427,0.6941,0.5015,0.39,0.3902,0.4285,0.4474,0.4519,0.4519,0.4519,0.0,0.4519,0.4519,0.4519,0.4519,0.4519,0.4512,0.4527,0.4485,0.4478,0.4264,0.4192,0.4141,0.0,0.0,0.0,0.0,0.0,0.0,0.0,0.0,0.0,0.0,0.0,0.0,0.0,0.0,0.0,0.0,0.0,0.0,0.0,0.0,0.0,0.0,0.0,0.0,0.0,0.0,0.0,0.0,0.0,0.0,0.0,0.0,0.0,0.0,0.0,1.1424,1.2193,0.9924,0.9548,1.258,1.1465,1.0857,1.1717,0.9034,0.74,0.7444,0.7406,0.739,0.7406,0.7446,0.7406,0.7377,0.777,0.7967,0.7967,0.7573,0.7449,0.7406,0.7795,0.7889,0.76,0.7695,0.7695,0.76,0.76,0.7424,0.7166,0.7258,0.7177,0.7101,0.7548,0.7757,0.783,0.1981,0.2018,0.2061,0.2187,0.2206,0.2317,0.2656,0.2683,0.2706,0.2704,0.2733,0.2938,0.3552,0.3618,0.363,0.3701,0.3638,0.4548,0.6748,0.6887,0.688,0.6906,0.5373,0.4546,0.4625,0.4525,0.4506,0.4515,0.0,0.0,0.0,0.0,0.0,0.0,0.0,0.4515,0.4515,0.4515,0.4515,0.4515,0.4515,0.449,0.4474,0.0,0.0,0.0,0.0,0.0,0.0,0.0,0.0,0.0,0.0,0.0,0.0,0.0,0.0,0.0,0.0,0.0,0.0,0.0,0.0,0.0,0.0,0.0,0.0,0.0,0.0,0.0,0.0,0.0,0.0,0.0,0.0,0.0,1.0646,1.1606,1.2367,1.235,1.3374,1.4066,1.4115,0.9968,0.73,0.7357,0.7919,0.8215,0.8272,0.8276,0.8214,0.8277,0.8088,0.7998,0.8014,0.8018,0.8018,0.8018,0.8018,0.8041,0.8001,0.8001,0.7904,0.7712,0.7712,0.7708,0.7614,0.7614,0.7614,0.7611,0.7604,0.76,0.7785,0.8971,0.9427,0.9612,0.2001,0.2154,0.2266,0.2221,0.2411,0.2596,0.2673,0.2706,0.2714,0.2684,0.3096,0.341,0.3578,0.3595,0.4275,0.5908,0.4565,0.3854,0.4509,0.0,0.4519,0.4514,0.4511,0.5462,0.7551,0.5552,0.4513,0.0,0.0,0.0,0.0,0.0,0.0,0.0,0.0,0.0,0.4511,0.4529,0.4481,0.4481,0.4481,0.4529,0.4511,0.0,0.0,0.0,0.0,0.0,0.0,0.0,0.0,0.0,0.0,0.0,0.0,0.0,0.0,0.0,0.0,0.0,0.0,0.0,0.0,0.0,0.0,0.0,0.0,0.0,0.0,0.0,0.0,0.0,0.0,0.0,0.0,1.1859,1.1859,1.2875,1.3577,1.3612,1.3906,1.4122,1.4064,1.2925,1.2496,1.3365,1.3525,1.3637,1.3624,1.3636,1.3676,1.3676,1.0019,0.8021,0.7977,0.7977,0.7977,0.7977,0.7977,0.796,0.8021,0.8021,0.8017,0.7919,0.7919,0.7919,0.7919,0.7919,0.7919,0.7896,0.7682,0.76,0.76,0.7966,0.8153,0.8149,0.2171,0.2305,0.2408,0.2408,0.2586,0.2712,0.2712,0.2704,0.2782,0.3028,0.3367,0.3587,0.3595,0.3594,0.4148,0.5453,0.4381,0.3594,0.3585,0.0,0.4241,0.5701,0.0,0.7061,0.8775,0.7149,0.6279,0.0,0.0,0.0,0.0,0.0,0.0,0.0,0.0,0.0,0.6303,0.6277,0.5592,0.4504,0.449,0.5202,0.6184,0.4933,0.448,0.4478,0.4506,0.5597,0.6751,0.5044,0.0,0.0,0.0,0.0,0.0,0.0,0.0,0.0,0.0,0.0,0.0,0.0,0.0,0.0,0.0,0.0,0.0,0.0,0.0,0.0,0.0,0.0,0.0,0.0,1.2285,1.303,1.3022,1.3632,1.4121,1.4058,1.4084,1.4248,1.477,1.4766,1.5134,1.5792,1.5826,1.5817,1.5791,1.3751,1.2546,1.2579,0.9545,0.8014,0.8038,0.8038,0.8038,0.8038,0.8038,0.8038,0.8038,0.8038,0.8038,0.8038,0.8038,0.8038,0.8038,0.8038,0.8333,0.0,0.0,0.0,0.0,0.0,0.9772,1.0333,0.2431,0.2466,0.2489,0.2659,0.2712,0.2712,0.2712,0.2717,0.2904,0.3502,0.3604,0.3591,0.3611,0.3847,0.3894,0.3621,0.3579,0.3579,0.0,0.0,0.0,0.8687,0.8823,0.882,0.881,0.8817,0.8811,0.0,0.0,0.0,0.0,0.0,0.0,0.0,0.0,0.0,0.8312,0.8661,0.7329,0.4976,0.5004,0.6341,0.8013,0.5487,0.4682,0.4961,0.4958,0.4962,0.4962,0.498,0.0,0.0,0.0,0.0,0.0,0.0,0.0,0.0,0.0,0.0,0.0,0.0,0.0,0.0,0.0,0.0,0.0,0.0,0.0,0.0,0.0,0.0,0.0,0.0,1.3411,1.4107,1.4062,1.4168,1.4282,1.4248,1.4326,1.4701,1.5722,1.5796,1.5769,1.5769,1.5792,1.5783,1.5794,0.0,0.0,0.0,0.0,0.797,0.8018,0.8021,0.8024,0.8028,0.8028,0.8031,0.8038,0.8038,0.8038,0.8038,0.8038,0.8038,0.8233,0.8233,0.9019,1.0096,0.892,0.8432,0.8726,1.1068,1.2619,1.3878,0.2408,0.255,0.2645,0.2709,0.2712,0.2712,0.2712,0.2687,0.293,0.3517,0.3621,0.3588,0.3612,0.5233,0.5611,0.3751,0.3605,0.362,0.0,0.0,0.8094,0.8751,0.8806,0.8778,0.8791,0.8778,0.8778,0.0,0.0,0.0,0.0,0.0,0.0,0.0,0.0,0.0,0.5465,0.7833,0.8491,0.7976,0.7952,0.6894,0.5287,0.4739,0.5932,0.7949,0.7985,0.7985,0.7979,0.7978,0.8349,0.8811,0.8808,0.0,0.0,0.0,0.0,0.0,0.0,0.0,0.0,0.0,0.0,0.0,0.0,0.0,0.0,0.0,0.0,0.0,0.0,0.0,0.0,1.36,1.3933,1.4138,1.4064,1.4845,1.5513,1.5473,1.5443,1.5528,1.5739,1.5792,1.5752,1.5752,1.5798,1.5783,1.5794,1.0866,0.7994,0.7979,0.7983,0.799,0.8,0.8,0.8024,0.797,0.0,0.0,0.8038,0.8038,0.8038,0.8038,0.8038,0.8627,0.9608,0.9608,1.0386,1.1556,1.1263,1.1165,1.1165,1.175,1.2042,1.2334,0.255,0.2628,0.2712,0.2712,0.271,0.2688,0.2688,0.2697,0.2906,0.3526,0.3613,0.3615,0.3585,0.4618,0.4856,0.3716,0.3865,0.0,0.0,0.7841,0.8781,0.8799,0.8803,0.8804,0.8804,0.8804,0.8804,0.0,0.0,0.0,0.0,0.0,0.0,0.0,0.0,0.0,0.7634,0.9097,0.9701,0.9674,0.9708,0.8837,0.7482,0.6884,0.7558,0.879,0.8811,0.8798,0.8791,0.8811,0.8805,0.8798,0.8818,0.8804,0.8804,0.0,0.0,0.0,0.0,0.0,0.0,0.0,0.0,0.0,0.0,0.0,0.0,0.0,0.0,1.1464,1.1488,0.0,1.3397,1.3994,1.4088,1.4097,1.4078,1.5084,1.5798,1.5798,1.5756,1.5825,1.5825,1.5846,1.5832,1.5832,1.5832,1.5783,1.5794,1.3346,1.194,1.1945,1.1945,1.1945,1.1945,1.1893,1.1933,1.1875,0.9213,0.8011,0.8038,0.8038,0.8435,0.9327,0.9122,0.9702,1.097,1.1648,1.2328,1.3006,1.3596,1.3017,1.1945,1.2619,1.2909,1.3011,0.2688,0.2712,0.269,0.2686,0.2682,0.2733,0.2871,0.2893,0.3051,0.3524,0.3616,0.3605,0.3594,0.3993,0.4079,0.3633,0.0,0.0,0.0,0.8822,0.8786,0.8798,0.8804,0.8804,0.8804,0.8804,0.8778,0.8771,0.0,0.0,0.0,0.0,0.0,0.0,1.0628,1.059,1.06,1.0597,1.0583,1.0592,1.0592,1.0623,1.0486,0.9508,0.9006,0.8815,0.881,0.8817,0.8771,0.8771,0.8798,0.8804,0.8804,0.8804,0.8818,0.8818,0.8771,0.0,0.0,0.0,0.0,0.0,0.0,0.0,0.0,0.0,1.2358,1.2598,1.262,1.2627,1.2645,1.3444,1.4109,1.4088,1.4316,1.4395,1.44,1.5193,1.5835,1.579,1.5799,1.5832,1.5832,1.5832,1.5832,1.5832,1.5832,1.577,1.5761,1.5767,1.5813,1.5822,1.5842,1.5758,1.5758,1.5771,1.5275,1.4195,1.0036,0.8007,0.8007,0.852,0.9414,1.0596,1.0681,1.1165,1.2042,1.359,1.4166,1.407,1.5337,1.4465,1.2818,1.3878,1.4262,1.4459,0.2709,0.2712,0.269,0.2714,0.2714,0.2878,0.3433,0.349,0.352,0.3607,0.3616,0.3612,0.3614,0.5407,0.5821,0.3755,0.4156,0.0,0.0,0.8805,0.8784,0.8804,0.8804,0.8804,0.8804,0.8804,0.8811,0.8822,0.8822,0.8783,0.8798,0.99,1.0449,1.0632,1.0629,1.0607,1.06,1.0607,1.0607,1.06,1.06,1.0581,1.0611,1.0456,0.9722,0.8819,0.8813,0.8783,0.8822,0.8822,0.8782,0.8804,0.8804,0.8804,0.8798,0.8812,0.0,0.8807,0.8776,0.9566,1.062,1.1661,1.1333,1.0698,0.0,0.0,1.2613,1.3705,1.3924,1.388,1.3865,1.398,1.4095,1.4123,1.492,1.5639,1.5654,1.5708,1.581,1.5758,1.5812,1.5832,1.5832,1.5832,1.5832,1.5832,1.5832,1.5838,1.5845,1.575,1.5757,1.577,1.5767,1.582,1.582,1.5848,1.3442,0.8882,0.8282,0.7986,0.8084,1.0422,1.1142,1.0715,1.2598,1.2909,1.2042,1.4561,1.4949,1.407,1.5337,1.5635,1.5343,1.5534,1.5635,1.5635,0.2712,0.2712,0.2686,0.2686,0.2995,0.3319,0.3563,0.3601,0.3616,0.3616,0.3585,0.3612,0.3618,0.5624,0.6105,0.3781,0.4136,0.5743,0.8629,0.8825,0.8804,0.8804,0.8804,0.8804,0.8804,0.8797,0.8812,0.8805,0.9482,0.9846,0.9874,1.0335,1.0622,1.0588,1.0577,1.0624,1.0624,1.0624,1.0624,1.0624,1.0624,1.062,1.0588,1.0588,1.0294,0.9864,0.9872,0.9818,0.0,0.0,0.8808,0.8804,0.8804,0.8804,0.8805,0.879,0.9303,0.0,1.0635,1.0715,0.0,0.0,1.193,1.1616,1.1627,1.252,1.3502,1.3996,1.4111,1.4105,1.4128,1.4104,1.4298,0.0,1.545,1.5831,1.5819,1.5765,1.5799,1.5818,1.5832,1.5832,1.5832,1.5832,1.5832,1.5832,1.5832,1.5832,1.5832,1.5832,1.5832,1.5832,1.5777,1.4309,1.1301,1.1293,1.0118,0.8004,1.1094,1.2575,1.2581,1.3636,1.3596,1.2582,1.4256,1.4657,1.4274,1.5343,1.5534,1.5051,1.5629,1.5832,1.5832,1.5832,1.5832,1.5832,0.2712,0.2712,0.2692,0.271,0.318,0.3586,0.3594,0.3597,0.3581,0.3581,0.3581,0.3581,0.3588,0.507,0.5481,0.3999,0.423,0.5745,0.8587,0.8791,0.8824,0.8804,0.8804,0.0,0.8804,0.8825,0.8951,0.9295,1.0161,1.0625,1.0588,1.0588,1.0629,1.0624,1.0624,1.0624,1.0624,1.0624,1.0624,1.0631,1.0571,1.0621,1.0631,1.0578,1.0581,1.0594,1.0573,1.0603,0.0,0.0,0.8808,0.8804,0.8804,0.8804,0.8778,0.8789,0.9879,1.12,1.166,0.0,0.0,1.2118,1.2526,1.2804,1.2835,1.3444,1.4065,1.4084,1.4108,1.4229,1.4509,1.4566,1.485,1.5661,1.5783,1.5798,1.5805,1.5832,1.5832,1.5832,1.5832,1.5832,1.5832,1.5832,1.5832,1.5832,1.5832,1.5832,1.5832,1.5832,1.5832,1.5832,1.5763,1.3999,1.0154,1.0132,1.0179,1.021,1.4288,1.6288,1.6255,1.6058,1.5383,1.4459,1.5439,1.5629,1.5337,1.5635,1.5629,1.5337,1.5635,1.5832,1.5832,1.5832,1.5832,1.5832,0.2712,0.2712,0.2696,0.2704,0.3216,0.3615,0.3594,0.3622,0.3581,0.3581,0.3581,0.3577,0.3592,0.3658,0.3925,0.4433,0.4514,0.5724,0.8587,0.8777,0.8818,0.8811,0.8804,0.8817,0.8792,0.8805,0.9392,1.0572,1.0585,1.0609,1.0611,1.0611,1.0618,1.0624,1.0624,1.0624,1.0624,1.0624,1.0624,1.0581,1.0575,1.0594,1.0588,1.0581,1.0621,1.0613,1.0592,0.0,0.0,0.0,0.8808,0.8804,0.8804,0.8804,0.0,0.8782,1.0412,0.0,0.0,0.0,1.2265,1.2285,1.3175,1.4071,1.4021,1.409,1.409,1.4105,1.4088,1.447,1.5561,1.5772,1.577,1.5766,1.5839,1.5818,1.5832,1.5832,1.5832,1.5832,1.5832,1.5832,0.0,1.5832,1.5832,1.5832,1.5832,1.5832,1.5832,1.5832,1.5832,1.5832,1.5836,1.5712,1.5547,1.5569,1.5589,1.5613,1.6874,1.75,1.7482,1.6735,1.6112,1.573,1.5825,1.514,1.407,1.5337,1.5045,1.407,1.5343,1.5832,1.5832,1.5832,1.5832,1.5832,0.2704,0.2688,0.2691,0.2715,0.2875,0.2995,0.3002,0.336,0.3598,0.3612,0.3614,0.0,0.0,0.0,0.0,0.0,0.4517,0.4904,0.5892,0.7758,0.8825,0.8811,0.8804,0.8824,0.8799,0.9566,1.0189,1.0599,1.0595,1.06,1.0624,1.0624,1.0624,1.0624,1.0624,1.0591,1.0607,1.0571,1.0594,1.0616,1.0601,1.1026,1.1636,1.0887,1.06,1.0504,0.0,0.0,0.0,0.0,0.8808,0.0,0.8804,0.0,0.0,1.067,0.0,1.1069,0.0,0.0,1.2513,1.3277,1.3808,1.413,1.4061,1.4129,1.4065,1.4068,1.4137,1.421,1.4603,1.5322,1.5803,1.58,1.5759,1.5832,1.5832,1.5832,1.5832,1.5832,1.5832,0.0,0.0,0.0,0.0,1.5832,1.5832,1.5832,1.5832,1.5832,1.5832,1.5832,1.584,1.5791,1.5784,1.6573,1.6948,1.6995,1.7452,1.7327,1.6749,1.6528,1.6219,1.6112,1.5912,1.5645,1.5506,1.5714,1.554,1.5242,1.5635,1.5832,1.5832,1.5832,1.5832,1.5832,0.2695,0.2874,0.3025,0.3022,0.302,0.0,0.0,0.0,0.0,0.0,0.0,0.0,0.0,0.0,0.0,0.0,0.0,0.4525,0.4487,0.7192,0.8791,0.8811,0.8804,0.8824,0.8799,1.001,1.0588,1.0599,1.0588,1.0593,1.0624,1.0624,1.0624,1.0624,1.0624,1.0591,1.0607,1.1001,1.096,1.0666,1.1493,1.1775,1.1616,1.0887,1.0607,0.0,0.0,0.0,0.0,0.0,0.0,0.0,0.0,0.0,0.0,1.1281,1.1431,1.132,1.1715,1.2389,1.3118,1.3899,1.4104,1.413,1.4132,1.4088,1.4088,1.4088,1.4137,1.4104,1.4109,1.4728,1.5352,1.5773,1.5771,1.5819,1.5818,1.5832,1.5832,1.5832,1.5832,1.5832,0.0,0.0,0.0,1.5832,1.5823,1.5774,1.5774,1.5763,1.5816,1.5816,1.5778,1.6032,1.6461,1.7223,1.7604,1.7599,1.7599,1.7319,1.6693,1.6686,1.6526,1.642,1.6226,1.6253,1.6413,1.6219,1.6079,1.5985,1.5985,1.5925,1.5832,1.5832,1.5832,1.5832,0.2704,0.3187,0.359,0.0,0.0,0.0,0.0,0.0,0.0,0.0,0.0,0.0,0.0,0.0,0.0,0.0,0.0,0.0,0.449,0.0,0.0,0.8811,0.8804,0.8824,0.8799,0.9937,1.0508,1.0511,1.0579,1.0595,1.0604,1.0604,1.0611,1.0624,1.0624,1.0631,1.0651,1.1728,1.1587,1.0769,1.299,1.2607,1.0608,1.0575,0.0,0.0,0.0,0.0,0.0,0.0,0.0,0.0,0.0,0.0,0.0,0.0,0.0,1.2648,1.3751,1.4087,1.4142,1.4069,1.4074,1.4088,1.4088,1.4088,1.4082,1.4068,1.4068,1.4142,0.0,0.0,1.4412,1.5572,1.58,1.5831,1.5792,1.5832,1.5832,0.0,0.0,0.0,0.0,0.0,0.0,1.577,0.0,1.5836,1.5856,1.5886,1.5914,1.5914,1.5927,1.641,1.7606,1.762,1.7646,1.7582,1.7582,1.7428,1.7148,1.7148,1.6994,1.6727,1.6714,1.6714,1.6727,1.6714,1.6547,1.6293,1.6293,1.6119,1.5872,1.5858,1.5852,1.5852,0.0,0.0,0.0,0.0,0.0,0.0,0.0,0.0,0.0,0.0,0.0,0.0,0.0,0.0,0.0,0.0,0.0,0.0,0.0,0.0,0.0,0.0,0.0,0.0,0.8799,0.9114,0.0,0.0,0.0,1.0618,1.0581,1.0581,1.0629,0.0,1.0624,1.0604,1.064,1.093,1.088,1.0648,0.0,1.1118,1.0575,0.0,0.0,0.0,0.0,0.0,0.0,0.0,0.0,0.0,0.0,0.0,1.0749,0.0,0.0,1.3703,1.3999,1.4097,1.4074,1.4142,1.4126,1.4088,1.4088,1.4088,1.4119,1.409,1.4131,1.409,1.4123,0.0,0.0,1.452,1.5291,0.0,1.5818,1.5832,0.0,0.0,0.0,1.581,1.5809,1.5822,0.0,0.0,1.5797,1.615,1.7038,1.712,1.7161,1.7161,1.7144,1.7299,1.7606,1.7596,1.762,1.7582,1.7582,1.7428,1.7148,1.7148,1.7108,1.7021,1.68,1.6834,1.7021,1.68,1.666,1.6593,1.6593,1.6547,1.646,1.6239,1.6159,1.6126,0.0,0.0,0.0,0.0,0.0,0.0,0.0,0.0,0.0,0.0,0.0,0.0,0.0,0.0,0.0,0.0,0.0,0.0,0.0,0.0,0.0,0.0,0.0,0.0,0.0,0.8809,0.0,0.0,0.0,0.0,0.0,1.0331,1.0622,1.0587,1.0587,1.0609,1.0615,0.0,0.0,0.0,0.0,0.0,0.0,0.0,0.0,0.0,0.0,0.0,0.0,0.0,0.0,1.1359,1.1357,1.1322,1.1482,1.2097,0.0,1.4064,1.409,1.4065,1.4088,1.4088,1.4088,1.4062,1.4108,1.4081,1.4096,1.4075,1.3642,0.0,1.3326,0.0,0.0,0.0,0.0,0.0,1.5798,1.5832,1.5832,0.0,1.583,0.0,1.581,1.6275,1.6587,0.0,1.6627,1.6847,1.7576,1.7599,1.7558,1.7558,1.7599,1.7576,1.7576,1.7613,1.7582,1.7582,1.7582,1.7495,1.7341,1.7341,1.7341,1.7328,0.0,1.7188,1.7328,1.7161,1.7014,1.6901,1.6901,1.682,1.6687,1.652,1.6466,1.642,0.0,0.0,0.0,0.0,0.0,0.0,0.0,0.0,0.0,0.0,0.0,0.0,0.0,0.0,0.0,0.0,0.0,0.0,0.0,0.0,0.0,0.0,0.0,0.0,0.0,0.0,0.0,0.0,0.0,0.0,0.0,0.0,0.0,0.0,0.0,0.0,0.0,0.0,0.0,0.0,0.0,0.0,0.0,0.0,0.0,0.0,0.0,0.0,0.0,0.0,1.2301,1.2361,1.2472,1.2533,1.2518,1.2555,1.3266,1.409,1.4099,1.4088,1.4088,1.4088,1.4062,1.4065,1.4084,1.396,1.383,1.3836,0.0,1.2296,1.2296,1.2289,1.3035,1.5247,0.0,1.5784,1.5752,1.5832,1.5832,1.5832,1.577,1.5843,1.5993,1.7038,1.7576,1.764,1.7558,1.7558,1.7558,1.7566,1.7582,1.7582,1.7582,1.7582,1.7582,1.7582,1.7582,1.7582,1.7582,1.7582,1.7582,1.7582,1.7582,1.7582,1.7582,1.7582,1.7582,1.7582,1.7435,1.7208,1.7208,1.7048,1.682,1.678,1.6767,1.672,0.0,0.0,0.0,0.0,0.0,0.0,0.0,0.3581,0.3594,0.3614,0.4042,0.4401,0.0,0.0,0.0,0.0,0.0,0.0,0.0,0.0,0.0,0.0,0.0,0.0,0.0,0.0,0.0,0.0,0.0,0.0,0.0,0.0,0.0,0.0,0.0,0.0,0.0,0.0,0.0,0.0,0.0,0.0,0.0,0.0,0.0,0.0,0.0,0.0,0.0,0.0,1.2274,1.2437,1.3436,1.3803,1.3815,1.3763,1.3974,1.409,1.4099,1.4088,1.4088,1.4088,1.4095,1.4084,1.4124,1.3346,0.0,0.0,0.0,1.2289,1.2289,1.2305,0.0,1.4166,0.0,0.0,0.0,0.0,1.5832,0.0,0.0,0.0,0.0,0.0,0.0,0.0,0.0,1.762,1.762,1.7555,1.7582,1.7582,1.7582,1.7582,1.7582,1.7582,1.7582,1.7582,1.7582,1.7582,1.7582,1.7582,1.7582,1.7582,1.7582,0.0,1.7582,1.7582,1.7555,1.7508,1.7508,1.7475,1.7402,1.7161,1.7074,1.7034,0.0,0.0,0.0,0.0,0.0,0.0,0.0,0.3581,0.3611,0.3585,0.3873,0.4131,0.4449,0.4527,0.4498,0.0,0.0,0.0,0.0,0.0,0.0,0.0,0.0,0.0,0.0,0.0,0.0,0.0,0.0,0.0,0.0,0.0,0.0,0.0,0.0,0.0,0.0,0.0,0.0,0.0,0.0,0.0,0.0,0.0,0.0,0.0,0.0,0.0,0.0,0.0,1.179,1.2538,1.3737,1.413,1.4107,1.4076,1.4131,1.4095,1.4139,1.4088,1.4088,1.4088,1.4061,1.3933,1.3333,0.0,0.0,0.0,0.0,1.2322,1.2322,0.0,0.0,0.0,0.0,0.0,0.0,0.0,0.0,0.0,0.0,0.0,0.0,0.0,0.0,0.0,0.0,1.7582,1.7582,1.7582,1.7582,1.7582,1.7582,1.7582,1.7582,1.7582,1.7582,1.7582,1.7582,1.7582,1.7582,1.7582,1.7582,1.7582,1.7582,0.0,1.7582,1.7582,1.7582,1.7582,1.7582,1.7582,1.7562,1.7428,1.7375,1.7335,0.0,0.0,0.0,0.0,0.0,0.0,0.0,0.3605,0.3614,0.3598,0.37,0.3976,0.4451,0.4523,0.4519,0.0,0.0,0.0,0.0,0.0,0.0,0.0,0.0,0.0,0.0,0.0,0.0,0.0,0.0,0.0,0.0,0.0,0.0,0.0,0.0,0.0,0.0,0.0,0.0,0.0,0.0,0.0,0.0,0.0,0.0,0.0,0.0,0.0,0.0,0.0,1.1217,1.215,1.3305,1.3677,1.3757,1.4001,1.4096,1.4099,1.4068,1.4088,1.4088,1.4088,1.4103,1.3776,1.2608,1.2087,0.0,0.0,1.1329,1.2032,1.2246,0.0,0.0,0.0,0.0,0.0,0.0,0.0,0.0,0.0,0.0,0.0,0.0,0.0,0.0,0.0,0.0,0.0,1.7582,1.7582,1.7582,1.7582,1.7582,1.7582,1.7582,1.7582,1.7582,1.7582,1.7582,1.7582,1.7582,1.7582,1.7582,1.7582,1.7582,0.0,0.0,1.7582,1.7582,1.7582,1.7582,1.7582,1.7582,1.7582,1.7582,1.7549,0.0,0.0,0.0,0.0,0.0,0.0,0.0,0.358,0.3592,0.3615,0.4068,0.4418,0.4488,0.451,0.4519,0.0,0.0,0.0,0.0,0.0,0.0,0.0,0.0,0.0,0.0,0.0,0.0,0.0,0.0,0.0,0.0,0.0,0.0,0.0,0.0,0.0,0.0,0.0,0.0,0.0,0.0,0.0,0.0,0.0,0.0,0.0,0.0,0.0,0.0,0.0,0.0,1.0942,1.2088,1.2493,1.2676,1.3757,0.0,0.0,1.4105,1.4088,1.4088,1.4088,1.4131,1.3794,1.2582,0.0,0.0,1.0598,1.0706,1.1081,1.2093,1.2315,0.0,0.0,0.0,0.0,0.0,0.0,0.0,0.0,0.0,0.0,0.0,0.0,0.0,0.0,0.0,0.0,1.7582,1.7582,1.7582,1.7582,1.7582,1.7582,1.7582,1.7582,1.7582,1.7582,1.7582,1.7582,1.7582,1.7582,1.7582,1.7582,1.7582,0.0,0.0,1.7582,1.7582,1.7582,1.7582,1.7582,1.7582,1.7582,1.7582,1.7582,0.0,0.0,0.0,0.0,0.0,0.0,0.3551,0.3612,0.3609,0.3602,0.3804,0.3935,0.3974,0.4263,0.448,0.4512,0.0,0.0,0.0,0.0,0.0,0.0,0.0,0.0,0.0,0.0,0.0,0.0,0.0,0.0,0.0,0.0,0.0,0.0,0.0,0.0,0.0,0.0,0.0,0.0,0.0,0.0,0.0,0.0,0.0,0.0,0.0,0.0,0.0,0.0,0.0,0.0,1.1129,1.1299,0.0,0.0,1.3498,1.4138,1.4076,1.4135,1.4088,1.4088,1.4111,1.3796,1.2599,0.0,1.0572,1.0607,1.0581,1.0743,1.1214,1.1827,1.2284,1.2324,1.3305,1.4338,0.0,0.0,0.0,0.0,0.0,0.0,0.0,0.0,0.0,0.0,0.0,0.0,1.7582,1.7582,1.7582,1.7582,1.7582,1.7582,1.7582,1.7582,1.7582,1.7582,1.7582,1.7582,1.7582,1.7582,1.7582,1.7582,1.7582,0.0,0.0,1.7582,1.7582,1.7582,1.7582,1.7582,1.7582,1.7582,1.7582,1.7555,0.0,0.0,0.0,0.0,0.0,0.2917,0.3516,0.3584,0.3615,0.3619,0.3622,0.3595,0.3625,0.4115,0.4524,0.4505,0.4519,0.0,0.0,0.0,0.0,0.0,0.0,0.0,0.0,0.0,0.0,0.0,0.0,0.0,0.0,0.0,0.0,0.0,0.0,0.0,0.0,0.0,0.0,0.0,0.0,0.0,0.0,0.0,0.0,0.0,0.0,0.0,0.0,0.0,0.0,0.0,0.0,0.0,0.0,0.0,1.2925,1.3673,1.4035,1.4083,1.4058,1.4058,1.413,1.3747,0.0,0.0,1.0583,1.0604,1.0574,1.0631,1.061,1.151,1.2297,1.2324,1.3312,1.4363,1.5196,0.0,0.0,0.0,0.0,0.0,0.0,0.0,0.0,0.0,0.0,0.0,1.7569,1.7502,1.7495,1.7582,1.7582,1.7582,1.7582,1.7582,1.7582,1.7582,1.7582,1.7582,1.7582,1.7582,1.7582,1.7582,1.7582,0.0,0.0,1.7582,1.7582,1.7582,1.7582,1.7582,1.7582,1.7582,1.7528,1.7422,0.0,0.0,0.0,0.0,0.0,0.0,0.3521,0.3601,0.3581,0.3581,0.3609,0.3605,0.3599,0.4158,0.4524,0.4505,0.4519,0.0,0.0,0.0,0.0,0.0,0.0,0.0,0.0,0.0,0.0,0.4519,0.0,0.0,0.0,0.0,0.0,0.0,0.0,0.0,0.0,0.0,0.0,0.0,0.0,0.0,1.0624,0.0,0.0,0.0,0.0,0.0,0.0,0.0,0.0,0.0,0.0,0.0,0.0,0.0,1.2311,1.2593,1.3769,1.4117,1.4117,1.4117,1.4079,1.3776,0.0,1.1407,1.0583,1.0604,1.0574,1.0631,1.061,1.151,1.2301,1.2303,1.3339,1.413,1.4143,0.0,0.0,0.0,0.0,0.0,0.0,0.0,0.0,0.0,0.0,0.0,1.7549,1.7315,1.7288,1.7569,1.7582,1.7582,1.7582,1.7582,1.7582,1.7582,1.7582,1.7582,1.7582,1.7582,1.7582,1.7582,0.0,0.0,0.0,1.7582,1.7582,1.7582,1.7582,1.7582,1.7582,1.7582,1.7402,1.7154,0.0,0.0,0.0,0.0,0.0,0.0,0.0,0.3598,0.3581,0.3581,0.3619,0.3749,0.419,0.4409,0.4525,0.4524,0.4518,0.0,0.0,0.0,0.0,0.0,0.0,0.0,0.0,0.0,0.4519,0.4519,0.4508,0.4488,0.0,0.0,0.0,0.0,0.0,0.0,0.0,0.0,0.0,0.0,0.0,1.059,1.0609,0.0,0.0,0.0,0.0,0.0,0.0,0.0,0.0,0.0,0.0,0.0,0.0,1.1053,1.1677,0.0,1.275,1.3501,1.4129,1.4096,1.3454,1.275,1.2396,1.1417,1.0625,1.0601,1.0627,1.0842,1.1637,1.205,1.2278,1.2305,1.2613,0.0,0.0,0.0,0.0,0.0,0.0,0.0,0.0,0.0,0.0,0.0,0.0,0.0,1.6974,1.6894,1.6981,1.7275,1.7288,1.7188,1.6987,1.7188,1.7288,1.7288,1.7488,1.7582,1.7582,1.7582,1.7582,0.0,0.0,0.0,0.0,1.7582,1.7582,1.7582,1.7582,1.7582,1.7555,1.7361,1.7228,1.7094,0.0,0.0,0.0,0.0,0.0,0.0,0.0,0.3596,0.3583,0.3583,0.3592,0.3739,0.412,0.4182,0.425,0.446,0.4494,0.0,0.0,0.0,0.0,0.0,0.0,0.0,0.0,0.4519,0.4519,0.4519,0.4519,0.4508,0.4484,0.4484,0.4477,0.0,0.0,0.0,0.0,0.0,0.0,0.0,1.0093,1.0602,1.0541,0.0,0.0,0.0,0.0,0.0,0.0,0.0,0.0,0.0,0.0,0.0,0.0,0.0,1.075,1.1764,0.0,1.2542,1.2783,1.2764,1.224,1.168,1.1662,1.1122,1.0587,1.0627,1.0915,1.1443,1.2172,1.2276,1.231,1.2298,1.3061,0.0,0.0,0.0,0.0,0.0,0.0,0.0,0.0,0.0,0.0,0.0,0.0,0.0,1.6693,1.66,1.6627,1.6814,1.7034,1.7007,1.6707,1.7001,1.7094,1.6987,1.7281,1.7422,1.7422,1.7528,1.7582,0.0,0.0,0.0,0.0,1.7582,1.7582,1.7582,1.7582,1.7515,1.7402,1.7215,1.7014,1.6767,0.0,0.0,0.0,0.0,0.0,0.0,0.0,0.3555,0.3551,0.3607,0.3592,0.3622,0.3585,0.3577,0.3844,0.4449,0.4476,0.0,0.0,0.0,0.0,0.0,0.0,0.0,0.0,0.4519,0.4519,0.4519,0.4519,0.4519,0.4519,0.4519,0.4519,0.4515,0.0,0.0,0.0,0.0,0.0,0.0,0.9714,1.0308,0.0,0.0,0.0,0.0,0.0,0.0,0.0,0.0,0.0,0.0,0.0,0.0,0.0,0.0,0.0,0.0,0.0,1.1346,1.0584,1.0566,1.0578,1.0615,1.0631,1.0587,0.0,1.0571,1.1467,1.2166,1.2204,1.2256,1.2312,1.2284,1.4127,0.0,0.0,0.0,0.0,0.0,0.0,0.0,0.0,0.0,0.0,0.0,0.0,0.0,1.6613,1.6386,1.6239,1.6239,1.6794,1.6954,1.6673,1.6947,1.6961,1.6707,1.7007,1.7148,1.7161,1.7448,1.7582,0.0,0.0,0.0,0.0,1.7562,1.7562,1.7582,1.7562,1.7388,1.725,1.7128,1.676,1.6273,0.0,0.0,0.0,0.0,0.0,0.0,0.0,0.0,0.0,0.0,0.3584,0.3587,0.3615,0.3598,0.3847,0.0,0.0,0.0,0.0,0.0,0.0,0.0,0.0,0.0,0.0,0.4519,0.4519,0.4519,0.4519,0.4519,0.4519,0.4519,0.4519,0.4519,0.4508,0.4491,0.0,0.0,0.0,0.0,0.5814,0.7281,0.0,0.0,0.0,0.0,0.8793,0.8815,0.0,0.0,0.0,0.0,0.0,0.0,0.0,0.0,0.9015,0.9297,0.9519,0.0,1.0594,1.0588,1.0624,1.0607,0.0,1.0584,0.0,0.0,0.0,1.0988,1.0994,1.1729,1.2265,1.2295,1.277,0.0,0.0,0.0,0.0,0.0,0.0,0.0,0.0,0.0,0.0,0.0,0.0,1.5892,1.6025,1.5965,1.5932,1.5932,1.6286,1.6446,1.6373,1.6446,1.6553,1.6707,1.7007,1.7148,1.7161,1.7448,1.7582,0.0,0.0,0.0,1.7562,1.7341,1.7382,1.7562,1.7335,1.7215,1.7121,1.6894,1.658,1.6239,0.0,0.0,0.0,0.0,0.0,0.0,0.0,0.0,0.0,0.0,0.3433,0.3584,0.3609,0.3612,0.0,0.0,0.0,0.0,0.0,0.0,0.0,0.0,0.0,0.4519,0.4519,0.4519,0.4519,0.4519,0.4519,0.4519,0.4519,0.4519,0.4519,0.4519,0.4519,0.4508,0.0,0.0,0.0,0.4524,0.4511,0.0,0.0,0.0,0.0,0.0,0.879,0.7925,0.0,0.835,0.8798,0.8798,0.0,0.0,0.0,0.0,0.8802,0.8773,0.8799,0.9301,0.9882,1.043,1.0611,1.0606,1.0606,0.0,0.0,0.0,0.0,0.0,1.0584,0.0,0.0,0.0,0.0,0.0,0.0,0.0,0.0,0.0,0.0,0.0,0.0,0.0,0.0,0.0,0.0,1.5832,1.5832,1.5832,1.5832,1.5832,1.5985,1.6072,1.6072,1.6206,1.6279,1.6306,1.6607,1.6747,1.676,1.7048,1.7181,0.0,0.0,0.0,1.7168,1.7014,1.7041,1.7168,1.7007,1.6867,1.6727,1.6567,1.6319,1.6046,0.0,0.0,0.0,0.0,0.0,0.0,0.0,0.0,0.0,0.0,0.0,0.0,0.0,0.0,0.0,0.0,0.0,0.0,0.0,0.0,0.0,0.0,0.0,0.4519,0.4519,0.4519,0.4519,0.4519,0.4519,0.4519,0.4519,0.4519,0.4519,0.4519,0.4519,0.4519,0.0,0.0,0.4519,0.4515,0.4484,0.0,0.0,0.0,0.0,0.0,0.0,0.0,0.0,0.7296,0.8147,0.8211,0.8678,0.0,0.0,0.0,0.0,0.0,0.8798,0.8814,0.9127,1.051,1.0857,1.083,0.0,0.0,0.0,0.0,0.0,0.0,0.0,0.0,0.0,0.0,0.0,0.0,0.0,0.0,0.0,0.0,0.0,0.0,0.0,0.0,0.0,0.0,0.0,1.5832,1.5832,1.5832,1.5832,1.5832,1.5832,1.5832,1.5832,1.6079,1.6106,1.5899,1.6152,1.6273,1.6286,1.6573,1.6707,1.6707,0.0,0.0,1.67,1.666,1.6667,1.67,1.6653,1.6486,1.6273,1.6273,1.6086,1.5832,0.0,0.0,0.0,0.0,0.0,0.0,0.0,0.0,0.0,0.0,0.0,0.0,0.0,0.0,0.0,0.0,0.0,0.0,0.0,0.0,0.0,0.0,0.4519,0.4519,0.4519,0.4519,0.4519,0.4519,0.4519,0.4519,0.4519,0.4519,0.4519,0.4519,0.4519,0.4519,0.4519,0.4519,0.4519,0.4519,0.4512,0.0,0.0,0.0,0.0,0.0,0.0,0.0,0.0,0.5015,0.5171,0.5595,0.8039,0.0,0.0,0.0,0.0,0.0,0.8783,0.883,0.9319,1.1517,1.2064,1.1818,0.0,0.0,0.0,0.0,0.0,0.0,0.0,0.0,0.0,0.0,0.0,0.0,0.0,0.0,0.0,0.0,0.0,0.0,0.0,0.0,0.0,0.0,0.0,1.5832,1.5832,1.5832,1.5832,1.5832,1.5832,1.5832,1.5832,1.5872,1.5999,1.6206,1.6253,1.6273,1.6286,1.6573,1.6707,1.6707,0.0,1.6707,1.6687,1.644,1.6486,1.668,1.6433,1.6313,1.6273,1.6273,1.6086,1.5832,0.0,0.0,0.0,0.0,0.0,0.0,0.0,0.0,0.0,0.0,0.0,0.0,0.0,0.0,0.0,0.0,0.0,0.0,0.0,0.0,0.0,0.4519,0.4519,0.4519,0.4519,0.4519,0.4519,0.4519,0.4519,0.4519,0.4519,0.4519,0.4519,0.4519,0.4519,0.4519,0.4519,0.4519,0.4519,0.4519,0.0,0.0,0.0,0.0,0.0,0.0,0.0,0.0,0.0,0.0,0.4474,0.4725,0.6049,0.0,0.0,0.0,0.0,0.0,0.8825,0.9753,1.0951,1.2007,1.1867,1.1273,0.0,0.0,0.0,0.0,0.0,0.0,0.0,0.0,0.0,0.0,0.0,0.0,0.0,0.0,0.0,0.0,0.0,0.0,0.0,0.0,0.0,0.0,0.0,0.0,1.5832,1.5832,1.5832,1.5832,1.5832,1.5832,1.5832,1.5832,1.5899,1.6032,1.6032,1.6032,1.6039,1.6172,1.6233,1.6233,0.0,1.6233,1.6219,1.6086,1.6112,1.6219,1.6086,1.6032,1.6032,1.6032,1.5945,1.5832,0.0,0.0,0.0,0.0,0.0,0.0,0.0,0.0,0.0,0.0,0.0,0.0,0.0,0.0,0.0,0.0,0.0,0.0,0.0,0.0,0.4484,0.4515,0.4519,0.4519,0.4519,0.4519,0.4519,0.4519,0.4519,0.4519,0.4519,0.4519,0.4519,0.4519,0.4519,0.4519,0.4519,0.4519,0.4519,0.4519,0.0,0.0,0.0,0.0,0.0,0.0,0.0,0.0,0.0,0.0,0.0,0.0,0.0,0.0,0.0,0.8798,0.8778,0.8798,0.8797,1.0336,1.1913,1.192,0.0,0.0,0.0,0.0,0.0,0.0,0.0,0.0,0.0,0.0,0.0,0.0,0.0,0.0,0.0,0.0,0.0,0.0,0.0,0.0,0.0,0.0,0.0,0.0,0.0,0.0,1.5832,1.5832,1.5832,1.5832,1.5832,1.5832,1.5832,1.5832,1.5832,1.5832,1.5832,1.5832,1.5832,1.5832,1.5832,1.5832,1.5832,1.5832,1.5832,1.5832,1.5832,1.5832,1.5832,1.5832,1.5832,1.5832,1.5832,1.5832,0.0,0.0,0.0,0.0,0.0,0.0,0.0,0.0,0.0,0.0,0.0,0.0,0.0,0.0,0.0,0.0,0.0,0.0,0.0,0.0,0.4488,0.4512,0.4519,0.4519,0.4519,0.4519,0.4519,0.4519,0.4519,0.4519,0.4519,0.4519,0.4519,0.4519,0.4519,0.4519,0.4519,0.4519,0.4519,0.4519,0.4519,0.0,0.0,0.0,0.0,0.0,0.0,0.0,0.0,0.0,0.0,0.0,0.0,0.0,0.8815,0.8817,0.8791,0.8823,0.8789,0.9728,1.0739,1.0717,0.0,0.0,0.0,0.0,0.0,0.0,0.0,0.0,0.0,0.0,0.0,0.0,0.0,0.0,0.0,0.0,0.0,0.0,0.0,0.0,0.0,0.0,0.0,0.0,0.0,0.0,1.5832,1.5832,1.5832,1.5832,1.5832,1.5832,1.5832,1.5832,1.5832,1.5832,1.5832,1.5832,1.5832,1.5832,1.5832,1.5832,1.5832,1.5832,1.5832,1.5832,1.5832,1.5832,1.5832,1.5832,1.5832,1.5832,1.5832,1.5832,0.0,0.0,0.0,0.0,0.0,0.0,0.0,0.0,0.0,0.0,0.0,0.0,0.0,0.0,0.0,0.0,0.0,0.0,0.0,0.0,0.4478,0.4512,0.4519,0.4519,0.4519,0.4519,0.4519,0.4519,0.4519,0.4519,0.4519,0.4519,0.4519,0.4519,0.4519,0.4519,0.4519,0.4519,0.4519,0.4519,0.4519,0.4519,0.0,0.0,0.0,0.0,0.0,0.0,0.0,0.0,0.4519,0.4512,0.4477,0.5257,0.61,0.6133,0.7374,0.8824,0.8793,0.9163,0.0,0.0,0.0,0.0,0.0,0.0,0.0,0.0,0.0,0.0,0.0,0.0,0.0,0.0,0.0,0.0,0.0,0.0,0.0,0.0,0.0,0.0,0.0,0.0,0.0,0.0,0.0,0.0,1.5832,1.5832,1.5832,1.5832,1.5832,1.5832,1.5832,1.5832,1.5832,1.5832,1.5832,1.5832,1.5832,1.5832,1.5832,1.5832,1.5832,1.5832,1.5832,1.5832,1.5832,1.5832,1.5832,1.5832,1.5832,1.5832,1.5832,1.5832,0.0,0.0,0.0,0.0,0.0,0.0,0.0,0.0,0.0,0.0,0.0,0.0,0.0,0.0,0.0,0.0,0.0,0.0,0.3587,0.4153,0.4517,0.4497,0.4508,0.4529,0.4515,0.4519,0.4519,0.4519,0.4519,0.4519,0.4519,0.4519,0.4519,0.4519,0.4519,0.4519,0.4519,0.4519,0.4519,0.4519,0.4519,0.4519,0.0,0.0,0.0,0.0,0.0,0.0,0.0,0.0,0.4519,0.4515,0.4491,0.4481,0.4525,0.452,0.6524,0.8828,0.9032,0.9074,0.9321,0.0,0.0,0.0,0.0,0.0,0.0,0.0,0.0,0.0,0.0,0.0,0.0,0.0,0.0,0.0,0.0,0.0,0.0,0.0,0.0,0.0,0.0,0.0,0.0,0.0,0.0,0.0,0.0,1.5832,1.5832,1.5832,1.5832,1.5832,1.5832,1.5832,1.5832,1.5832,1.5832,1.5832,1.5832,1.5832,1.5832,1.5832,1.5832,1.5832,1.5832,1.5832,1.5832,1.5832,1.5832,1.5832,1.5832,1.5832,1.5832,1.5832,0.0,0.0,0.0,0.0,0.0,0.0,0.0,0.0,0.0,0.0,0.0,0.0,0.0,0.0,0.0,0.0,0.0,0.0,0.3588,0.4142,0.4495,0.4505,0.4519,0.4481,0.4512,0.4519,0.4519,0.4519,0.4519,0.4519,0.4519,0.4519,0.4519,0.4519,0.4519,0.4519,0.4519,0.4519,0.4519,0.4519,0.4519,0.4519,0.4519,0.0,0.0,0.0,0.0,0.0,0.0,0.0,0.4519,0.4519,0.4519,0.4519,0.4508,0.4559,0.6563,0.8921,0.9535,0.9673,0.0,0.0,0.0,0.0,0.0,0.0,0.0,0.0,0.0,0.0,0.0,0.0,0.0,0.0,0.0,0.0,0.0,0.0,0.0,0.0,0.0,0.0,0.0,0.0,0.0,0.0,0.0,0.0,0.0,1.5832,1.5832,1.5832,1.5832,1.5832,1.5832,1.5832,1.5832,1.5832,1.5832,1.5832,1.5832,1.5832,1.5832,1.5832,1.5832,1.5832,1.5832,1.5832,1.5832,1.5832,1.5832,1.5832,1.5832,1.5832,1.5832,1.5832,0.0,0.0,0.0,0.0,0.0,0.0,0.0,0.0,0.0,0.0,0.0,0.0,0.0,0.0,0.0,0.0,0.0,0.0,0.2403,0.3275,0.3849,0.3884,0.4251,0.4488,0.4478,0.4522,0.4519,0.4519,0.4519,0.4519,0.4519,0.4519,0.4519,0.4519,0.4519,0.4519,0.4519,0.4519,0.4519,0.4519,0.4519,0.4519,0.4519,0.0,0.0,0.0,0.0,0.0,0.0,0.0,0.0,0.0,0.4519,0.4478,0.4883,0.6952,0.8122,0.8821,0.9031,0.9704,0.0,0.0,0.0,0.0,0.0,0.0,0.0,0.0,0.0,0.0,0.0,0.0,0.0,0.0,0.0,0.0,0.0,0.0,0.0,0.0,0.0,0.0,0.0,0.0,0.0,0.0,0.0,0.0,0.0,1.5832,1.5832,1.5832,1.5832,1.5832,1.5832,1.5832,1.5832,1.5832,1.5832,1.5832,1.5832,1.5832,1.5832,1.5832,1.5832,1.5832,1.5832,1.5832,1.5832,1.5832,1.5832,1.5832,1.5832,1.5832,1.5832,1.5832,0.0,0.0,0.0,0.0,0.0,0.0,0.0,0.0,0.0,0.0,0.0,0.0,0.0,0.0,0.0,0.0,0.0,0.0,0.0,0.3201,0.3598,0.359,0.3925,0.4268,0.4495,0.4474,0.4519,0.4519,0.4519,0.4491,0.449,0.4491,0.4488,0.449,0.449,0.449,0.0,0.4478,0.4488,0.449,0.449,0.4522,0.4519,0.0,0.0,0.0,0.0,0.0,0.0,0.0,0.0,0.0,0.4519,0.4524,0.4876,0.6875,0.8401,0.9458,0.9197,0.0,0.0,0.0,0.0,0.0,0.0,0.0,0.0,0.0,0.0,0.0,0.0,0.0,0.0,0.0,0.0,0.0,0.0,0.0,0.0,0.0,0.0,0.0,0.0,0.0,0.0,0.0,0.0,0.0,0.0,1.5832,1.5832,1.5832,1.5832,1.5832,1.5832,1.5832,1.5832,1.5832,1.5832,1.5832,1.5832,1.5832,1.5832,1.5832,1.5832,1.5832,1.5832,1.5832,1.5832,1.5832,1.5832,1.5832,1.5832,1.5832,1.5832,1.5832,0.0,0.0,-0.0,-0.0,0.0,0.0,0.0,0.0,0.0,0.0,0.0,0.3269,0.0,0.0,0.0,0.3558,0.0,0.0,0.0,0.0,0.3614,0.361,0.3658,0.3962,0.4512,0.4505,0.4505,0.4519,0.4505,0.449,0.4523,0.4422,0.4462,0.4498,0.4498,0.4446,0.0,0.0,0.4415,0.4442,0.4498,0.4524,0.4477,0.4477,0.0,0.0,0.0,0.0,0.0,0.0,0.0,0.0,0.4519,0.4525,0.4608,0.5309,0.7791,1.0258,0.0,0.0,0.0,0.0,0.0,0.0,0.0,0.0,0.0,0.0,0.0,0.0,0.0,0.0,0.0,0.0,0.0,0.0,0.0,0.0,0.0,0.0,0.0,0.0,0.0,0.0,0.0,0.0,0.0,0.0,0.0,1.5832,1.5832,1.5832,1.5832,1.5832,1.5832,1.5832,1.5832,1.5832,1.5832,1.5832,1.5832,1.5832,1.5832,1.5832,1.5832,1.5832,1.5832,1.5832,1.5832,1.5832,1.5832,1.5832,1.5832,1.5832,1.5832,1.5832,0.0,0.0,-0.0,-0.0,0.0,0.0,0.0,0.0,0.1666,0.265,0.2881,0.3005,0.3005,0.3282,0.0,0.3356,0.352,0.0,0.0,0.0,0.3585,0.3586,0.4077,0.4347,0.4515,0.4516,0.4516,0.4519,0.4516,0.4499,0.4467,0.4,0.4046,0.4487,0.4487,0.4224,0.3808,0.3776,0.3783,0.3811,0.4329,0.4506,0.4485,0.4485,0.451,0.0,0.0,0.0,0.0,0.0,0.0,0.0,0.4519,0.4485,0.473,0.5963,0.7353,0.8581,0.0,0.0,0.0,0.0,0.0,0.0,0.0,0.0,0.0,0.0,0.0,0.0,0.0,0.0,0.0,0.0,0.0,0.0,0.0,0.0,0.0,0.0,0.0,0.0,0.0,0.0,0.0,0.0,0.0,0.0,1.5832,1.5832,1.5832,1.5832,1.5832,1.5832,1.5832,1.5832,1.5832,0.0,1.5832,1.5832,1.5832,1.5832,1.5832,1.5832,1.5832,1.5832,1.5832,1.5832,1.5832,1.5832,1.5832,1.5832,1.5832,1.5832,1.5832,1.5832,0.0,0.0,0.0,0.0,0.0,0.0,0.0,0.0,0.1147,0.2536,0.2752,0.2797,0.2797,0.304,0.0,0.0,0.3482,0.3092,0.0,0.0,0.3612,0.3587,0.4184,0.4494,0.4476,0.451,0.4358,0.4085,0.4365,0.4368,0.0,0.0,0.3767,0.4073,0.4053,0.3916,0.3602,0.3621,0.3605,0.3614,0.3959,0.4056,0.4072,0.4072,0.407,0.4097,0.4386,0.0,0.0,0.0,0.0,0.0,0.0,0.0,0.4628,0.5378,0.6379,0.7661,0.0,0.0,0.0,0.0,0.0,0.0,0.0,0.0,0.0,0.0,0.0,0.0,0.0,0.0,0.0,0.0,0.0,0.0,0.0,0.0,0.0,0.0,0.0,0.0,0.0,0.0,0.0,0.0,0.0,1.5832,1.5832,1.5832,1.5832,1.5832,1.5832,1.5832,1.5832,1.5832,1.5832,1.5832,1.5832,1.5832,1.5832,1.5832,1.5832,1.5832,1.5832,1.5832,1.5832,1.5832,1.5832,1.5832,1.5832,1.5832,1.5832,1.5832,1.5832,1.5832,0.0,0.0,0.0,0.0,0.0,0.0,0.0,0.0,0.0,0.2027,0.2368,0.2467,0.2446,0.2614,0.2853,0.0,0.0,0.0,0.2187,0.0,0.0,0.2993,0.3471,0.3945,0.4494,0.4406,0.4121,0.3611,0.4113,0.0,0.0,0.0,0.0,0.3776,0.3739,0.3676,0.3612,0.3599,0.3601,0.3612,0.3612,0.3586,0.3593,0.3593,0.3605,0.3643,0.4175,0.4417,0.4485,0.4497,0.0,0.0,0.0,0.0,0.4477,0.4502,0.5307,0.6774,0.0,0.0,0.0,0.0,0.0,0.0,0.0,0.0,0.0,0.0,0.0,0.0,0.0,0.0,0.0,0.0,0.0,0.0,0.0,0.0,0.0,0.0,0.0,0.0,0.0,0.0,0.0,0.0,0.0,1.5832,1.5832,1.5832,1.5832,1.5832,1.5832,1.5832,1.5832,1.5832,1.5832,1.5832,1.5832,1.5832,1.5832,1.5832,1.5832,1.5832,1.5832,1.5832,1.5832,1.5832,1.5832,1.5832,1.5832,1.5832,1.5832,1.5832,1.5832,1.5832,0.0,0.0,0.0,0.0,0.0,0.0,0.0,0.0,0.0,0.0,0.1026,0.1502,0.1476,0.1525,0.1848,0.2704,0.3295,0.353,0.0,0.0,0.0,0.0479,0.0545,0.1816,0.4433,0.3986,0.3668,0.3611,0.0,0.0,0.0,0.0,0.0,0.4357,0.0,0.0,0.0,0.0,0.3592,0.3609,0.3609,0.3619,0.3591,0.3591,0.3619,0.363,0.37,0.4076,0.4523,0.4488,0.4523,0.0,0.0,0.0,0.0,0.4498,0.464,0.0,0.0,0.0,0.0,0.0,0.0,0.0,0.0,0.0,0.0,0.0,0.0,0.0,0.0,0.0,0.0,0.0,0.0,0.0,0.0,0.0,0.0,0.0,0.0,0.0,0.0,0.0,0.0,0.0,1.5832,1.5832,1.5832,1.5832,1.5832,1.5832,1.5832,1.5832,1.5832,1.5832,1.5832,1.5832,1.5832,1.5832,1.5832,1.5832,1.5832,1.5832,1.5832,1.5832,1.5832,1.5832,1.5832,1.5832,1.5832,1.5832,1.5832,1.5832,1.5832,1.5832,0.0,0.0,0.0,0.0,0.0,0.0,0.0,0.0,0.0,0.0,0.0,0.0567,0.0555,0.0576,0.0932,0.1829,0.2159,0.0,0.0,0.0,0.0,0.0,-0.0,0.0634,0.1946,0.3066,0.3604,0.3581,0.0,0.0,0.0,0.4239,0.4507,0.0,0.0,0.0,0.0,0.0,0.3604,0.3581,0.3581,0.3581,0.3595,0.3609,0.3621,0.3598,0.3598,0.3777,0.4069,0.4406,0.451,0.4523,0.4494,0.0,0.0,0.0,0.0,0.0,0.0,0.0,0.0,0.0,0.0,0.0,0.0,0.0,0.0,0.0,0.0,0.0,0.0,0.0,0.0,0.0,0.0,0.0,0.0,0.0,0.0,0.0,0.0,0.0,0.0,0.0,0.0,0.0,1.5738,1.5832,1.5832,1.5832,1.5832,1.5832,1.5832,1.5832,1.5832,1.5832,1.5832,1.5832,1.5832,1.5832,1.5832,1.5832,1.5832,1.5832,1.5832,1.5832,1.5832,1.5832,1.5832,1.5832,1.5832,1.5832,1.5832,1.5832,1.5832,1.5832,0.0,0.0,0.0,0.0,0.0,0.0,0.0,0.0,0.0,0.0,0.0,-0.0,-0.0,0.0,0.0,0.0,0.097,0.0,0.0,0.0,0.0,0.0,0.0,-0.0,-0.0,0.2381,0.3602,0.0,0.0,0.0,0.3611,0.4225,0.4499,0.0,0.4478,0.0,0.0,0.0,0.0,0.3587,0.3587,0.3602,0.3638,0.3763,0.3758,0.3605,0.3605,0.3579,0.0,0.0,0.0,0.0,0.0,0.0,0.0,0.0,0.0,0.0,0.0,0.0,0.0,0.0,0.0,0.0,0.0,0.0,0.0,0.0,0.0,0.0,0.0,0.0,0.0,0.0,0.0,0.0,0.0,0.0,0.0,0.0,0.0,0.0,0.0,0.0,0.0,0.0,1.5484,1.5611,1.5611,1.5611,1.5645,1.5718,1.5718,1.5752,1.5832,1.5832,1.5832,1.5832,1.5832,1.5832,1.5832,1.5832,1.5832,1.5832,1.5832,1.5832,1.5832,1.5832,1.5832,1.5832,1.5832,1.5832,1.5832,1.5832,1.5832,1.5832,0.0,0.0,0.0,0.0,0.0,0.0,0.0,0.0,0.0,0.0,0.0,-0.0,-0.0,-0.0,-0.0,0.0073,0.007,0.0,0.0,0.0,0.0,0.0,0.0,0.0,-0.0,0.2377,0.0,0.0,0.0,0.0,0.3611,0.4225,0.4499,0.4512,0.4478,0.4485,0.442,0.0,0.0,0.3588,0.3588,0.3591,0.3661,0.4248,0.4105,0.3599,0.3599,0.0,0.0,0.0,0.0,0.0,0.0,0.0,0.4519,0.0,0.0,0.0,0.0,0.0,0.0,0.0,0.0,0.0,0.0,0.0,0.0,0.0,0.0,0.0,0.0,0.0,0.0,0.0,0.0,0.0,0.0,0.0,0.0,0.0,0.0,0.0,0.0,0.0,0.0,0.0,1.4997,1.501,1.501,1.501,1.5137,1.5411,1.5418,1.5551,1.5825,1.5832,1.5832,1.5832,1.5832,1.5832,1.5832,1.5832,1.5832,1.5832,1.5832,1.5832,1.5832,1.5832,1.5832,1.5832,1.5832,1.5832,1.5832,1.5832,1.5832,1.5832,0.0,0.0,0.0,0.0,0.0,0.0,0.0,0.0,0.0,0.0,0.0,0.0,0.0,-0.0,-0.0,-0.0,-0.0,0.0,0.0,0.0,0.0,0.0,0.0,0.0,0.0,0.0,0.0,0.0,0.0,0.3585,0.3627,0.4228,0.4494,0.4499,0.4121,0.4111,0.4477,0.426,0.0,0.0,0.3587,0.3844,0.0,0.44,0.4343,0.4155,0.0,0.0,0.0,0.0,0.0,0.0,0.4492,0.4501,0.4519,0.4519,0.0,0.0,0.0,0.0,0.0,0.0,0.0,0.0,0.0,0.0,0.0,0.0,0.0,0.0,0.0,0.0,0.0,0.0,0.0,0.0,0.0,0.0,0.0,0.0,0.0,0.0,0.0,0.0,0.0,0.0,0.0,1.4963,1.4963,1.4963,1.501,1.5117,1.5117,1.5257,1.5545,1.5551,1.5645,1.5832,1.5832,1.5832,1.5832,1.5832,1.5832,1.5832,1.5832,1.5832,1.5832,1.5832,1.5832,1.5832,1.5832,1.5832,1.5832,1.5832,1.5832,1.5832,0.0,0.0,0.0,-0.0,0.0,-0.0,-0.0,-0.0,-0.0,-0.0,0.0,0.0,0.0,0.0,-0.0,-0.0,-0.0,-0.0,-0.0,-0.0,0.0,0.0,0.0,0.0,0.0,0.0,0.0,0.0,0.0,0.0,0.0,0.3993,0.4326,0.4485,0.4073,0.3994,0.0,0.0,0.0,0.3891,0.0,0.0,0.4516,0.0,0.4501,0.4474,0.0,0.0,0.0,0.0,0.0,0.0,0.4485,0.4497,0.4519,0.4519,0.0,0.0,0.0,0.0,0.0,0.0,0.0,0.0,0.0,0.0,0.0,0.0,0.0,0.0,0.0,0.0,0.0,0.0,0.0,0.0,0.0,0.0,0.0,0.0,0.0,0.0,0.0,0.0,0.0,0.0,0.0,0.0,1.4669,1.4669,1.4716,1.481,1.491,1.5057,1.5251,1.5351,1.5491,1.5685,1.5785,1.5832,1.5832,1.5832,1.5832,1.5832,1.5832,1.5832,1.5832,1.5832,1.5832,1.5832,1.5832,1.5832,1.5832,1.5832,1.5832,1.5832,-0.0,-0.0,-0.0,-0.0,-0.0,-0.0,-0.0,-0.0,-0.0,-0.0,0.0,0.0,0.0,0.0,0.0,-0.0,-0.0,-0.0,-0.0,-0.0,0.0,0.0,0.0,0.0,0.0,0.0,0.0,0.0,0.0,0.0,0.0,0.0,0.3921,0.4469,0.4455,0.4164,0.365,0.0,0.4512,0.4519,0.0,0.4523,0.4488,0.0,0.0,0.0,0.4519,0.4522,0.0,0.4525,0.0,0.0,0.0,0.4515,0.4512,0.4515,0.4519,0.0,0.0,0.0,0.0,0.0,0.0,0.0,0.0,0.0,0.0,0.0,0.0,0.0,0.0,0.0,0.0,0.0,0.0,0.0,0.0,0.0,0.0,0.0,0.0,0.0,0.0,0.0,0.0,0.0,1.4088,1.4088,1.4088,1.4088,1.4215,1.4496,1.4783,1.4943,1.495,1.5231,1.5378,1.5398,1.5678,1.5818,1.5832,1.5832,1.5832,1.5832,1.5832,1.5832,1.5832,1.5832,1.5832,1.5832,1.5832,1.5832,1.5832,1.5832,1.5832,1.5832,-0.0,-0.0,-0.0,-0.0,-0.0,-0.0,-0.0,-0.0,-0.0,0.0,0.0,0.0,-0.0,-0.0,-0.0,-0.0,-0.0,-0.0,-0.0,-0.0,-0.0,-0.0,-0.0,-0.0,-0.0,0.0,0.0,0.0,0.0,0.0,0.0,0.3599,0.0,0.0,0.3827,0.3751,0.366,0.4221,0.0,0.0,0.4519,0.4478,0.0,0.0,0.0,0.0,0.0,0.4475,0.4508,0.0,0.4508,0.4492,0.0,0.0,0.0,0.4488,0.4519,0.4519,0.4519,0.0,0.0,0.0,0.0,0.0,0.0,0.0,0.0,0.0,0.0,0.0,0.0,0.0,0.0,0.0,0.0,0.0,0.0,0.0,0.0,0.0,0.0,0.0,0.0,0.0,0.0,0.0,1.4088,1.4088,1.4088,1.4088,1.4122,1.4202,1.4289,1.4429,1.4643,1.4723,1.4977,1.5398,1.5478,1.5625,1.5832,1.5832,1.5832,1.5832,1.5832,1.5832,1.5832,1.5832,1.5832,1.5832,1.5832,1.5832,1.5832,1.5832,1.5832,1.5832,-0.0,-0.0,-0.0,-0.0,-0.0,-0.0,-0.0,-0.0,-0.0,0.0,0.0,0.0,-0.0,-0.0,-0.0,-0.0,-0.0,-0.0,-0.0,-0.0,-0.0,-0.0,-0.0,-0.0,-0.0,-0.0,0.0,0.0,0.0,0.3581,0.3581,0.3618,0.3609,0.3612,0.3604,0.3592,0.3633,0.3979,0.0,0.0,0.4424,0.0,0.0,0.4519,0.4519,0.0,0.0,0.0,0.4513,0.481,0.4691,0.0,0.0,0.4512,0.452,0.4494,0.4519,0.0,0.0,0.0,0.0,0.0,0.0,0.0,0.0,1.0601,0.0,0.0,0.0,0.0,0.0,0.0,0.0,0.0,0.0,0.0,0.0,0.0,0.0,0.0,0.0,0.0,0.0,1.4088,1.4088,1.4088,1.4088,1.4088,1.4088,1.4088,1.4088,1.4088,1.4088,1.4168,1.4335,1.4456,1.4689,1.5037,1.5277,1.5484,1.5651,1.5772,1.5832,1.5832,1.5832,1.5832,1.5832,1.5832,1.5832,1.5832,1.5832,1.5832,1.5832,1.5832,1.5832,1.5832,0.0,-0.0,-0.0,-0.0,-0.0,-0.0,-0.0,-0.0,-0.0,0.0,-0.0,-0.0,-0.0,-0.0,-0.0,-0.0,-0.0,-0.0,-0.0,-0.0,-0.0,-0.0,-0.0,-0.0,-0.0,0.0268,0.147,0.3581,0.3581,0.3581,0.3581,0.3581,0.3581,0.3581,0.3581,0.3581,0.3581,0.3615,0.3611,0.3644,0.425,0.4488,0.0,0.0,0.4519,0.4519,0.448,0.4525,0.4598,0.5217,0.5042,0.0,0.0,0.4549,0.4563,0.4529,0.4543,0.0,0.4546,0.5597,0.0,0.0,0.8185,0.0,0.9907,1.0274,1.0595,0.0,0.0,0.0,0.0,0.0,0.0,0.0,0.0,0.0,0.0,0.0,0.0,0.0,0.0,0.0,1.4088,1.4088,1.4088,1.4088,1.4088,1.4088,1.4088,1.4088,1.4088,1.4088,1.4088,1.4088,1.4088,1.4342,1.4489,1.4529,1.505,1.5337,1.5404,1.5665,1.5798,1.5832,1.5832,1.5832,1.5832,1.5832,1.5832,1.5832,1.5832,1.5832,1.5832,1.5832,1.5832,1.5832,-0.0,-0.0,-0.0,-0.0,-0.0,-0.0,-0.0,-0.0,-0.0,-0.0,-0.0,-0.0,-0.0,-0.0,-0.0,-0.0,-0.0,-0.0,-0.0,-0.0,-0.0,-0.0,-0.0,-0.0,-0.0,0.1925,0.3138,0.3595,0.3585,0.3581,0.3581,0.3581,0.3581,0.3581,0.3581,0.3581,0.3595,0.3589,0.0,0.3654,0.4253,0.0,0.4519,0.4519,0.4519,0.4477,0.4485,0.4503,0.4581,0.5199,0.5303,0.5195,0.0,0.4876,0.4904,0.4591,0.4636,0.4802,0.468,0.588,0.7128,0.6996,0.0,0.0,0.9439,0.982,1.0287,0.0,0.0,0.0,0.0,0.0,0.0,0.0,0.0,0.0,0.0,0.0,0.0,0.0,0.0,0.0,1.4088,1.4088,1.4088,1.4088,1.4088,1.4088,1.4088,1.4088,1.4088,1.4088,1.4088,1.4088,1.4088,1.4142,1.4289,1.4522,1.4636,1.4937,1.5398,1.5451,1.5611,1.5832,1.5832,1.5832,1.5832,1.5832,1.5832,1.5832,1.5832,1.5832,1.5832,1.5832,1.5832,1.5832,-0.0,-0.0,-0.0,-0.0,-0.0,-0.0,-0.0,-0.0,-0.0,-0.0,-0.0,-0.0,-0.0,-0.0,-0.0,-0.0,-0.0,-0.0,-0.0,-0.0,-0.0,-0.0,-0.0,-0.0,-0.0,0.1206,0.2413,0.3588,0.3585,0.3581,0.3581,0.3581,0.3615,0.3589,0.3612,0.3614,0.361,0.0,0.3791,0.4086,0.4376,0.0,0.4519,0.4519,0.4507,0.4525,0.4484,0.471,0.4971,0.4975,0.5131,0.0,0.0,0.492,0.4937,0.0,0.4684,0.4904,0.5223,0.624,0.7307,0.7654,0.0,0.0,0.0,0.9907,1.0172,1.054,0.0,0.0,0.0,0.0,0.0,0.0,0.0,0.0,0.0,0.0,0.0,0.0,0.0,0.0,1.4088,1.4088,1.4088,1.4088,1.4088,1.4088,1.4088,1.4088,1.4088,1.4088,1.4088,1.4088,1.4088,1.4088,1.4162,1.4309,1.4449,1.4676,1.497,1.5264,1.5478,1.5618,1.5765,1.5832,1.5832,1.5832,1.5832,1.5832,1.5832,1.5832,1.5832,1.5832,1.5832,1.5832,-0.0,-0.0,-0.0,-0.0,-0.0,-0.0,-0.0,-0.0,-0.0,-0.0,-0.0,-0.0,-0.0,-0.0,-0.0,-0.0,-0.0,-0.0,-0.0,-0.0,-0.0,-0.0,-0.0,-0.0,-0.0,-0.0,0.12,0.3581,0.3581,0.3581,0.3581,0.3581,0.3608,0.3594,0.3718,0.0,0.0,0.0,0.0,0.4481,0.0,0.4519,0.4519,0.4519,0.4498,0.4516,0.4634,0.5009,0.5307,0.4845,0.4913,0.5216,0.5006,0.4979,0.0,0.0,0.0,0.0,0.0,0.0,0.0,0.0,0.0,0.9953,0.0,0.0,0.0,1.0374,0.0,0.0,0.0,0.0,0.0,0.0,0.0,0.0,0.0,0.0,0.0,0.0,0.0,0.0,1.4001,1.4001,1.4021,1.4082,1.4035,1.4028,1.4082,1.4088,1.4088,1.4088,1.4088,1.4088,1.4088,1.4088,1.4088,1.4088,1.4322,1.4469,1.4536,1.501,1.5291,1.5411,1.5645,1.5778,1.5832,1.5832,1.5832,1.5832,1.5832,1.5832,1.5832,1.5832,1.5832,1.5832,-0.0,-0.0,-0.0,-0.0,-0.0,-0.0,-0.0,-0.0,-0.0,-0.0,-0.0,-0.0,-0.0,0.0,0.0,0.0,0.0,-0.0,-0.0,-0.0,-0.0,-0.0,-0.0,-0.0,-0.0,-0.0,0.1198,0.3581,0.3581,0.3581,0.3581,0.3581,0.3608,0.3644,0.4159,0.0,0.0,0.0,0.4435,0.0,0.4518,0.4519,0.0,0.4519,0.4498,0.4542,0.5112,0.5321,0.5401,0.0,0.4995,0.4701,0.0,0.5331,0.5322,0.5102,0.0,0.0,0.0,0.0,0.0,0.0,0.9806,0.0,0.0,0.0,1.0378,0.9907,0.0,0.0,0.0,0.0,0.0,0.0,0.0,0.0,0.0,0.0,0.0,0.0,0.0,0.0,0.0,1.3694,1.3801,1.4068,1.3841,1.3808,1.4075,1.4088,1.4088,1.4088,1.4088,1.4088,1.4088,1.4088,1.4088,1.4088,1.4122,1.4269,1.4522,1.4589,1.4903,1.5398,1.5431,1.5591,1.5832,1.5832,1.5832,1.5832,1.5832,1.5832,1.5832,1.5832,1.5832,1.5832,-0.0,-0.0,-0.0,-0.0,-0.0,-0.0,-0.0,-0.0,-0.0,-0.0,-0.0,-0.0,0.0,0.0,0.0,0.0,0.0,-0.0,0.0,0.0,-0.0,-0.0,-0.0,0.0656,0.2051,0.21,0.2588,0.3581,0.3581,0.3581,0.3581,0.3581,0.3609,0.362,0.4222,0.0,0.4164,0.0,0.4517,0.0,0.0,0.0,0.0,0.4519,0.473,0.5047,0.529,0.5373,0.5415,0.0,0.5219,0.0,0.0,0.0,0.0,0.5301,0.0,0.0,0.0,0.0,0.0,0.0,0.0,0.0,0.9972,0.0,1.0504,0.0,0.0,0.0,0.0,0.0,0.0,0.0,0.0,0.0,0.0,0.0,0.0,0.0,0.0,0.0,0.0,0.0,0.0,0.0,1.3714,1.3774,1.4075,1.4088,1.4088,1.4088,1.4088,1.4088,1.4088,1.4088,1.4088,1.4088,1.4088,1.4155,1.4275,1.4442,1.4656,1.491,1.5244,1.5464,1.5591,1.5758,1.5832,1.5832,1.5832,1.5832,1.5832,1.5832,1.5832,1.5832,-0.0,-0.0,-0.0,-0.0,-0.0,-0.0,-0.0,-0.0,-0.0,-0.0,-0.0,0.0,-0.0,-0.0,0.0,0.0,-0.0,-0.0,0.0,0.0,-0.0,-0.0,-0.0,0.0823,0.2571,0.3262,0.3581,0.3581,0.3581,0.3581,0.3581,0.3581,0.3619,0.3602,0.4234,0.4476,0.4511,0.0,0.4504,0.4524,0.4524,0.4492,0.4525,0.4525,0.4873,0.5395,0.5404,0.5428,0.5411,0.5431,0.5404,0.0,0.5097,0.0,0.5526,0.0,0.0,0.0,0.7603,0.0,0.0,0.0,0.0,0.0,0.0,0.0,0.0,0.0,0.0,0.0,0.0,0.0,0.0,0.0,0.0,0.0,0.0,0.0,0.0,0.0,0.0,0.0,0.0,0.0,0.0,0.0,0.0,1.3654,1.3948,1.4041,1.4088,1.4088,1.4088,1.4088,1.4088,1.4088,1.4088,1.4088,1.4088,1.4088,1.4095,1.4302,1.4442,1.4549,1.5057,1.5324,1.5418,1.5712,1.5832,1.5832,1.5832,1.5832,1.5832,1.5832,1.5832,1.5832,-0.0,-0.0,0.0,-0.0,-0.0,-0.0,-0.0,-0.0,-0.0,-0.0,0.0,0.0,0.0,0.0,0.0,0.0,0.0,-0.0,-0.0,0.0,-0.0,-0.0,-0.0,0.005,0.0,0.2407,0.3622,0.3581,0.3581,0.3581,0.3581,0.0,0.0,0.0,0.4251,0.4521,0.4485,0.4511,0.4485,0.4503,0.4503,0.4526,0.453,0.0,0.4869,0.5407,0.5373,0.0,0.0,0.5422,0.5425,0.0,0.0,0.0,0.0,0.0,0.0,0.0,0.0,0.0,0.0,0.8333,0.0,0.0,0.0,0.0,1.0982,0.0,0.0,0.0,0.0,0.0,0.0,0.0,0.0,0.0,0.0,0.0,0.0,0.0,0.0,0.0,0.0,0.0,0.0,0.0,1.3227,0.0,1.3559,1.3928,1.4088,1.4088,1.4088,1.4088,1.4088,1.4088,1.4088,1.4088,1.4088,1.4088,1.4088,1.4095,1.4255,1.4536,1.4843,1.5137,1.5418,1.5712,1.5832,1.5832,1.5832,1.5832,1.5832,1.5832,1.5832,1.5832,0.0,0.0,0.0,0.0,0.0,-0.0,-0.0,-0.0,-0.0,0.0,-0.0,0.0,0.0,-0.0,-0.0,0.0,0.0,-0.0,-0.0,-0.0,0.0,-0.0,-0.0,0.0938,0.0,0.3374,0.3578,0.3624,0.3624,0.3624,0.3621,0.0,0.0,0.0,0.0,0.4107,0.0,0.0,0.0,0.0,0.0,0.5118,0.5123,0.0,0.522,0.5414,0.5373,0.5428,0.0,0.5428,0.5408,0.5384,0.5384,0.5401,0.5554,0.6322,0.6815,0.714,0.0,0.0,0.8117,0.8836,0.0,0.0,0.0,0.0,0.0,0.0,0.0,0.0,0.0,0.0,0.0,0.0,0.0,0.0,0.0,0.0,0.0,0.0,0.0,0.0,0.0,0.0,0.0,0.0,1.2979,0.0,1.3627,1.3928,1.4088,1.4088,1.4088,1.4088,1.4088,1.4088,1.4088,1.4088,1.4088,1.4088,1.4088,1.4088,1.4142,1.4249,1.4543,1.4723,1.4856,1.5337,1.5545,1.5565,1.5752,1.5832,1.5832,1.5832,1.5832,1.5832,-0.0,0.0,0.0,0.0,0.0,-0.0,-0.0,-0.0,0.0,0.0,-0.0,0.0,-0.0,0.0,-0.0,0.0,-0.0,-0.0,-0.0,-0.0,0.0,0.1565,0.056,0.0,0.0,0.0,0.3925,0.3916,0.3916,0.3916,0.3913,0.0,0.0,0.0,0.0,0.3948,0.4481,0.0,0.4515,0.0,0.0,0.5392,0.0,0.0,0.5413,0.5427,0.0,0.5428,0.5425,0.5408,0.5384,0.5636,0.6845,0.7263,0.7175,0.6713,0.6905,0.7185,0.6988,0.7007,0.0,0.8442,0.8853,0.0,1.0093,0.0,1.1149,0.0,0.0,0.0,0.0,0.0,0.0,0.0,1.0983,0.0,0.0,1.087,0.0,0.0,0.0,0.0,0.0,0.0,1.1924,1.2131,1.2605,0.0,0.0,1.3768,1.3975,1.4082,1.4088,1.4088,1.4088,1.4088,1.4088,1.4088,1.4088,1.4088,1.4088,1.4088,1.4088,1.4102,1.4396,1.4522,1.4563,1.5157,1.5398,1.5424,1.5718,1.5832,1.5832,1.5832,1.5832,1.5832,-0.0,0.0,0.0,0.0,-0.0,0.0,0.0,0.0,-0.0,0.0,-0.0,-0.0,-0.0,-0.0,-0.0,-0.0,-0.0,-0.0,-0.0,-0.0,0.0,0.0,0.1794,0.1537,0.446,0.0,0.0,0.0,0.4507,0.4507,0.4503,0.0,0.0,0.0,0.3621,0.0,0.4488,0.4505,0.4539,0.4577,0.5178,0.5428,0.5428,0.5428,0.5428,0.5428,0.5428,0.5428,0.5422,0.5373,0.5491,0.6256,0.9533,1.0645,1.0356,0.8654,0.703,0.5934,0.6721,0.7028,0.7166,0.738,0.8709,0.0,0.0,0.0,1.145,0.0,0.0,0.0,0.0,0.0,0.0,0.0,1.1169,0.0,0.0,0.0,0.0,0.0,0.0,0.0,0.0,0.0,1.1243,1.1804,1.2131,0.0,0.0,1.348,1.3774,1.4055,1.4082,1.4088,1.4088,1.4088,1.4088,1.4088,1.4088,1.4088,1.4088,1.4088,1.4088,1.4102,1.4382,1.4496,1.4543,1.5117,1.5351,1.5384,1.5691,1.5812,1.5832,1.5832,1.5832,1.5832,-0.0,-0.0,-0.0,0.0,-0.0,-0.0,0.0,0.0,0.0,0.0,-0.0,-0.0,-0.0,-0.0,-0.0,-0.0,-0.0,0.0,0.0,0.0,0.0,0.503,0.4003,0.3706,0.4482,0.4522,0.4501,0.4513,0.0,0.0,0.4509,0.0,0.0,0.0,0.0,0.0,0.4488,0.4505,0.4777,0.5161,0.5353,0.5428,0.5428,0.0,0.5428,0.5428,0.5428,0.5428,0.5422,0.5373,0.7111,0.9421,1.0346,1.1196,1.1584,1.0331,0.7957,0.6075,0.7338,0.7581,0.7819,0.9506,1.0081,1.0432,0.0,0.0,0.0,0.0,0.0,0.0,0.0,0.0,0.0,0.0,0.0,0.0,0.0,0.0,0.0,0.0,0.0,0.0,0.0,1.1062,1.1376,1.153,1.2011,0.0,0.0,0.0,1.3674,1.3754,1.3975,1.4088,1.4088,1.4088,1.4088,1.4088,1.4088,1.4088,1.4088,1.4088,1.4088,1.4088,1.4168,1.4202,1.4229,1.4596,1.4743,1.4796,1.5311,1.5638,1.5832,1.5832,1.5832,1.5832,-0.0,0.0,0.0,-0.0,0.0,0.0,-0.0,-0.0,0.0,-0.0,-0.0,0.0,-0.0,-0.0,-0.0,-0.0,0.1414,0.0,0.2386,0.0,0.0,0.5157,0.5057,0.4839,0.468,0.4546,0.0,0.4502,0.0,0.0,0.4515,0.0,0.0,0.0,0.0,0.4502,0.453,0.4782,0.5111,0.5407,0.5367,0.5428,0.0,0.5428,0.5428,0.5428,0.5428,0.5428,0.5428,0.5425,0.7702,1.0605,1.0597,1.1404,1.2183,1.1497,1.0066,0.8527,0.8133,0.8116,0.8683,1.0375,1.0677,1.0834,1.1676,1.187,1.187,0.0,1.1991,1.2072,0.0,0.0,0.0,0.0,0.0,0.0,0.0,0.0,0.0,0.0,1.0624,0.0,1.0624,1.0855,1.1029,1.1075,1.158,0.0,0.0,0.0,1.3514,1.3641,1.3935,1.4088,1.4088,1.4088,1.4088,1.4088,1.4088,1.4088,1.4088,1.4088,1.4088,1.4088,1.4088,1.4088,1.4108,1.4402,1.4522,1.4576,1.5164,1.5571,1.5832,1.5832,1.5832,1.5832,-0.0,0.0,0.0,0.0,0.0,0.0,0.0,-0.0,0.0,-0.0,0.0,-0.0,-0.0,-0.0,0.0202,0.0674,0.0,0.5428,0.537,0.3914,0.3673,0.5071,0.5308,0.5238,0.4952,0.4756,0.4607,0.0,0.4498,0.448,0.4515,0.0,0.0,0.0,0.0,0.0,0.0,0.5054,0.5333,0.5371,0.5377,0.5428,0.5428,0.5428,0.5428,0.5428,0.5382,0.5386,0.5389,0.5433,0.7788,1.0821,1.0802,1.153,1.2276,1.2271,1.2301,1.1755,0.9259,0.8961,0.9669,1.0714,1.1013,1.1175,1.1834,1.1924,1.1924,1.1924,1.1846,1.1912,1.2251,0.0,0.0,0.0,0.0,0.0,0.0,0.0,0.0,0.0,0.0,0.0,0.0,1.0624,1.0604,1.06,1.1075,0.0,0.0,0.0,1.328,1.3581,1.3915,1.4088,1.4088,1.4088,1.4088,1.4088,1.4088,1.4088,1.4088,1.4088,1.4088,1.4088,1.4088,1.4088,1.4108,1.4355,1.4509,1.4629,1.5144,1.5538,1.5832,1.5832,1.5832,1.5832,-0.0,0.0,0.0,0.0,0.0,-0.0,-0.0,-0.0,-0.0,-0.0,-0.0,-0.0,-0.0,-0.0,0.1212,0.4182,0.5001,0.0,0.0,0.0,0.0,0.5304,0.5394,0.5394,0.5294,0.5262,0.4996,0.451,0.4487,0.4525,0.4519,0.4494,0.0,0.0,0.0,0.0,0.4534,0.4585,0.0,0.5391,0.5418,0.5428,0.5428,0.5428,0.5428,0.5376,0.5433,0.5385,0.5416,0.5389,0.8366,1.2026,1.2029,1.2148,1.2331,1.2324,1.2311,1.219,1.171,1.0879,1.0461,1.1687,1.207,1.2063,1.2238,1.2225,1.2225,1.2225,1.2225,1.2238,1.2291,0.0,0.0,0.0,0.0,0.0,0.0,0.0,0.0,0.0,0.0,1.0624,0.0,1.0624,1.0604,1.06,0.0,0.0,0.0,0.0,1.2966,0.0,1.3808,1.4088,0.0,0.0,1.4088,1.4088,1.4088,1.4088,1.4088,1.4088,1.4088,1.4088,1.4088,1.4088,1.4088,1.4142,1.4449,1.4897,1.4997,1.5364,1.5832,1.5832,1.5832,1.5832,0.0,0.0,0.0,0.0,0.0,0.0,0.0,-0.0,-0.0,-0.0,-0.0,-0.0,-0.0,-0.0,0.1482,0.5071,0.5406,0.5399,0.5386,0.5382,0.5376,0.5369,0.5369,0.5401,0.5387,0.5371,0.5282,0.4991,0.4669,0.4495,0.4519,0.4519,0.4519,0.4522,0.0,0.4484,0.0,0.0,0.0,0.5383,0.5397,0.5428,0.5428,0.5428,0.541,0.542,0.5421,0.5587,0.6182,0.8277,1.049,1.2317,1.2281,1.2335,1.229,1.2265,1.2331,1.2277,1.2318,1.1835,1.1527,1.2144,1.2305,1.2305,1.2305,1.2305,1.2305,1.2305,1.2305,1.2305,1.2305,1.2271,0.0,0.0,0.0,0.0,0.0,0.0,0.0,0.0,0.0,0.0,0.0,0.0,0.0,0.0,0.0,0.0,0.0,0.0,1.2732,0.0,0.0,0.0,1.4088,0.0,1.4088,1.4088,1.4088,1.4088,1.4088,1.4088,1.4088,1.4088,1.4088,1.4088,1.4088,1.4088,1.4342,1.475,1.4903,1.5224,1.5625,1.5772,1.5832,1.5832,0.0,-0.0,0.0,0.0,-0.0,0.0,-0.0,-0.0,-0.0,-0.0,-0.0,-0.0,-0.0,-0.0,0.1301,0.46,0.5287,0.5484,0.5471,0.5433,0.541,0.541,0.5446,0.5428,0.5428,0.5377,0.5371,0.0,0.4813,0.4484,0.4507,0.4477,0.448,0.4514,0.0,0.0,0.0,0.0,0.5414,0.5389,0.538,0.5379,0.541,0.541,0.5433,0.5424,0.5527,0.5878,0.6799,0.9979,1.1608,1.2297,1.2265,1.2305,1.2305,1.2305,1.2305,1.2305,1.2305,1.2305,1.2305,1.2305,1.2305,1.2305,1.2305,1.2305,1.2305,1.2305,1.2305,1.2305,1.2305,1.2305,0.0,0.0,0.0,0.0,0.0,0.0,0.0,0.0,0.0,0.0,1.0624,0.0,0.0,0.0,0.0,0.0,1.1567,0.0,0.0,0.0,0.0,1.3754,1.3988,0.0,1.4088,1.4088,1.4088,1.4088,1.4088,1.4088,1.4088,1.4088,1.4088,1.4088,1.4088,1.4088,1.4255,1.4543,1.4776,1.5084,1.5424,1.5651,1.5772,1.5832,0.0,0.0,0.0,0.0,0.0,0.0,-0.0,-0.0,-0.0,-0.0,-0.0,-0.0,-0.0,-0.0,0.0867,0.3103,0.485,0.5796,0.5766,0.564,0.5569,0.5569,0.5437,0.5428,0.5428,0.5415,0.5397,0.0,0.0,0.4511,0.0,0.4524,0.4478,0.4497,0.4521,0.0,0.0,0.5382,0.5413,0.5408,0.5422,0.5376,0.5424,0.5424,0.537,0.5503,0.6016,0.6279,0.6356,0.6765,0.9285,1.2311,1.2318,1.2305,1.2305,1.2305,1.2305,1.2305,1.2305,1.2305,1.2305,1.2305,1.2305,1.2305,1.2305,1.2305,1.2305,1.2305,1.2305,1.2305,1.2305,1.2305,1.2298,0.0,0.0,0.0,0.0,0.0,1.0622,1.0615,0.0,0.0,0.0,1.0624,0.0,0.0,1.0651,0.0,1.1165,1.1653,0.0,1.2849,1.3347,1.3661,1.3687,1.3955,1.4088,1.4088,1.4088,1.4088,1.4088,1.4088,1.4088,1.4088,1.4088,1.4088,1.4088,1.4088,1.4255,1.4522,1.4549,1.4903,1.5398,1.5424,1.5605,1.5832,0.0,0.0,0.0,0.0,0.0,0.0,0.0,-0.0,-0.0,-0.0,-0.0,-0.0,-0.0,0.2281,0.3574,0.3125,0.4804,0.5899,0.5803,0.5749,0.5718,0.5718,0.5503,0.5426,0.5426,0.5406,0.5418,0.0,0.0,0.0,0.4518,0.4519,0.471,0.5019,0.0,0.5143,0.5399,0.5431,0.5425,0.5426,0.5426,0.5372,0.5425,0.5789,0.5957,0.5949,0.6236,0.631,0.6298,0.6311,0.8954,1.2263,1.2325,1.2305,1.2311,1.2291,1.2271,1.2318,1.2291,1.2264,1.2305,1.2305,1.2305,1.2305,1.2305,1.2305,1.2305,1.2305,1.2305,1.2305,1.2305,1.2305,1.2265,1.231,0.0,0.0,0.0,0.0,0.0,1.062,0.0,1.0624,0.0,0.0,0.0,0.0,0.0,1.0626,1.0791,1.139,0.0,1.2464,0.0,1.3467,1.3559,1.3941,1.4088,1.4088,1.4088,1.4088,1.4088,1.4088,1.4088,1.4088,1.4088,1.4088,1.4088,1.4088,1.4155,1.4282,1.4449,1.4776,1.5157,1.5331,1.5578,1.5832,-0.0,0.0,-0.0,0.0,-0.0,-0.0,-0.0,-0.0,-0.0,-0.0,-0.0,0.0459,0.1684,0.4535,0.5693,0.4163,0.5282,0.6026,0.5939,0.5891,0.5867,0.5867,0.5654,0.0,0.5507,0.5405,0.5369,0.5397,0.5422,0.0,0.4791,0.4791,0.4988,0.5382,0.542,0.5425,0.5401,0.5399,0.5375,0.5434,0.558,0.5668,0.5719,0.6168,0.6268,0.6331,0.6331,0.6325,0.6331,0.6283,0.8197,1.0761,1.1961,1.2291,1.2317,1.2269,1.1428,1.076,1.1977,1.2337,1.2264,1.2264,1.2318,1.2305,1.2305,1.2305,1.2305,1.2305,1.2305,1.2305,1.2305,1.2305,1.2278,1.2278,0.0,0.0,0.0,1.1614,0.0,1.0633,1.0586,1.0624,1.0624,1.0624,0.0,0.0,0.0,1.0754,1.1103,1.146,0.0,0.0,0.0,0.0,1.3514,1.3814,1.4001,1.4088,1.4088,1.4088,1.4088,1.4088,1.4088,1.4088,1.4088,1.4088,1.4088,1.4088,1.4088,1.4108,1.4315,1.4629,1.499,1.5197,1.5504,1.5832,-0.0,-0.0,-0.0,-0.0,-0.0,-0.0,-0.0,-0.0,-0.0,-0.0,-0.0,0.157,0.5764,0.6247,0.6312,0.6274,0.6271,0.6268,0.6254,0.6112,0.6027,0.0,0.0,0.58,0.5724,0.5503,0.5425,0.5421,0.0,0.0,0.5369,0.5369,0.5369,0.5369,0.5369,0.5374,0.5415,0.5431,0.538,0.5431,0.6022,0.627,0.6257,0.6332,0.628,0.6335,0.6335,0.6335,0.6331,0.6283,0.6346,0.7038,1.1085,1.2273,1.2263,1.2315,0.9466,0.7215,1.1193,1.2287,1.2282,1.2282,1.2291,1.2305,1.2305,1.2305,1.2305,1.2305,1.2305,1.2305,1.2305,1.2305,1.2291,1.2322,0.0,0.0,0.0,1.2287,0.0,1.0725,1.0586,1.0624,1.0624,1.0624,0.0,0.0,0.0,1.1116,1.2211,1.171,0.0,1.2298,1.2332,0.0,1.3213,1.35,1.3794,1.4088,1.4088,1.4088,1.4088,1.4088,1.4088,1.4088,1.4088,1.4088,1.4088,1.4088,1.4088,1.4088,1.4088,1.4449,1.4963,1.497,1.5337,1.5832,-0.0,-0.0,-0.0,-0.0,-0.0,-0.0,-0.0,-0.0,-0.0,-0.0,-0.0,0.102,0.3839,0.5425,0.6298,0.0,0.6271,0.6264,0.0,0.6213,0.6186,0.6186,0.604,0.5959,0.611,0.5854,0.58,0.6022,0.0,0.0,0.0,0.6026,0.6026,0.6026,0.6026,0.5759,0.5428,0.5827,0.6043,0.6033,0.6187,0.6282,0.6266,0.6266,0.6297,0.6338,0.6338,0.6338,0.6335,0.6321,0.6314,0.656,0.7806,1.0094,1.1778,0.8998,0.7311,0.6594,0.7901,0.8188,0.884,1.1627,1.2337,1.2297,1.2318,1.2305,1.2305,1.2305,1.2305,1.2305,1.2305,1.2305,1.2278,1.2264,1.2318,0.0,1.2294,0.0,1.1859,1.0714,1.0586,1.0626,1.0575,1.0593,0.0,0.0,0.0,0.0,1.2284,0.0,0.0,0.0,1.2326,0.0,1.2544,1.3487,1.3974,1.4076,1.4085,1.4088,1.4088,1.4088,1.4088,1.4088,1.4088,1.4088,1.4088,1.4088,1.4088,1.4108,1.4302,1.4623,1.499,1.519,1.5504,1.5832,-0.0,-0.0,-0.0,-0.0,-0.0,-0.0,-0.0,-0.0,-0.0,-0.0,-0.0,0.0784,0.289,0.5018,0.0,0.6274,0.6264,0.6338,0.6338,0.6338,0.6338,0.6338,0.6169,0.6194,0.6273,0.6098,0.0,0.6279,0.6279,0.6279,0.6279,0.6279,0.6279,0.6275,0.6291,0.6072,0.5744,0.6138,0.6282,0.6273,0.6273,0.6329,0.6338,0.6338,0.6338,0.6338,0.6338,0.6338,0.6271,0.6322,0.6339,0.628,0.6311,0.8171,0.9802,0.7085,0.6271,0.627,0.6274,0.63,0.692,0.9427,1.1172,1.233,1.2318,1.2305,1.2305,1.2305,1.2305,1.2305,1.2305,1.2305,1.2305,1.2305,1.2305,1.2305,1.2305,0.0,1.2036,0.0,0.0,0.0,0.0,1.0599,1.0754,0.0,0.0,0.0,0.0,0.0,1.2305,1.2305,1.2326,1.228,1.2305,1.322,1.3796,1.4096,1.4092,1.4088,1.4088,1.4088,1.4088,1.4088,1.4088,1.4088,1.4088,1.4088,1.4088,1.4115,1.4409,1.4703,1.4997,1.5291,1.5578,1.5832,-0.0,-0.0,-0.0,0.0,-0.0,0.0,-0.0,-0.0,-0.0,-0.0,-0.0,0.0784,0.289,0.5018,0.6288,0.6264,0.0,0.0,0.6338,0.6338,0.6338,0.6338,0.6338,0.6338,0.6338,0.6338,0.6338,0.6338,0.6338,0.6338,0.6338,0.6338,0.6338,0.6331,0.6266,0.6284,0.6328,0.6263,0.6287,0.6338,0.6338,0.6338,0.6338,0.6338,0.6268,0.6274,0.6274,0.6281,0.6312,0.6278,0.6321,0.6347,0.6331,0.6709,0.7033,0.6476,0.6308,0.6322,0.6288,0.6277,0.63,0.6287,0.9301,1.2269,1.2264,1.2318,1.2318,1.2311,1.2311,1.2311,1.2305,1.2305,1.2305,1.2305,1.2305,1.2305,1.2305,1.2315,1.2294,0.0,0.0,0.0,1.0735,1.0748,1.1177,0.0,0.0,0.0,0.0,0.0,1.2325,1.2325,1.2346,1.2454,1.2409,1.2775,1.3335,1.4088,1.4088,1.4088,1.4088,1.4088,1.4088,1.4088,1.4088,1.4088,1.4088,1.4088,1.4088,1.4122,1.4429,1.4723,1.4997,1.5311,1.5598,1.5832,0.0,0.0,-0.0,-0.0,-0.0,-0.0,-0.0,-0.0,-0.0,-0.0,-0.0,0.0785,0.2901,0.5026,0.6291,0.6274,0.6268,0.6338,0.6338,0.6338,0.6338,0.6338,0.6338,0.6338,0.6338,0.6338,0.6338,0.6338,0.6338,0.6338,0.6338,0.6338,0.6338,0.6335,0.63,0.6304,0.6335,0.63,0.6304,0.6338,0.6338,0.6338,0.6338,0.6338,0.6325,0.6337,0.6337,0.6331,0.6267,0.6296,0.6562,0.6926,0.6915,0.6972,0.6957,0.643,0.6558,0.6855,0.6384,0.6276,0.6293,0.6307,0.9294,1.2326,1.23,1.23,1.2273,1.2269,1.233,1.2304,1.2318,1.2305,1.2305,1.2305,1.2305,1.2305,1.2305,1.2325,1.2283,0.0,1.205,1.1907,1.1916,1.1873,1.2029,0.0,0.0,1.2311,1.2298,1.2267,1.2296,1.2296,1.3217,1.3684,1.3657,1.3777,1.389,1.4088,1.4088,1.4088,1.4088,1.4088,1.4088,1.4088,1.4088,1.4088,1.4088,1.4088,1.4088,1.4135,1.4656,1.4903,1.5023,1.5538,1.5772,1.5832,-0.0,-0.0,-0.0,-0.0,-0.0,-0.0,-0.0,-0.0,-0.0,-0.0,-0.0,0.0392,0.1568,0.3602,0.5251,0.62,0.6268,0.6338,0.6338,0.6338,0.6338,0.6338,0.6338,0.6338,0.6338,0.6338,0.6338,0.6338,0.6338,0.6338,0.6338,0.6338,0.6338,0.6338,0.6338,0.6338,0.6338,0.6338,0.6338,0.6338,0.6338,0.6298,0.6277,0.6277,0.6284,0.6325,0.6576,0.663,0.6625,0.6696,0.6891,0.7095,0.707,0.7059,0.7076,0.6728,0.6891,0.7058,0.6787,0.6666,0.6585,0.637,0.7936,0.9566,0.9535,0.9535,0.9528,0.9557,1.1022,1.2267,1.2296,1.2324,1.2284,1.2284,1.2325,1.2305,1.2305,1.2305,1.2325,1.2328,1.2308,1.2326,1.2324,1.2298,1.2308,1.2308,1.2298,0.0,1.2305,1.2282,1.2263,1.2305,1.3457,1.4136,1.4139,1.4077,1.4115,1.4088,1.4088,1.4088,1.4088,1.4088,1.4088,1.4088,1.4088,1.4088,1.4088,1.4088,1.4088,1.4128,1.4589,1.4763,1.483,1.5418,1.5631,1.5651,-0.0,-0.0,-0.0,-0.0,-0.0,-0.0,-0.0,-0.0,-0.0,-0.0,-0.0,-0.0,-0.0,0.1876,0.3986,0.6119,0.6268,0.6338,0.6338,0.6338,0.6338,0.6338,0.6338,0.6338,0.6338,0.6338,0.6338,0.6338,0.6338,0.6338,0.6338,0.6338,0.6338,0.6338,0.6338,0.6338,0.6264,0.6285,0.6291,0.6295,0.6315,0.6317,0.6341,0.6421,0.6433,0.6479,0.6909,0.7094,0.7133,0.7093,0.7139,0.7073,0.7102,0.7139,0.7139,0.7139,0.7139,0.714,0.7104,0.7112,0.6982,0.6516,0.6394,0.6427,0.6284,0.6335,0.6322,0.6291,0.8993,1.1374,1.1362,1.1371,1.1627,1.2201,1.2311,1.2264,1.2325,0.0,1.2318,1.2318,1.2311,1.2305,1.2305,1.2305,1.2305,1.2305,1.2305,1.2305,1.2305,1.2264,1.2309,1.2298,1.3466,1.409,1.409,1.4065,1.4088,1.4088,1.4088,1.4088,1.4088,1.4088,1.4088,1.4088,1.4088,1.4088,1.4088,1.4088,1.4088,1.4115,1.4409,1.4522,1.4589,1.5184,1.5398,1.5438,-0.0,-0.0,-0.0,-0.0,-0.0,-0.0,-0.0,-0.0,-0.0,-0.0,-0.0,-0.0,-0.0,0.1877,0.3988,0.6132,0.6274,0.6338,0.6338,0.6338,0.6338,0.6338,0.6338,0.6338,0.6338,0.6338,0.6338,0.6338,0.6338,0.6338,0.6338,0.6338,0.6338,0.6338,0.6338,0.6338,0.6268,0.6307,0.6275,0.6284,0.6329,0.6309,0.6325,0.6833,0.6934,0.6984,0.7069,0.7063,0.7078,0.7102,0.7109,0.7112,0.7132,0.7139,0.7139,0.7139,0.7109,0.7078,0.7102,0.7094,0.7069,0.6973,0.694,0.6869,0.6398,0.6268,0.6291,0.629,0.6809,0.7194,0.7227,0.7211,0.8369,1.1714,1.2267,1.2287,1.2276,0.0,1.2337,1.2337,1.2271,1.2305,1.2305,1.2305,1.2305,1.2305,1.2305,1.2305,1.2305,1.228,1.2266,1.2305,1.3454,1.4075,1.4105,1.4068,1.4088,1.4088,1.4088,1.4088,1.4088,1.4088,1.4088,1.4088,1.4088,1.4088,1.4088,1.4088,1.4088,1.4115,1.4409,1.4522,1.4589,1.5184,1.5398,1.5438,-0.0,-0.0,-0.0,-0.0,-0.0,-0.0,-0.0,-0.0,-0.0,-0.0,-0.0,-0.0,-0.0,0.1881,0.4001,0.6074,0.6288,0.6271,0.6271,0.6264,0.6338,0.6338,0.6335,0.6413,0.6495,0.6334,0.6291,0.6294,0.6294,0.6332,0.6338,0.6338,0.6302,0.6294,0.6294,0.6337,0.6334,0.6316,0.6427,0.677,0.6757,0.6749,0.6736,0.7,0.7093,0.7131,0.7131,0.7085,0.7139,0.7139,0.7139,0.7139,0.7139,0.7139,0.7139,0.7139,0.7139,0.7139,0.7139,0.7095,0.7131,0.7131,0.7111,0.7042,0.6798,0.6529,0.6261,0.6264,0.6307,0.63,0.6276,0.6329,0.6935,0.8737,1.086,1.1513,0.9401,0.9075,0.9884,1.2035,1.2335,1.2309,1.2309,1.233,1.2297,1.2297,1.2325,1.2305,1.2305,1.2263,1.2319,1.2305,1.3471,1.4117,1.4082,1.4088,1.4088,1.4088,1.4088,1.4088,1.4088,1.4088,1.4088,1.4088,1.4088,1.4088,1.4088,1.4088,1.4088,1.4102,1.4235,1.4282,1.4355,1.4943,1.5164,1.5224,-0.0,-0.0,-0.0,-0.0,-0.0,-0.0,-0.0,-0.0,-0.0,-0.0,-0.0,-0.0,-0.0,0.1412,0.3456,0.6087,0.5821,0.5802,0.6278,0.6379,0.6393,0.6312,0.6447,0.658,0.6615,0.6446,0.6391,0.6522,0.6357,0.6304,0.628,0.628,0.6337,0.6276,0.6441,0.6505,0.6446,0.6482,0.6753,0.7101,0.7136,0.7137,0.707,0.707,0.7135,0.7139,0.7139,0.7139,0.7139,0.7139,0.7139,0.7139,0.7139,0.7139,0.7139,0.7139,0.7139,0.7139,0.7139,0.7139,0.7139,0.7139,0.7061,0.7107,0.7087,0.6692,0.6311,0.6298,0.6338,0.6338,0.6338,0.6307,0.628,0.627,0.0,0.9829,0.6764,0.6291,0.7475,1.0551,1.0872,1.0936,1.0936,1.0946,1.1315,1.2234,1.2311,1.2331,1.2331,1.2311,1.2269,1.2298,1.3507,1.4131,1.4079,1.4062,1.4088,1.4088,1.4088,1.4088,1.4088,1.4088,1.4088,1.4088,1.4088,1.4088,1.4088,1.4088,1.4088,1.4088,1.4088,1.4128,1.4249,1.4776,1.501,1.5137,-0.0,-0.0,-0.0,-0.0,-0.0,-0.0,-0.0,-0.0,-0.0,-0.0,-0.0,-0.0,-0.0,0.0157,0.1882,0.5927,0.4472,0.4144,0.6197,0.6489,0.6561,0.6458,0.6603,0.6688,0.6785,0.6702,0.6781,0.7026,0.6513,0.6338,0.6328,0.6328,0.6334,0.6341,0.6854,0.7033,0.7051,0.7027,0.7086,0.71,0.7058,0.7115,0.7126,0.7126,0.7132,0.7139,0.7139,0.7139,0.7139,0.7139,0.7139,0.7139,0.7139,0.7139,0.7139,0.7139,0.7139,0.7139,0.7139,0.7139,0.7139,0.7139,0.7132,0.7142,0.7111,0.6692,0.6267,0.6318,0.6338,0.6338,0.6338,0.6335,0.6318,0.6276,0.0,0.0,0.635,0.6263,0.6419,0.6736,0.6771,0.6745,0.6745,0.6742,0.8321,1.2017,1.2335,1.2269,1.2269,1.2271,1.2269,1.2298,1.3507,1.4124,1.4063,1.4135,1.4088,1.4088,1.4088,1.4088,1.4088,1.4088,1.4088,1.4088,1.4088,1.4088,1.4088,1.4088,1.4088,1.4088,1.4088,1.4255,1.4529,1.4843,1.5137,1.5411,-0.0,-0.0,-0.0,-0.0,-0.0,-0.0,-0.0,-0.0,-0.0,-0.0,-0.0,-0.0,-0.0,-0.0,0.0638,0.2281,0.2863,0.409,0.6368,0.6411,0.6505,0.6749,0.681,0.6885,0.6973,0.6973,0.7018,0.7105,0.6929,0.6793,0.6785,0.6785,0.6836,0.6841,0.7017,0.7069,0.7066,0.7125,0.7061,0.7068,0.7119,0.7139,0.7139,0.7139,0.7139,0.7139,0.7139,0.7139,0.7139,0.7139,0.7139,0.7139,0.7139,0.7139,0.7139,0.7139,0.7139,0.7139,0.7139,0.7139,0.7139,0.7139,0.7139,0.7065,0.7111,0.6698,0.628,0.6322,0.6338,0.6338,0.6338,0.6338,0.6331,0.6314,0.0,0.6331,0.6314,0.6311,0.6311,0.6311,0.6297,0.6287,0.6287,0.6336,0.695,0.847,0.8566,0.9653,1.2143,1.2289,1.2276,1.23,1.2739,1.3373,1.4111,1.4129,1.4088,1.4088,1.4088,1.4088,1.4088,1.4088,1.4088,1.4088,1.4088,1.4088,1.4088,1.4088,1.4088,1.4088,1.4088,1.4155,1.4309,1.479,1.503,1.5197,-0.0,-0.0,-0.0,-0.0,-0.0,-0.0,-0.0,-0.0,-0.0,-0.0,-0.0,-0.0,-0.0,-0.0,-0.0,-0.0,0.1298,0.3374,0.6289,0.5723,0.5805,0.684,0.6893,0.7048,0.7139,0.7139,0.7095,0.7087,0.7087,0.7118,0.7102,0.7102,0.7073,0.7087,0.7087,0.7138,0.7139,0.7139,0.7139,0.7139,0.7139,0.7139,0.7139,0.7139,0.7139,0.7139,0.7139,0.7139,0.7139,0.7139,0.7139,0.7139,0.7139,0.7139,0.7139,0.7139,0.7139,0.7139,0.7139,0.7139,0.7139,0.7139,0.7139,0.7065,0.7111,0.6698,0.628,0.6322,0.6338,0.6338,0.6338,0.6338,0.6338,0.6338,0.6338,0.6338,0.6338,0.6338,0.6338,0.6338,0.6338,0.6338,0.6338,0.6307,0.629,0.629,0.6325,0.7475,1.0279,1.0455,1.0998,1.2254,1.2291,1.2901,1.4109,1.4095,1.4088,1.4088,1.4088,1.4088,1.4088,1.4088,1.4088,1.4088,1.4088,1.4088,1.4088,1.4088,1.4088,1.4088,1.4088,1.4202,1.4409,1.4816,1.5077,1.5291,-0.0,-0.0,-0.0,-0.0,-0.0,-0.0,-0.0,-0.0,-0.0,-0.0,-0.0,-0.0,-0.0,-0.0,-0.0,-0.0,-0.0,0.1767,0.5996,0.4289,0.4157,0.6685,0.7004,0.7074,0.7139,0.7139,0.7139,0.7139,0.7139,0.7139,0.7139,0.7139,0.7139,0.7139,0.7139,0.7139,0.7139,0.7139,0.7139,0.7139,0.7139,0.7139,0.7139,0.7139,0.7139,0.7139,0.7139,0.7139,0.7139,0.7139,0.7139,0.7139,0.7139,0.7139,0.7139,0.7139,0.7139,0.7139,0.7139,0.7139,0.7139,0.7139,0.7139,0.7065,0.7111,0.6698,0.628,0.6322,0.6338,0.6338,0.6338,0.6338,0.6338,0.6338,0.6338,0.6338,0.6338,0.6338,0.6338,0.6338,0.6338,0.6338,0.6338,0.6338,0.6338,0.6338,0.6294,0.6325,0.628,0.6277,0.8094,1.2125,1.2223,1.2821,1.409,1.4124,1.4088,1.4088,1.4088,1.4088,1.4088,1.4088,1.4088,1.4088,1.4088,1.4088,1.4088,1.4088,1.4088,1.4088,1.4088,1.4442,1.4963,1.4963,1.5331,1.5825,-0.0,-0.0,-0.0,-0.0,-0.0,-0.0,-0.0,-0.0,-0.0,-0.0,-0.0,-0.0,-0.0,-0.0,-0.0,-0.0,-0.0,0.0505,0.1767,0.2616,0.3558,0.4528,0.6166,0.7081,0.7074,0.7061,0.7139,0.7139,0.7139,0.7139,0.7139,0.7139,0.7139,0.7139,0.7139,0.7139,0.7139,0.7139,0.7139,0.7139,0.7139,0.7139,0.7139,0.7139,0.7139,0.7139,0.7139,0.7139,0.7139,0.7139,0.7139,0.7139,0.7139,0.7139,0.7139,0.7139,0.7139,0.7139,0.7139,0.7139,0.7115,0.7107,0.7068,0.7125,0.714,0.6706,0.628,0.6322,0.6338,0.6338,0.6338,0.6338,0.6338,0.6338,0.6338,0.6338,0.6338,0.6338,0.6338,0.6338,0.6338,0.6338,0.6338,0.6338,0.6338,0.6338,0.6325,0.6311,0.6297,0.6266,0.685,0.8021,0.8108,0.9989,1.4069,1.4085,1.4088,1.4088,1.4088,1.4088,1.4088,1.4088,1.4088,1.4088,1.4088,1.4088,1.4088,1.4088,1.4088,1.4088,1.4088,1.4322,1.4676,1.4883,1.5204,1.5558,-0.0,-0.0,-0.0,-0.0,-0.0,-0.0,-0.0,-0.0,-0.0,-0.0,-0.0,-0.0,-0.0,-0.0,-0.0,-0.0,-0.0,-0.0,-0.0,0.1138,0.1953,0.2126,0.3563,0.5188,0.7084,0.7071,0.7061,0.7139,0.7139,0.7139,0.7139,0.7139,0.7139,0.7139,0.7139,0.7139,0.7139,0.7139,0.7139,0.7139,0.7139,0.7139,0.7139,0.7139,0.7139,0.7139,0.7139,0.7139,0.7139,0.7139,0.7139,0.7139,0.7139,0.7139,0.7139,0.7139,0.7139,0.7139,0.7139,0.7139,0.7109,0.7142,0.6947,0.6843,0.7078,0.6675,0.628,0.6322,0.6338,0.6338,0.6338,0.6338,0.6338,0.6338,0.6338,0.6338,0.6338,0.6338,0.6338,0.6338,0.6338,0.6338,0.6338,0.6338,0.6338,0.6338,0.6338,0.6338,0.6338,0.6311,0.6285,0.6261,0.6519,0.8098,1.1326,1.1335,1.2292,1.405,1.3476,1.3548,1.4088,1.4088,1.4088,1.4088,1.3561,1.3379,1.3379,1.3379,1.3379,1.347,1.3906,1.4262,1.4556,1.4856,1.515,1.5438,-0.0,-0.0,-0.0,-0.0,-0.0,-0.0,-0.0,-0.0,-0.0,-0.0,-0.0,-0.0,-0.0,-0.0,-0.0,-0.0,-0.0,-0.0,-0.0,-0.0,-0.0,-0.0,-0.0,0.2055,0.6361,0.6903,0.7078,0.7143,0.7143,0.7143,0.7143,0.7143,0.7143,0.7058,0.7058,0.7058,0.7058,0.7143,0.7143,0.7143,0.7143,0.7143,0.7139,0.7143,0.7143,0.7139,0.7139,0.7139,0.7139,0.7139,0.7139,0.7139,0.7139,0.7139,0.7139,0.7139,0.7139,0.7139,0.7139,0.7139,0.7109,0.7142,0.6757,0.6474,0.699,0.6664,0.6263,0.6318,0.6338,0.6338,0.6338,0.6338,0.6338,0.6338,0.6338,0.6338,0.6338,0.6338,0.6338,0.6338,0.6338,0.6338,0.6338,0.6338,0.6338,0.6338,0.6338,0.6338,0.6338,0.6338,0.6325,0.6301,0.682,0.712,0.7112,0.7125,0.9212,1.3474,1.2248,1.2395,1.373,1.3822,1.3906,1.3906,1.2766,1.2328,1.2322,1.2151,1.2151,1.2242,1.3385,1.3913,1.4193,1.455,1.4825,1.5114,-0.0,-0.0,-0.0,-0.0,-0.0,-0.0,-0.0,-0.0,-0.0,-0.0,-0.0,-0.0,-0.0,-0.0,-0.0,-0.0,-0.0,-0.0,-0.0,-0.0,-0.0,-0.0,-0.0,0.0448,0.1519,0.5193,0.7091,0.7078,0.7078,0.7078,0.7078,0.7078,0.7081,0.7091,0.7091,0.7091,0.7091,0.7081,0.7078,0.7078,0.7078,0.7068,0.7143,0.7071,0.7068,0.7139,0.7139,0.7139,0.7139,0.7139,0.7139,0.7139,0.7139,0.7139,0.7139,0.7139,0.7139,0.7139,0.7139,0.7139,0.7109,0.7142,0.7039,0.6973,0.7053,0.6666,0.6308,0.6295,0.6338,0.6338,0.6338,0.6338,0.6338,0.6338,0.6338,0.6338,0.6338,0.6338,0.6338,0.6338,0.6338,0.6338,0.6338,0.6338,0.6338,0.6338,0.6338,0.6338,0.6338,0.6338,0.6325,0.6301,0.6859,0.7101,0.7086,0.7128,0.7599,0.8664,1.012,1.0758,1.0555,1.1775,1.2395,1.2681,1.2413,1.2328,1.2242,1.1381,1.095,1.0956,1.1305,1.1538,1.1844,1.1893,1.2152,1.2395,-0.0,-0.0,-0.0,-0.0,-0.0,-0.0,-0.0,-0.0,-0.0,-0.0,-0.0,-0.0,-0.0,-0.0,-0.0,-0.0,-0.0,-0.0,-0.0,-0.0,-0.0,-0.0,-0.0,-0.0,-0.0,0.2407,0.4842,0.7094,0.7094,0.7094,0.7091,0.4734,0.3746,0.3749,0.3749,0.3749,0.3749,0.3746,0.5003,0.7094,0.7094,0.5722,0.4003,0.6266,0.7084,0.7074,0.7071,0.7061,0.7139,0.7139,0.7139,0.7139,0.7139,0.7139,0.7139,0.7139,0.7139,0.7139,0.7139,0.7139,0.7122,0.7138,0.707,0.7024,0.6792,0.6471,0.6268,0.6291,0.6338,0.6338,0.6338,0.6338,0.6338,0.6338,0.6338,0.6338,0.6338,0.6338,0.6338,0.6338,0.6338,0.6338,0.6338,0.6338,0.6338,0.6338,0.6338,0.6338,0.6338,0.6338,0.6325,0.6301,0.6538,0.686,0.7104,0.7071,0.7112,0.7149,0.9122,1.0091,1.0053,1.0474,1.1187,1.2026,1.1052,1.0697,1.0611,1.0009,0.9749,0.9836,1.0351,1.0681,1.0885,1.1081,1.1261,1.1472,-0.0,-0.0,-0.0,-0.0,-0.0,-0.0,-0.0,-0.0,-0.0,-0.0,-0.0,-0.0,-0.0,-0.0,-0.0,-0.0,-0.0,-0.0,-0.0,-0.0,-0.0,-0.0,-0.0,-0.0,-0.0,-0.0,0.1973,0.5919,0.5919,0.5919,0.5827,0.1872,-0.0,-0.0,-0.0,-0.0,-0.0,-0.0,0.2319,0.5919,0.5919,0.3482,0.0445,0.4383,0.5919,0.6005,0.6815,0.7071,0.7139,0.7139,0.7139,0.7139,0.7139,0.7139,0.7139,0.7139,0.7139,0.7139,0.7139,0.7139,0.7139,0.7139,0.7125,0.6953,0.6522,0.6344,0.6268,0.6291,0.6338,0.6338,0.6338,0.6338,0.6338,0.6338,0.6338,0.6338,0.6338,0.6338,0.6338,0.6338,0.6338,0.6338,0.6338,0.6338,0.6338,0.6338,0.6338,0.6338,0.6338,0.6285,0.627,0.6304,0.6309,0.6541,0.7104,0.7071,0.7139,0.7139,0.8468,0.9423,1.0,0.9352,0.9803,1.0916,0.9506,0.889,0.889,0.8715,0.8627,0.8715,0.9662,1.0005,1.0024,1.0288,1.0576,1.076,-0.0,-0.0,-0.0,-0.0,-0.0,-0.0,-0.0,-0.0,-0.0,-0.0,-0.0,-0.0,-0.0,-0.0,-0.0,-0.0,-0.0,-0.0,-0.0,-0.0,-0.0,-0.0,-0.0,-0.0,-0.0,-0.0,0.0359,0.0983,0.0983,0.0983,0.0983,0.0268,-0.0,-0.0,-0.0,-0.0,-0.0,-0.0,0.0358,0.0983,0.0983,0.0535,0.0089,0.0714,0.0982,0.1514,0.5633,0.7071,0.7139,0.7139,0.7139,0.7139,0.7139,0.7139,0.7139,0.7139,0.7139,0.7139,0.7139,0.7139,0.7139,0.7139,0.7125,0.7097,0.6967,0.6661,0.6268,0.6291,0.6338,0.6338,0.6338,0.6338,0.6338,0.6338,0.6338,0.6338,0.6338,0.6338,0.6338,0.6338,0.6338,0.6338,0.6338,0.6338,0.6338,0.6338,0.6338,0.6338,0.6338,0.6294,0.6288,0.6308,0.6319,0.6557,0.7107,0.7071,0.7139,0.7139,0.7316,0.7492,0.7573,0.7439,0.7512,0.7781,0.8519,0.889,0.8803,0.7753,0.7316,0.7404,0.7489,0.7577,0.7577,0.7598,0.78,0.7942,-0.0,-0.0,-0.0,-0.0,-0.0,-0.0,-0.0,-0.0,-0.0,-0.0,-0.0,-0.0,-0.0,-0.0,-0.0,-0.0,-0.0,-0.0,-0.0,-0.0,-0.0,-0.0,-0.0,-0.0,-0.0,-0.0,-0.0,-0.0,-0.0,-0.0,-0.0,-0.0,-0.0,-0.0,-0.0,-0.0,-0.0,-0.0,-0.0,-0.0,-0.0,-0.0,-0.0,-0.0,-0.0,0.0626,0.5387,0.7098,0.7078,0.7071,0.7071,0.7068,0.7143,0.7139,0.7139,0.7139,0.7139,0.7139,0.7139,0.7139,0.7139,0.7139,0.7095,0.7114,0.7125,0.6912,0.6685,0.637,0.6275,0.6297,0.6297,0.6312,0.6338,0.6338,0.6338,0.6338,0.6338,0.6338,0.6338,0.6338,0.6338,0.6338,0.6338,0.6338,0.6295,0.6291,0.6297,0.6331,0.6334,0.6312,0.6433,0.6767,0.6726,0.6843,0.7107,0.7071,0.7139,0.7139,0.7139,0.7139,0.7139,0.7119,0.7109,0.7109,0.7654,0.7929,0.7841,0.7316,0.7139,0.7139,0.7139,0.7139,0.7139,0.7139,0.7183,0.7241]},{"header":{"parameterUnit":"m.s-1","parameterCategory":1,"la1":30.6,"la2":28.766,"lo1":-90.7593,"lo2":-88.6598,"dy":0.0162,"dx":0.0183,"nx":116,"ny":114,"refTime":"2024-06-23T12:00:00:Z","depth":0,"parameterNumber":3,"parameterNumberName":"V-component_of_WINDS"},"data":[0.0,0.0,0.0,0.0,0.0,0.0,0.0,0.0,0.0,0.0,0.0,0.0,0.0,0.0,0.0,0.0,0.0,0.0,0.0,0.0,0.0,0.0,0.0,0.0,0.0,0.0,0.0,0.0,0.0,0.0,0.0,0.0,0.0,0.0,0.0,0.0,0.0,0.0,0.0,0.0,0.0,0.0,0.0,0.0,0.0,0.0,0.0,0.0,0.0,0.0,0.0,0.0,0.0,0.0,0.0,0.0,0.0,0.0,0.0,0.0,0.0,0.0,0.0,0.0,0.0,0.0,0.0,0.0,0.0,0.0,0.0,0.0,0.0,0.0,0.0,0.0,0.0,0.0,0.0,0.0,0.0,0.0,0.0,0.0,0.0,0.0,0.0,0.0,0.0,0.0,0.0,0.0,0.0,0.0,0.0,0.0,0.0,0.0,0.0,0.0,0.0,0.0,0.0,0.0,0.0,0.0,0.0,0.0,0.0,0.0,0.0,0.0,0.0,0.0,0.0,0.0,0.0,0.0,0.0,0.0,0.0,0.0,0.0,0.0,0.0,0.0,0.0,0.0,0.0,0.0,0.0,0.0,0.0,0.0,0.0,0.0,0.0,0.0,0.0,0.0,0.0,0.0,0.0,0.0,0.0,0.0,0.0,0.0,0.0,0.0,0.0,0.0,0.0,0.0,0.0,0.0,0.0,0.0,0.0,0.0,0.0,0.0,0.0,0.0,0.0,0.0,0.0,0.0,0.0,0.0,0.0,0.0,0.0,0.0,0.0,0.0,0.0,0.0,0.0,0.0,0.0,0.0,0.0,0.0,0.0,0.0,0.0,0.0,0.0,0.0,0.0,0.0,0.0,0.0,0.0,0.0,0.0,0.0,0.0,0.0,0.0,0.0,0.0,0.0,0.0,0.0,0.0,0.0,0.0,0.0,0.0,0.0,0.0,0.0,0.0,0.0,0.0,0.0,0.0,0.0,0.0,0.0,0.0,0.0,0.0,0.0,0.0,0.0,0.0,0.0,0.0,0.0,0.0,0.0,0.0,0.0,0.0,0.0,0.0,0.0,0.0,0.0,0.0,0.0,0.0,0.0,0.0,0.0,0.0,0.0,0.0,0.0,0.0,0.0,0.0,0.0,0.0,0.0,0.0,0.0,0.0,0.0,0.0,0.0,0.0,0.0,0.0,0.0,0.0,0.0,0.0,0.0,0.0,0.0,0.0,0.0,0.0,0.0,0.0,0.0,0.0,0.0,0.0,0.0,0.0,0.0,0.0,0.0,0.0,0.0,0.0,0.0,0.0,0.0,0.0,0.0,0.0,0.0,0.0,0.0,0.0,0.0,0.0,0.0,0.0,0.0,0.0,0.0,0.0,0.0,0.0,0.0,0.0,0.0,0.0,0.0,0.0,0.0,0.0,0.0,0.0,0.0,0.0,0.0,0.0,0.0,0.0,0.0,0.0,0.0,0.0,0.0,0.0,0.0,0.0,0.0,0.0,0.0,0.0,0.0,0.0,0.0,0.0,0.0,0.0,0.0,0.0,0.0,0.0,0.0,0.0,0.0,0.0,0.0,0.0,0.0,0.0,0.0,0.0,0.0,0.0,0.0,0.0,0.0,0.0,0.0,0.0,0.0,0.0,0.0,0.0,0.0,0.0,0.0,0.0,0.0,0.0,0.0,0.0,0.0,0.0,0.0,0.0,0.0,0.0,0.0,0.0,0.0,0.0,0.0,0.0,0.0,0.0,0.0,0.0,0.0,0.0,0.0,0.0,0.0,0.0,0.0,0.0,0.0,0.0,0.0,0.0,0.0,0.0,0.0,0.0,0.0,0.0,0.0,0.0,0.0,0.0,0.0,0.0,0.0,0.0,0.0,0.0,0.0,0.0,0.0,0.0,0.0,0.0,0.0,0.0,0.0,0.0,0.0,0.0,0.0,0.0,0.0,0.0,0.0,0.0,0.0,0.0,0.0,0.0,0.0,0.0,0.0,0.0,0.0,0.0,0.0,0.0,0.0,0.0,0.0,0.0,0.0,0.0,0.0,0.0,0.0,0.0,0.0,0.0,0.0,0.0,0.0,0.0,0.0,0.0,0.0,0.0,0.0,0.0,0.0,0.0,0.0,0.0,0.0,0.0,0.0,0.0,0.0,0.0,0.0,0.0,0.0,0.0,0.0,0.0,0.0,0.0,0.0,0.0,0.0,0.0,0.0,0.0,0.0,0.0,0.0,0.0,0.0,0.0,0.0,0.0,0.0,0.0,0.0,0.0,0.0,0.0,0.0,0.0,0.0,0.0,0.0,0.0,0.0,0.0,0.0,0.0,0.0,0.0,0.0,0.0,0.0,0.0,0.0,0.0,0.0,0.0,0.0,0.0,0.0,0.0,0.0,0.0,0.0,0.0,0.0,0.0,0.0,0.0,0.0,0.0,0.0,0.0,0.0,0.0,0.0,0.0,0.0,0.0,0.0,0.0,0.0,0.0,0.0,0.0,0.0,0.0,0.0,0.0,0.0,0.0,0.0,0.0,0.0,0.0,0.0,0.0,0.0,0.0,0.0,0.0,0.0,0.0,0.0,0.0,0.0,0.0,0.0,0.0,0.0,0.0,0.0,0.0,0.0,0.0,0.0,0.0,0.0,0.0,0.0,0.0,0.0,0.0,0.0,0.0,0.0,0.0,0.0,0.0,0.0,0.0,0.0,0.0,0.0,0.0,0.0,0.0,0.0,0.0,0.0,0.0,0.0,0.0,0.0,0.0,0.0,0.0,0.0,0.0,0.0,0.0,0.0,0.0,0.0,0.0,0.0,0.0,0.0,0.0,0.0,0.0,0.0,0.0,0.0,0.0,0.0,0.0,0.0,0.0,0.0,0.0,0.0,0.0,0.0,0.0,0.0,0.0,0.0,0.0,0.0,0.0,0.0,0.0,0.0,0.0,0.0,0.0,0.0,0.0,0.0,0.0,0.0,0.0,0.0,0.0,0.0,0.0,0.0,0.0,0.0,0.0,0.0,0.0,0.0,0.0,0.0,0.0,0.0,0.0,0.0,0.0,0.0,0.0,0.0,0.0,0.0,0.0,0.0,0.0,0.0,0.0,0.0,0.0,0.0,0.0,0.0,0.0,0.0,0.0,0.0,0.0,0.0,0.0,0.0,0.0,0.0,0.0,0.0,0.0,0.0,0.0,0.0,0.0,0.0,0.0,0.0,0.0,0.0,0.0,0.0,0.0,0.0,0.0,0.0,0.0,0.0,0.0,0.0,0.0,0.0,0.0,0.0,0.0,0.0,0.0,0.0,0.0,0.0,0.0,0.0,0.0,0.0,0.0,0.0,0.0,0.0,0.0,0.0,0.0,0.0,0.0,0.0,0.0,0.0,0.0,0.0,0.0,0.0,0.0,0.0,0.0,0.0,0.0,0.0,0.0,0.0,0.0,0.0,0.0,0.0,0.0,0.0,0.0,0.0,0.0,0.0,0.0,0.0,0.0,0.0,0.0,0.0,0.0,0.0,0.0,0.0,0.0,0.0,0.0,0.0,0.0,0.0,0.0,0.0,0.0,0.0,0.0,0.0,0.0,0.0,0.0,0.0,0.0,0.0,0.0,0.0,0.0,0.0,0.0,0.0,0.0,0.0,0.0,0.0,0.0,0.0,0.0,0.0,0.0,0.0,0.0,0.0,0.0,0.0,0.0,0.0,0.0,0.0,0.0,0.0,0.0,0.0,0.0,0.0,0.0,0.0,0.0,0.0,0.0,0.0,0.0,0.0,0.0,0.0,0.0,0.0,0.0,0.0,0.0,0.0,0.0,0.0,0.0,0.0,0.0,0.0,0.0,0.0,0.0,0.0,0.0,0.0,0.0,0.0,0.0,0.0,0.0,0.0,0.0,0.0,0.0,0.0,0.0,0.0,0.0,0.0,0.0,0.0,0.0,0.0,0.0,0.0,0.0,0.0,0.0,0.0,0.0,0.0,0.0,0.0,0.0,0.0,0.0,0.0,0.0,0.0,0.0,0.0,0.0,0.0,0.0,0.0,0.0,0.0,0.0,0.0,0.0,0.0,0.0,0.0,0.0,0.0,0.0,0.0,0.0,0.0,0.0,0.0,0.0,0.0,0.0,0.0,0.0,0.0,0.0,0.0,0.0,0.0,0.0,0.0,0.0,0.0,0.0,0.0,0.0,0.0,0.0,0.0,0.0,0.0,0.0,0.0,0.0,0.0,0.0,0.0,0.0,0.0,0.0,0.0,0.0,0.0,0.0,0.0,0.0,0.0,0.0,0.0,0.0,0.0,0.0,0.0,0.0,0.0,0.0,0.0,0.0,0.0,0.0,0.0,0.0,0.0,0.0,0.0,0.0,0.0,0.0,0.0,0.0,0.0,0.0,0.0,0.0,0.0,0.0,0.0,0.0,0.0,0.0,0.0,0.0,0.0,0.0,0.0,0.0,0.0,0.0,0.0,0.0,0.0,0.0,0.0,0.0,0.0,0.0,0.0,0.0,0.0,0.0,0.0,0.0,0.0,0.0,0.0,0.0,0.0,0.0,0.0,0.0,0.0,0.0,0.0,0.0,0.0,0.0,0.0,0.0,0.0,0.0,0.0,0.0,0.0,0.0,0.0,0.0,0.0,0.0,0.0,0.0,0.0,0.0,0.0,0.0,0.0,0.0,0.0,0.0,0.0,0.0,0.0,0.0,0.0,0.0,0.0,0.0,0.0,0.0,0.0,0.0,0.0,0.0,0.0,0.0,0.0,0.0,0.0,0.0,0.0,0.0,0.0,0.0,0.0,0.0,0.0,0.0,0.0,0.0,0.0,0.0,0.0,0.0,0.0,0.0,0.0,0.0,0.0,0.0,0.0,0.0,0.0,0.0,0.0,0.0,0.0,0.0,0.0,0.0,0.0,0.0,0.0,0.0,0.0,0.0,0.0,0.0,0.0,0.0,0.0,0.0,0.0,0.0,0.0,0.0,0.0,0.0,0.0,0.0,0.0,0.0,0.0,0.0,0.0,0.0,0.0,0.0,0.0,0.0,0.0,0.0,0.0,0.0,0.0,0.0,0.0,0.0,0.0,0.0,0.0,0.0,0.0,0.0,0.0,0.0,0.0,0.0,0.0,0.0,0.0,0.0,0.0,0.0,0.0,0.0,0.0,0.0,0.0,0.0,0.0,0.0,0.0,0.0,0.0,0.0,0.0,0.0,0.0,0.0,0.0,0.0,0.0,0.0,0.0,0.0,0.0,0.0,0.0,0.0,0.0,0.0,0.0,0.0,0.0,0.0,0.0,0.0,0.0,0.0,0.0,0.0,0.0,0.0,0.0,0.0,0.0,0.0,0.0,0.0,0.0,0.0,0.0,0.0,0.0,0.0,0.0,0.0,0.0,0.0,0.0,0.0,0.0,0.0,0.0,0.0,0.0,0.0,0.0,0.0,0.0,0.0,0.0,0.0,0.0,0.0,0.0,0.0,0.0,0.0,0.0,0.0,0.0,0.0,0.0,0.0,0.0,0.0,0.0,0.0,0.0,0.0,0.0,0.0,0.0,0.0,0.0,0.0,0.0,0.0,0.0,0.0,0.0,0.0,0.0,0.0,0.0,0.0,0.0,0.0,0.0,0.0,0.0,0.0,0.0,0.0,0.0,0.0,0.0,0.0,0.0,0.0,0.0,0.0,0.0,0.0,0.0,0.0,0.0,0.0,0.0,0.0,0.0,0.0,0.0,0.0,0.0,0.0,0.0,0.0,0.0,0.0,0.0,0.0,0.0,0.0,0.0,0.0,0.0,0.0,0.0,0.0,0.0,0.0,0.0,0.0,0.0,0.0,0.0,0.0,0.0,0.0,0.0,0.0,0.0,0.0,0.0,0.0,0.0,0.0,0.0,0.0,0.0,0.0,0.0,0.0,0.0,0.0,0.0,0.0,0.0,0.0,0.0,0.0,0.0,0.0,0.0,0.0,0.0,0.0,0.0,0.0,0.0,0.0,0.0,0.0,0.0,0.0,0.0,0.0,0.0,0.0,0.0,0.0,0.0,0.0,0.0,0.0,0.0,0.0,0.0,0.0,0.0,0.0,0.0,0.0,0.0,0.0,0.0,0.0,0.0,0.0,0.0,0.0,0.0,0.0,0.0,-2.6706,0.0,0.0,0.0,0.0,0.0,0.0,0.0,0.0,0.0,0.0,0.0,0.0,0.0,0.0,0.0,0.0,0.0,0.0,0.0,0.0,0.0,0.0,0.0,0.0,-1.6234,-1.6804,-1.7574,-1.7649,-1.7813,-1.8196,0.0,0.0,0.0,0.0,0.0,-1.7696,-1.7696,-1.7497,-1.7079,-1.7504,-1.7252,-1.6399,-1.6407,-1.6394,-1.6407,0.0,0.0,0.0,0.0,0.0,0.0,0.0,0.0,0.0,0.0,0.0,0.0,0.0,0.0,0.0,0.0,0.0,0.0,0.0,0.0,0.0,0.0,0.0,0.0,0.0,0.0,0.0,0.0,0.0,0.0,0.0,0.0,0.0,0.0,0.0,0.0,0.0,0.0,0.0,0.0,0.0,0.0,0.0,0.0,0.0,0.0,0.0,0.0,0.0,0.0,0.0,0.0,0.0,0.0,0.0,0.0,0.0,0.0,0.0,0.0,0.0,0.0,0.0,0.0,0.0,0.0,0.0,0.0,0.0,0.0,0.0,-2.7794,0.0,0.0,0.0,0.0,0.0,0.0,0.0,0.0,0.0,0.0,0.0,0.0,0.0,0.0,0.0,0.0,0.0,0.0,0.0,0.0,0.0,-1.3663,-1.6212,-1.6622,-1.7087,-1.798,-1.8121,-1.8398,-1.9016,-1.8482,0.0,0.0,0.0,-1.8141,-1.8141,-1.8141,-1.8083,-1.7922,-1.794,-1.8153,-1.859,-1.8428,-1.8446,-1.8575,-1.8126,0.0,0.0,0.0,0.0,0.0,0.0,0.0,0.0,0.0,0.0,0.0,0.0,0.0,0.0,0.0,0.0,0.0,0.0,0.0,0.0,0.0,0.0,0.0,0.0,0.0,0.0,0.0,0.0,0.0,0.0,0.0,0.0,0.0,0.0,0.0,0.0,0.0,0.0,0.0,0.0,0.0,0.0,0.0,0.0,0.0,0.0,0.0,0.0,0.0,0.0,0.0,0.0,0.0,0.0,0.0,0.0,0.0,0.0,0.0,0.0,0.0,0.0,0.0,-3.1002,-3.1083,-3.0968,-3.0956,-3.1565,-3.2492,-3.1056,-3.0083,-2.9486,-2.8832,0.0,0.0,0.0,0.0,0.0,0.0,0.0,0.0,0.0,0.0,0.0,0.0,0.0,0.0,0.0,0.0,0.0,0.0,0.0,-1.3676,-1.6226,-1.7116,-1.8179,-1.9796,-1.995,-1.9988,-2.0092,-2.0007,0.0,0.0,-2.0007,-1.995,-1.995,-1.995,-1.9596,-1.8835,-1.8832,-1.9954,-2.2115,-2.1357,-2.1389,-2.2022,-1.9815,-1.9261,-1.9908,0.0,0.0,0.0,0.0,0.0,0.0,0.0,0.0,0.0,0.0,0.0,0.0,0.0,0.0,0.0,0.0,0.0,0.0,0.0,0.0,0.0,0.0,0.0,0.0,0.0,0.0,0.0,0.0,0.0,0.0,0.0,0.0,0.0,0.0,0.0,0.0,0.0,0.0,0.0,0.0,0.0,-2.3783,-2.4007,0.0,0.0,0.0,0.0,0.0,0.0,0.0,0.0,0.0,0.0,0.0,0.0,0.0,-3.0767,-3.1479,-3.3537,-3.4175,-3.3407,-3.5023,-3.5454,-3.4773,-3.4769,-3.5235,-3.6034,-3.5795,0.0,-3.1352,-3.1237,0.0,0.0,0.0,0.0,0.0,0.0,0.0,0.0,0.0,0.0,0.0,0.0,0.0,0.0,0.0,0.0,0.0,0.0,0.0,0.0,0.0,-1.7219,-1.8198,-1.9454,-2.0007,-2.0312,-2.0312,-2.0312,-2.0312,-2.0312,-2.0312,-2.0312,-2.0312,-2.0743,-2.102,-2.1143,-2.1144,-2.1702,-2.2794,-2.2408,-2.2705,-2.3475,-2.2357,-2.1801,-2.166,-2.0765,0.0,0.0,0.0,0.0,0.0,0.0,0.0,0.0,0.0,0.0,0.0,0.0,0.0,0.0,0.0,0.0,0.0,0.0,0.0,0.0,0.0,0.0,0.0,0.0,0.0,0.0,0.0,0.0,0.0,0.0,0.0,0.0,0.0,0.0,0.0,0.0,0.0,0.0,0.0,-2.3896,-2.4874,-2.4884,-2.5588,-2.5762,0.0,0.0,0.0,0.0,0.0,0.0,0.0,0.0,0.0,-3.1788,-3.3166,-3.4074,-3.4438,-3.5993,-3.6507,-3.5993,-3.6824,-3.7009,-3.6687,-3.6678,-3.6949,-3.742,-3.7435,-3.6589,-3.518,-3.4218,-3.2814,-3.1237,0.0,0.0,0.0,0.0,-3.0823,-3.0631,0.0,0.0,0.0,0.0,0.0,0.0,0.0,0.0,0.0,0.0,0.0,0.0,-1.6303,-1.7221,-1.8056,-1.892,-1.9796,-2.0312,0.0,-2.0246,-2.0246,-2.0312,-2.0227,-2.0208,-2.0312,-2.1092,-2.2032,-2.3124,-2.3122,-2.3237,-2.3439,-2.3439,-2.3794,-2.4418,-2.4399,-2.4052,-2.3381,-2.2536,-2.1814,0.0,0.0,0.0,0.0,0.0,0.0,0.0,0.0,0.0,0.0,0.0,0.0,0.0,0.0,0.0,0.0,0.0,0.0,0.0,0.0,0.0,0.0,0.0,0.0,0.0,0.0,0.0,0.0,0.0,0.0,0.0,0.0,0.0,0.0,0.0,0.0,0.0,0.0,-2.5257,-2.5965,-2.5801,-2.6804,-2.7137,0.0,0.0,0.0,0.0,0.0,0.0,-3.1586,-3.2491,-3.3395,-3.4413,-3.614,-3.7253,-3.7648,-3.8524,-3.8866,-3.8674,-3.8674,-3.8558,-3.8331,-3.8331,-3.8447,-3.8635,-3.8646,-3.8642,-3.8507,-3.6834,-3.5238,-3.3872,-3.3872,-3.2987,-3.1878,-3.3333,-3.3487,-3.3199,0.0,0.0,0.0,0.0,0.0,0.0,0.0,0.0,0.0,0.0,0.0,-1.4557,-1.6303,-1.7227,-1.8056,-1.8928,-1.9796,-2.0312,0.0,0.0,-2.0092,-2.0292,-1.9988,-1.9969,-2.0292,-2.11,-2.2336,-2.4024,-2.4034,-2.4438,-2.5168,-2.5168,-2.5207,-2.5245,-2.5245,-2.5207,-2.5111,-2.4322,-2.3947,-2.3764,0.0,0.0,0.0,0.0,0.0,0.0,0.0,0.0,0.0,0.0,0.0,0.0,0.0,0.0,0.0,0.0,0.0,0.0,0.0,0.0,0.0,0.0,0.0,0.0,0.0,0.0,0.0,0.0,0.0,0.0,0.0,0.0,0.0,0.0,0.0,0.0,0.0,0.0,0.0,-2.6895,-2.8711,0.0,0.0,0.0,0.0,-3.1621,-3.2397,-3.3687,-3.5613,-3.5765,-3.6512,-3.8079,-3.8553,-3.9522,-4.1024,-4.1424,-4.1613,-4.1578,-4.1578,-4.1174,-4.0354,-4.0354,-4.0354,-4.0373,-4.0373,-4.0373,-4.0239,-3.8565,-3.7334,-3.6507,-3.6507,-3.5988,-3.5353,-3.6199,-3.6488,-3.6584,0.0,0.0,0.0,-1.2791,-1.3132,-1.3469,-1.3466,-1.3474,-1.3779,-1.4634,-1.5214,-1.5804,0.0,-1.7727,-1.8654,-1.8966,-1.9673,-2.0111,-2.0111,0.0,-2.0126,-2.0722,-2.0757,-2.1402,-2.2724,-2.3035,-2.3736,-2.487,-2.487,-2.5024,-2.5303,-2.5303,-2.5303,-2.5303,-2.5303,-2.5303,-2.5245,-2.4438,-2.4101,-2.3996,-2.2803,-2.235,0.0,0.0,0.0,0.0,0.0,0.0,0.0,0.0,0.0,0.0,0.0,0.0,0.0,0.0,0.0,0.0,0.0,0.0,0.0,0.0,0.0,0.0,0.0,0.0,0.0,0.0,0.0,0.0,0.0,0.0,0.0,0.0,0.0,0.0,0.0,0.0,0.0,-2.9701,-3.096,0.0,-3.1354,-3.2254,-3.3529,-3.5183,-3.5567,-3.6729,-3.9032,-3.9352,-3.9967,-4.1062,-4.1424,-4.1882,-4.2456,-4.2585,-4.2629,-4.2629,-4.2637,-4.2476,-4.2171,-4.2165,-4.2168,-4.2162,-4.2181,-4.2181,-4.2124,-4.1527,-4.0123,-3.8411,-3.8931,-3.8315,-3.7219,-3.8065,-3.8373,-3.8334,-1.2084,-1.2695,0.0,-1.3104,-1.3546,-1.4008,-1.4294,-1.4346,-1.4653,-1.5528,-1.6143,-1.6605,-1.6888,-1.8114,-1.8955,-1.9004,-1.9615,-2.0027,-2.0105,0.0,-2.008,-2.0745,-2.1092,-2.212,-2.3962,-2.3995,-2.4438,-2.5303,-2.5303,-2.5303,0.0,-2.5303,-2.5303,-2.5303,-2.5303,-2.5303,-2.5264,-2.4726,-2.4495,-2.4457,-2.388,-2.3476,-2.3188,0.0,0.0,0.0,0.0,0.0,0.0,0.0,0.0,0.0,0.0,0.0,0.0,0.0,0.0,0.0,0.0,0.0,0.0,0.0,0.0,0.0,0.0,0.0,0.0,0.0,0.0,0.0,0.0,0.0,0.0,0.0,0.0,0.0,0.0,0.0,-3.0759,-3.2182,-3.3237,-3.3855,-3.3872,-3.5027,-3.6363,-3.7734,-3.8365,-3.9448,-4.1168,-4.1473,-4.1912,-4.2544,-4.2775,-4.3099,-4.35,-4.3511,-4.3515,-4.3515,-4.3506,-4.3349,-4.3099,-4.3109,-4.3092,-4.3104,-4.3088,-4.3088,-4.3104,-4.3104,-4.2104,-4.0642,-4.1162,-4.07,-3.9762,-4.0236,-4.0375,-4.0281,-1.1233,-1.1445,-1.1992,-1.3615,-1.3928,-1.4227,-1.5061,-1.5214,-1.5547,-1.638,-1.6553,-1.6875,-1.7654,-1.8398,-1.8893,-1.9038,-1.9627,-2.0097,-2.0315,-2.0,-1.9981,-2.0344,-2.0963,-2.2096,-2.3793,-2.3832,-2.4312,-2.5284,0.0,0.0,0.0,0.0,0.0,0.0,0.0,-2.5284,-2.5284,-2.5284,-2.5284,-2.5284,-2.5284,-2.4832,-2.414,0.0,0.0,0.0,0.0,0.0,0.0,0.0,0.0,0.0,0.0,0.0,0.0,0.0,0.0,0.0,0.0,0.0,0.0,0.0,0.0,0.0,0.0,0.0,0.0,0.0,0.0,0.0,0.0,0.0,0.0,0.0,0.0,0.0,-3.0272,-3.1671,-3.3076,-3.4164,-3.5535,-3.617,-3.5605,-3.7527,-3.8911,-3.9218,-4.0741,-4.1778,-4.2065,-4.2085,-4.2256,-4.2582,-4.2598,-4.3152,-4.432,-4.4339,-4.4339,-4.4339,-4.4339,-4.3918,-4.3171,-4.3171,-4.3169,-4.3184,-4.3184,-4.3165,-4.3181,-4.3181,-4.3181,-4.3162,-4.3124,-4.3104,-4.3052,-4.2661,-4.2522,-4.2481,-1.1348,-1.2373,-1.3364,-1.3827,-1.4409,-1.4912,-1.5157,-1.5746,-1.622,-1.6482,-1.7561,-1.8398,-1.8624,-1.9396,-1.9898,-1.9944,-1.9973,-2.0301,-2.0986,0.0,-2.0384,-2.1703,-2.294,-2.3895,-2.4508,-2.4536,-2.4649,0.0,0.0,0.0,0.0,0.0,0.0,0.0,0.0,0.0,-2.4947,-2.5043,-2.5091,-2.5091,-2.5091,-2.5043,-2.4947,0.0,0.0,0.0,0.0,0.0,0.0,0.0,0.0,0.0,0.0,0.0,0.0,0.0,0.0,0.0,0.0,0.0,0.0,0.0,0.0,0.0,0.0,0.0,0.0,0.0,0.0,0.0,0.0,0.0,0.0,0.0,0.0,-3.1931,-3.1931,-3.3322,-3.4914,-3.6406,-3.7442,-3.8279,-3.8903,-4.0077,-4.1193,-4.2069,-4.2571,-4.3252,-4.4218,-4.4255,-4.4386,-4.4733,-4.4731,-4.4914,-4.524,-4.524,-4.524,-4.524,-4.524,-4.5143,-4.4914,-4.4914,-4.4895,-4.4913,-4.4913,-4.4913,-4.4913,-4.4913,-4.4913,-4.4778,-4.3566,-4.3104,-4.3104,-4.2979,-4.2944,-4.2925,-1.231,-1.3238,-1.4013,-1.439,-1.4855,-1.5189,-1.5189,-1.5944,-1.6624,-1.6958,-1.8167,-1.912,-1.9396,-1.9873,-2.0164,-2.0174,-2.0394,-2.0646,-2.0866,0.0,-2.1081,-2.2653,0.0,-2.4226,-2.4781,-2.4729,-2.4723,0.0,0.0,0.0,0.0,0.0,0.0,0.0,0.0,0.0,-2.4818,-2.4945,-2.4967,-2.4908,-2.4832,-2.5011,-2.527,-2.5086,-2.4774,-2.4457,-2.4312,-2.4004,-2.3543,-2.2988,0.0,0.0,0.0,0.0,0.0,0.0,0.0,0.0,0.0,0.0,0.0,0.0,0.0,0.0,0.0,0.0,0.0,0.0,0.0,0.0,0.0,0.0,0.0,0.0,-3.2857,-3.4392,-3.5062,-3.5981,-3.7028,-3.8365,-3.9228,-3.9958,-4.0579,-4.1411,-4.2151,-4.2805,-4.3188,-4.3752,-4.4591,-4.4629,-4.486,-4.5358,-4.5394,-4.5451,-4.5586,-4.5586,-4.5586,-4.5586,-4.5586,-4.5586,-4.5586,-4.5586,-4.5586,-4.5586,-4.5586,-4.5586,-4.5586,-4.5586,-4.5513,0.0,0.0,0.0,0.0,0.0,-4.3626,-4.3456,-1.3613,-1.3983,-1.4297,-1.508,-1.5189,-1.5189,-1.5189,-1.6021,-1.6901,-1.7604,-1.854,-1.9377,-1.9969,-2.0024,-2.0035,-2.0027,-2.0828,-2.1105,0.0,0.0,0.0,-2.3234,-2.3287,-2.3747,-2.4707,-2.4559,-2.454,0.0,0.0,0.0,0.0,0.0,0.0,0.0,0.0,0.0,-2.5023,-2.5152,-2.5145,-2.5018,-2.4873,-2.4969,-2.5222,-2.501,-2.4955,-2.4941,-2.4643,-2.4662,-2.4662,-2.3681,0.0,0.0,0.0,0.0,0.0,0.0,0.0,0.0,0.0,0.0,0.0,0.0,0.0,0.0,0.0,0.0,0.0,0.0,0.0,0.0,0.0,0.0,0.0,0.0,-3.4936,-3.6991,-3.8634,-3.8927,-3.9239,-3.9958,-4.0738,-4.1227,-4.1225,-4.1969,-4.2459,-4.2459,-4.3096,-4.366,-4.3989,0.0,0.0,0.0,0.0,-4.5201,-4.547,-4.549,-4.5509,-4.5528,-4.5528,-4.5547,-4.5586,-4.5586,-4.5586,-4.5586,-4.5586,-4.5586,-4.5531,-4.5531,-4.5342,-4.5074,-4.5362,-4.5495,-4.5419,-4.4806,-4.4373,-4.4016,-1.3835,-1.4464,-1.5003,-1.517,-1.5189,-1.5189,-1.5189,-1.6501,-1.751,-1.7681,-1.9073,-2.0092,-2.0227,-2.0233,-2.0232,-2.0241,-2.0982,-2.1633,0.0,0.0,-2.3674,-2.3251,-2.371,-2.4116,-2.4319,-2.4282,-2.4282,0.0,0.0,0.0,0.0,0.0,0.0,0.0,0.0,0.0,-2.6274,-2.6442,-2.6526,-2.6501,-2.6631,-2.5955,-2.4874,-2.4666,-2.4708,-2.4833,-2.476,-2.476,-2.4741,-2.4372,-2.4247,-2.4208,-2.3876,0.0,0.0,0.0,0.0,0.0,0.0,0.0,0.0,0.0,0.0,0.0,0.0,0.0,0.0,0.0,0.0,0.0,0.0,0.0,0.0,-3.5198,-3.6535,-3.7814,-3.9442,-4.024,-4.0677,-4.0839,-4.158,-4.209,-4.2095,-4.2805,-4.3277,-4.3277,-4.3406,-4.366,-4.3989,-4.399,-4.4205,-4.4684,-4.4703,-4.4741,-4.4799,-4.4799,-4.4934,-4.5201,0.0,0.0,-4.5586,-4.5586,-4.5586,-4.5586,-4.5586,-4.5438,-4.5201,-4.5201,-4.4988,-4.4682,-4.4757,-4.4781,-4.4781,-4.4631,-4.4553,-4.4474,-1.4464,-1.4907,-1.5189,-1.5189,-1.5567,-1.5848,-1.5848,-1.7271,-1.8345,-1.8356,-1.9492,-2.0246,-2.0073,-2.0202,-2.0226,-2.0049,-2.0856,0.0,0.0,-2.378,-2.3803,-2.3692,-2.4024,-2.419,-2.419,-2.419,-2.419,0.0,0.0,0.0,0.0,0.0,0.0,0.0,0.0,0.0,-2.6622,-2.6799,-2.6835,-2.6762,-2.6854,-2.6412,-2.567,-2.525,-2.4914,-2.4652,-2.454,-2.4504,-2.4485,-2.4374,-2.4356,-2.4337,-2.4226,-2.419,-2.419,0.0,0.0,0.0,0.0,0.0,0.0,0.0,0.0,0.0,0.0,0.0,0.0,0.0,0.0,-3.1286,-3.2896,0.0,-3.513,-3.718,-3.8187,-3.9265,-4.0886,-4.1442,-4.1697,-4.1697,-4.2422,-4.2896,-4.2896,-4.3243,-4.3497,-4.3497,-4.3497,-4.366,-4.3989,-4.3997,-4.4176,-4.458,-4.458,-4.458,-4.458,-4.4775,-4.4926,-4.5104,-4.5283,-4.5432,-4.5586,-4.5586,-4.5514,-4.5339,-4.5341,-4.5161,-4.483,-4.4638,-4.4455,-4.4261,-4.4125,-4.4299,-4.458,-4.4373,-4.429,-4.428,-1.5055,-1.5189,-1.5253,-1.5432,-1.6027,-1.6553,-1.6708,-1.8011,-1.8995,-1.9012,-1.975,-2.0188,-1.9873,-2.0075,-2.0277,-2.0342,0.0,0.0,0.0,-2.3913,-2.3656,-2.4171,-2.419,-2.419,-2.419,-2.419,-2.4282,-2.443,0.0,0.0,0.0,0.0,0.0,0.0,-2.7154,-2.7232,-2.7082,-2.725,-2.7214,-2.7063,-2.7063,-2.6968,-2.6791,-2.6303,-2.5611,-2.4892,-2.4707,-2.4559,-2.443,-2.443,-2.4337,-2.419,-2.419,-2.419,-2.4226,-2.4393,-2.443,0.0,0.0,0.0,0.0,0.0,0.0,0.0,0.0,0.0,-3.0207,-3.1983,-3.2876,-3.3771,-3.522,-3.6197,-3.7241,-3.8707,-3.9601,-4.0651,-4.2118,-4.2316,-4.2351,-4.2514,-4.3114,-4.3497,-4.3497,-4.3497,-4.3497,-4.3497,-4.3497,-4.3624,-4.3897,-4.3915,-4.4044,-4.4373,-4.4428,-4.4499,-4.4499,-4.4847,-4.4998,-4.5022,-4.5268,-4.5413,-4.5413,-4.5419,-4.5262,-4.5,-4.4919,-4.4781,-4.4553,-4.4106,-4.3924,-4.3955,-4.3612,-4.3868,-4.4337,-4.4016,-4.3893,-4.3849,-1.517,-1.5189,-1.5451,-1.622,-1.6438,-1.6747,-1.7459,-1.8383,-1.8993,-1.8997,-1.975,-2.0227,-1.9988,-2.0005,-2.064,-2.2145,-2.2153,0.0,0.0,-2.4356,-2.4135,-2.419,-2.419,-2.419,-2.419,-2.419,-2.454,-2.5262,-2.5262,-2.5689,-2.6487,-2.72,-2.7579,-2.7697,-2.8429,-2.875,-2.8732,-2.875,-2.875,-2.8732,-2.8732,-2.8301,-2.7643,-2.7597,-2.7077,-2.6357,-2.6338,-2.5874,-2.5262,-2.5262,-2.48,-2.419,-2.419,-2.419,-2.4337,-2.5058,0.0,-2.5577,-2.7008,-2.798,-2.8787,-2.9602,-2.9332,-2.9798,0.0,0.0,-3.2858,-3.5241,-3.5806,-3.6158,-3.7083,-3.7894,-3.8726,-3.9608,-4.0441,-4.1277,-4.2148,-4.2294,-4.2569,-4.3296,-4.3442,-4.3497,-4.3497,-4.3497,-4.3497,-4.3497,-4.3497,-4.3516,-4.3534,-4.3569,-4.3587,-4.3624,-4.3915,-4.4062,-4.4062,-4.4446,-4.4662,-4.4652,-4.4688,-4.4722,-4.4705,-4.4699,-4.4687,-4.463,-4.4298,-4.429,-4.4553,-4.3836,-4.3726,-4.3955,-4.3612,-4.3548,-4.3631,-4.3563,-4.3548,-4.3548,-1.5189,-1.5189,-1.563,-1.6957,-1.7202,-1.7481,-1.8329,-1.9196,-1.975,-1.975,-2.0073,-2.0227,-2.0007,-2.0452,-2.129,-2.2596,-2.2871,-2.3468,-2.4709,-2.4411,-2.419,-2.419,-2.419,-2.419,-2.419,-2.467,-2.5058,-2.5392,-2.5876,-2.6512,-2.7313,-2.7643,-2.8036,-2.8507,-2.8865,-2.8994,-2.8994,-2.8994,-2.8994,-2.8994,-2.8994,-2.8787,-2.8507,-2.8507,-2.8282,-2.7856,-2.694,-2.6085,0.0,0.0,-2.4873,-2.419,-2.419,-2.419,-2.4356,-2.517,-2.5733,0.0,-2.8636,-2.9439,0.0,0.0,-3.1696,-3.2353,-3.45,-3.4871,-3.5173,-3.6699,-3.7741,-3.8493,-3.8817,-3.9553,-4.0375,0.0,-4.1599,-4.2061,-4.2878,-4.3023,-4.3114,-4.3461,-4.3497,-4.3497,-4.3497,-4.3497,-4.3497,-4.3497,-4.3497,-4.3497,-4.3497,-4.3497,-4.3497,-4.3497,-4.3642,-4.3714,-4.3699,-4.4064,-4.4268,-4.4263,-4.4497,-4.4589,-4.4607,-4.4603,-4.4472,-4.4242,-4.3875,-4.3804,-4.3931,-4.3631,-4.3563,-4.3712,-4.3529,-4.3497,-4.3497,-4.3497,-4.3497,-4.3497,-1.5189,-1.5189,-1.5669,-1.7111,-1.7368,-1.7826,-1.9158,-1.9892,-2.0312,-2.0312,-2.0312,-2.0312,-2.035,-2.0918,-2.1782,-2.2975,-2.339,-2.3929,-2.4764,-2.4485,-2.4245,-2.419,-2.419,0.0,-2.4522,-2.5095,-2.563,-2.6068,-2.6644,-2.7323,-2.8132,-2.8132,-2.8429,-2.8994,-2.8994,-2.8994,-2.8994,-2.8994,-2.8994,-2.9012,-2.9242,-2.9182,-2.9012,-2.926,-2.9072,-2.8526,-2.7364,-2.6408,0.0,0.0,-2.4873,-2.419,-2.419,-2.419,-2.4448,-2.5707,-2.6958,-2.8252,-2.9792,0.0,0.0,-3.2627,-3.3726,-3.4706,-3.5505,-3.6197,-3.6882,-3.7668,-3.8762,-3.9632,-3.9863,-4.057,-4.136,-4.2166,-4.2496,-4.2823,-4.3424,-4.3497,-4.3497,-4.3497,-4.3497,-4.3497,-4.3497,-4.3497,-4.3497,-4.3497,-4.3497,-4.3497,-4.3497,-4.3497,-4.3497,-4.3497,-4.3605,-4.3732,-4.398,-4.4325,-4.4535,-4.4668,-4.4972,-4.5056,-4.4965,-4.4724,-4.4361,-4.3849,-4.3597,-4.3529,-4.3612,-4.3548,-4.3529,-4.3612,-4.3548,-4.3497,-4.3497,-4.3497,-4.3497,-4.3497,-1.5189,-1.5189,-1.549,-1.638,-1.6546,-1.7382,-1.9873,-2.0285,-2.0312,-2.0312,-2.0312,-2.055,-2.1182,-2.129,-2.1977,-2.3631,-2.3774,-2.4075,-2.4764,-2.4615,-2.4393,-2.4208,-2.419,-2.4559,-2.5355,-2.5392,-2.6158,-2.772,-2.7757,-2.8187,-2.8957,-2.8957,-2.8975,-2.8994,-2.8994,-2.8994,-2.8994,-2.8994,-2.8994,-2.9072,-2.9863,-2.9711,-2.909,-2.9881,-2.9182,-2.783,-2.7775,0.0,0.0,0.0,-2.4873,-2.419,-2.419,-2.419,0.0,-2.7027,-2.9402,0.0,0.0,0.0,-3.3697,-3.3752,-3.5005,-3.6419,-3.7253,-3.7436,-3.7686,-3.8493,-3.8707,-3.8962,-3.9758,-4.0557,-4.1353,-4.2168,-4.2933,-4.3461,-4.3497,-4.3497,-4.3497,-4.3497,-4.3497,-4.3497,0.0,-4.3497,-4.3497,-4.3497,-4.3497,-4.3497,-4.3497,-4.3497,-4.3497,-4.3497,-4.3807,-4.437,-4.5152,-4.5537,-4.5922,-4.6326,-4.6361,-4.619,-4.5842,-4.5059,-4.4268,-4.3513,-4.3479,-4.366,-4.3955,-4.3612,-4.3693,-4.3955,-4.3631,-4.3497,-4.3497,-4.3497,-4.3497,-4.3497,-1.5944,-1.6066,-1.6521,-1.7901,-1.8153,-1.8648,-2.0089,-1.9815,-1.9654,-2.0227,-2.0762,0.0,0.0,0.0,0.0,0.0,-2.437,-2.4654,-2.4778,-2.4607,-2.4411,-2.4208,-2.419,-2.4577,-2.5373,-2.5928,-2.6717,-2.7793,-2.8338,-2.8732,-2.8994,-2.8994,-2.8994,-2.8994,-2.8994,-2.9297,-2.9747,-2.9242,-2.9918,-3.1275,-2.9936,-2.9886,-3.0513,-2.9709,-2.8732,-2.7725,0.0,0.0,0.0,0.0,-2.4873,0.0,-2.419,0.0,0.0,-2.8539,0.0,-3.1697,0.0,0.0,-3.4853,-3.5988,-3.6687,-3.7296,-3.8114,-3.8297,-3.8383,-3.8652,-3.9105,-3.9577,-3.985,-4.0979,-4.1988,-4.226,-4.3004,-4.3497,-4.3497,-4.3497,-4.3497,-4.3497,-4.3497,0.0,0.0,0.0,0.0,-4.3497,-4.3497,-4.3497,-4.3497,-4.3497,-4.3497,-4.3497,-4.4118,-4.4591,-4.4884,-4.5535,-4.5938,-4.6067,-4.6063,-4.5734,-4.5096,-4.4802,-4.4562,-4.4268,-4.3718,-4.3876,-4.4402,-4.3768,-4.3582,-4.3646,-4.3548,-4.3497,-4.3497,-4.3497,-4.3497,-4.3497,-1.6322,-1.6509,-1.6939,-1.8307,-1.8545,0.0,0.0,0.0,0.0,0.0,0.0,0.0,0.0,0.0,0.0,0.0,0.0,-2.5024,-2.4812,-2.4676,-2.4485,-2.4208,-2.419,-2.4577,-2.5373,-2.5907,-2.6708,-2.7793,-2.832,-2.8714,-2.8994,-2.8994,-2.8994,-2.8994,-2.8994,-2.9297,-2.9747,-2.9229,-2.991,-3.1196,-2.994,-2.9893,-3.0458,-2.9709,-2.875,0.0,0.0,0.0,0.0,0.0,0.0,0.0,0.0,0.0,0.0,-2.9582,-3.1194,-3.2644,-3.4511,-3.5229,-3.5797,-3.7174,-3.7723,-3.8047,-3.8566,-3.8707,-3.8707,-3.8707,-3.9105,-3.9553,-3.9841,-4.074,-4.1614,-4.2187,-4.275,-4.3169,-4.3461,-4.3497,-4.3497,-4.3497,-4.3497,-4.3497,0.0,0.0,0.0,-4.3497,-4.3771,-4.3934,-4.3934,-4.4207,-4.4354,-4.4354,-4.4865,-4.5272,-4.5534,-4.6065,-4.6464,-4.6759,-4.6759,-4.6321,-4.5553,-4.5535,-4.5406,-4.5112,-4.458,-4.4654,-4.5094,-4.4562,-4.4176,-4.392,-4.392,-4.3754,-4.3497,-4.3497,-4.3497,-4.3497,-1.638,-1.6591,-1.6888,0.0,0.0,0.0,0.0,0.0,0.0,0.0,0.0,0.0,0.0,0.0,0.0,0.0,0.0,0.0,-2.4832,0.0,0.0,-2.4208,-2.419,-2.4577,-2.5373,-2.539,-2.6172,-2.7743,-2.7739,-2.815,-2.8938,-2.8938,-2.8957,-2.8994,-2.8994,-2.9012,-2.9067,-2.9029,-2.9043,-2.919,-2.9876,-2.9701,-2.9145,-2.9863,0.0,0.0,0.0,0.0,0.0,0.0,0.0,0.0,0.0,0.0,0.0,0.0,0.0,-3.4055,-3.4909,-3.5763,-3.6601,-3.7381,-3.8151,-3.8707,-3.8707,-3.8707,-3.8689,-3.8652,-3.8652,-3.8854,0.0,0.0,-4.0417,-4.1928,-4.226,-4.2624,-4.3387,-4.3497,-4.3497,0.0,0.0,0.0,0.0,0.0,0.0,-4.3624,0.0,-4.472,-4.4775,-4.5489,-4.5893,-4.5893,-4.593,-4.634,-4.709,-4.7126,-4.7512,-4.8306,-4.8306,-4.7884,-4.7113,-4.7113,-4.6691,-4.5957,-4.592,-4.592,-4.5957,-4.592,-4.5461,-4.4764,-4.4764,-4.4287,-4.3608,-4.3571,-4.3552,-4.3552,0.0,0.0,0.0,0.0,0.0,0.0,0.0,0.0,0.0,0.0,0.0,0.0,0.0,0.0,0.0,0.0,0.0,0.0,0.0,0.0,0.0,0.0,0.0,0.0,-2.5373,-2.5386,0.0,0.0,0.0,-2.7305,-2.8114,-2.8114,-2.8429,0.0,-2.8994,-2.9333,-2.9839,-2.9234,-2.969,-3.0706,0.0,-2.9539,-2.9863,0.0,0.0,0.0,0.0,0.0,0.0,0.0,0.0,0.0,0.0,0.0,-3.0567,0.0,0.0,-3.5011,-3.6468,-3.7454,-3.8151,-3.8334,-3.8548,-3.8707,-3.8707,-3.8707,-3.853,-3.7937,-3.7796,-3.7686,-3.7277,0.0,0.0,-4.0441,-4.2011,0.0,-4.3461,-4.3497,0.0,0.0,0.0,-4.3734,-4.4336,-4.4373,0.0,0.0,-4.492,-4.4981,-4.5571,-4.5791,-4.59,-4.59,-4.647,-4.6891,-4.709,-4.7697,-4.8084,-4.8306,-4.8306,-4.7884,-4.7113,-4.7113,-4.7003,-4.6764,-4.6159,-4.625,-4.6764,-4.6159,-4.5773,-4.559,-4.559,-4.5461,-4.5223,-4.4617,-4.4397,-4.4305,0.0,0.0,0.0,0.0,0.0,0.0,0.0,0.0,0.0,0.0,0.0,0.0,0.0,0.0,0.0,0.0,0.0,0.0,0.0,0.0,0.0,0.0,0.0,0.0,0.0,-2.5225,0.0,0.0,0.0,0.0,0.0,-2.7269,-2.7492,-2.7944,-2.7944,-2.8187,-2.8581,0.0,0.0,0.0,0.0,0.0,0.0,0.0,0.0,0.0,0.0,0.0,0.0,0.0,0.0,-3.0179,-3.0992,-3.1753,-3.2649,-3.44,0.0,-3.6401,-3.7686,-3.8383,-3.8707,-3.8707,-3.8707,-3.8634,-3.8242,-3.8169,-3.7955,-3.715,-3.6978,0.0,-3.6366,0.0,0.0,0.0,0.0,0.0,-4.3406,-4.3497,-4.3497,0.0,-4.3789,0.0,-4.4646,-4.502,-4.5571,0.0,-4.5993,-4.5975,-4.6391,-4.6759,-4.6962,-4.6962,-4.7384,-4.7642,-4.7642,-4.8066,-4.8306,-4.8306,-4.8306,-4.8067,-4.7645,-4.7645,-4.7645,-4.7609,0.0,-4.7223,-4.7609,-4.715,-4.6746,-4.6434,-4.6434,-4.6214,-4.5847,-4.5388,-4.5241,-4.5112,0.0,0.0,0.0,0.0,0.0,0.0,0.0,0.0,0.0,0.0,0.0,0.0,0.0,0.0,0.0,0.0,0.0,0.0,0.0,0.0,0.0,0.0,0.0,0.0,0.0,0.0,0.0,0.0,0.0,0.0,0.0,0.0,0.0,0.0,0.0,0.0,0.0,0.0,0.0,0.0,0.0,0.0,0.0,0.0,0.0,0.0,0.0,0.0,0.0,0.0,-3.1029,-3.1992,-3.2703,-3.3973,-3.5349,-3.6205,-3.6948,-3.7686,-3.8475,-3.8707,-3.8707,-3.8707,-3.8634,-3.8383,-3.7668,-3.7339,-3.6991,-3.6279,0.0,-3.5964,-3.5964,-3.6729,-3.7858,-3.9462,0.0,-4.1661,-4.3277,-4.3497,-4.3497,-4.3497,-4.4226,-4.4739,-4.4851,-4.5571,-4.6391,-4.7181,-4.7274,-4.7274,-4.7274,-4.7937,-4.8306,-4.8306,-4.8306,-4.8306,-4.8306,-4.8306,-4.8306,-4.8306,-4.8306,-4.8306,-4.8306,-4.8306,-4.8306,-4.8306,-4.8306,-4.8306,-4.8306,-4.8306,-4.7902,-4.7278,-4.7278,-4.6838,-4.6214,-4.6104,-4.6067,-4.5938,0.0,0.0,0.0,0.0,0.0,0.0,0.0,-2.0312,-2.0646,-2.1594,-2.2352,-2.318,0.0,0.0,0.0,0.0,0.0,0.0,0.0,0.0,0.0,0.0,0.0,0.0,0.0,0.0,0.0,0.0,0.0,0.0,0.0,0.0,0.0,0.0,0.0,0.0,0.0,0.0,0.0,0.0,0.0,0.0,0.0,0.0,0.0,0.0,0.0,0.0,0.0,0.0,-3.261,-3.4403,-3.455,-3.5266,-3.6225,-3.7058,-3.7375,-3.7686,-3.8475,-3.8707,-3.8707,-3.8707,-3.8206,-3.7668,-3.7528,-3.6421,0.0,0.0,0.0,-3.4228,-3.4228,-3.5486,0.0,-3.8658,0.0,0.0,0.0,0.0,-4.3497,0.0,0.0,0.0,0.0,0.0,0.0,0.0,0.0,-4.8084,-4.8084,-4.8233,-4.8306,-4.8306,-4.8306,-4.8306,-4.8306,-4.8306,-4.8306,-4.8306,-4.8306,-4.8306,-4.8306,-4.8306,-4.8306,-4.8306,-4.8306,0.0,-4.8306,-4.8306,-4.8233,-4.8104,-4.8104,-4.8012,-4.781,-4.715,-4.6911,-4.6801,0.0,0.0,0.0,0.0,0.0,0.0,0.0,-2.0312,-2.0743,-2.2015,-2.2541,-2.313,-2.4005,-2.4726,-2.5187,0.0,0.0,0.0,0.0,0.0,0.0,0.0,0.0,0.0,0.0,0.0,0.0,0.0,0.0,0.0,0.0,0.0,0.0,0.0,0.0,0.0,0.0,0.0,0.0,0.0,0.0,0.0,0.0,0.0,0.0,0.0,0.0,0.0,0.0,0.0,-3.2394,-3.4449,-3.4872,-3.5872,-3.6991,-3.74,-3.7796,-3.8206,-3.8585,-3.8707,-3.8707,-3.8707,-3.8114,-3.7266,-3.6384,0.0,0.0,0.0,0.0,-3.3176,-3.3176,0.0,0.0,0.0,0.0,0.0,0.0,0.0,0.0,0.0,0.0,0.0,0.0,0.0,0.0,0.0,0.0,-4.8306,-4.8306,-4.8306,-4.8306,-4.8306,-4.8306,-4.8306,-4.8306,-4.8306,-4.8306,-4.8306,-4.8306,-4.8306,-4.8306,-4.8306,-4.8306,-4.8306,-4.8306,0.0,-4.8306,-4.8306,-4.8306,-4.8306,-4.8306,-4.8306,-4.8251,-4.7884,-4.7737,-4.7627,0.0,0.0,0.0,0.0,0.0,0.0,0.0,-2.0188,-2.0762,-2.2092,-2.2411,-2.284,-2.3727,-2.4706,-2.5303,0.0,0.0,0.0,0.0,0.0,0.0,0.0,0.0,0.0,0.0,0.0,0.0,0.0,0.0,0.0,0.0,0.0,0.0,0.0,0.0,0.0,0.0,0.0,0.0,0.0,0.0,0.0,0.0,0.0,0.0,0.0,0.0,0.0,0.0,0.0,-3.1458,-3.3156,-3.3993,-3.5629,-3.7289,-3.7449,-3.7955,-3.8475,-3.8652,-3.8707,-3.8707,-3.8707,-3.7973,-3.6845,-3.5358,-3.4134,0.0,0.0,-3.1771,-3.218,-3.2537,0.0,0.0,0.0,0.0,0.0,0.0,0.0,0.0,0.0,0.0,0.0,0.0,0.0,0.0,0.0,0.0,0.0,-4.8306,-4.8306,-4.8306,-4.8306,-4.8306,-4.8306,-4.8306,-4.8306,-4.8306,-4.8306,-4.8306,-4.8306,-4.8306,-4.8306,-4.8306,-4.8306,-4.8306,0.0,0.0,-4.8306,-4.8306,-4.8306,-4.8306,-4.8306,-4.8306,-4.8306,-4.8306,-4.8214,0.0,0.0,0.0,0.0,0.0,0.0,0.0,-1.9796,-2.0369,-2.0504,-2.1175,-2.1962,-2.2825,-2.4332,-2.5303,0.0,0.0,0.0,0.0,0.0,0.0,0.0,0.0,0.0,0.0,0.0,0.0,0.0,0.0,0.0,0.0,0.0,0.0,0.0,0.0,0.0,0.0,0.0,0.0,0.0,0.0,0.0,0.0,0.0,0.0,0.0,0.0,0.0,0.0,0.0,0.0,-3.0686,-3.149,-3.3863,-3.6556,-3.7289,0.0,0.0,-3.8493,-3.8707,-3.8707,-3.8707,-3.7546,-3.617,-3.5285,0.0,0.0,-3.1446,-3.0872,-3.0864,-3.2344,-3.272,0.0,0.0,0.0,0.0,0.0,0.0,0.0,0.0,0.0,0.0,0.0,0.0,0.0,0.0,0.0,0.0,-4.8306,-4.8306,-4.8306,-4.8306,-4.8306,-4.8306,-4.8306,-4.8306,-4.8306,-4.8306,-4.8306,-4.8306,-4.8306,-4.8306,-4.8306,-4.8306,-4.8306,0.0,0.0,-4.8306,-4.8306,-4.8306,-4.8306,-4.8306,-4.8306,-4.8306,-4.8306,-4.8306,0.0,0.0,0.0,0.0,0.0,0.0,-1.8928,-1.9731,-2.0465,-2.0962,-2.1304,-2.2034,-2.3435,-2.4178,-2.4774,-2.5264,0.0,0.0,0.0,0.0,0.0,0.0,0.0,0.0,0.0,0.0,0.0,0.0,0.0,0.0,0.0,0.0,0.0,0.0,0.0,0.0,0.0,0.0,0.0,0.0,0.0,0.0,0.0,0.0,0.0,0.0,0.0,0.0,0.0,0.0,0.0,0.0,-3.0577,-3.1906,0.0,0.0,-3.6344,-3.7564,-3.79,-3.8315,-3.8707,-3.8707,-3.7491,-3.5939,-3.4614,0.0,-3.1145,-3.0162,-3.0088,-3.0549,-3.1667,-3.2276,-3.3523,-3.6305,-3.7059,-3.8094,0.0,0.0,0.0,0.0,0.0,0.0,0.0,0.0,0.0,0.0,0.0,0.0,-4.8306,-4.8306,-4.8306,-4.8306,-4.8306,-4.8306,-4.8306,-4.8306,-4.8306,-4.8306,-4.8306,-4.8306,-4.8306,-4.8306,-4.8306,-4.8306,-4.8306,0.0,0.0,-4.8306,-4.8306,-4.8306,-4.8306,-4.8306,-4.8306,-4.8306,-4.8306,-4.8233,0.0,0.0,0.0,0.0,0.0,-1.7909,-1.8517,-1.9577,-2.0504,-2.1059,-2.1355,-2.2072,-2.3551,-2.3946,-2.4408,-2.5226,-2.5303,0.0,0.0,0.0,0.0,0.0,0.0,0.0,0.0,0.0,0.0,0.0,0.0,0.0,0.0,0.0,0.0,0.0,0.0,0.0,0.0,0.0,0.0,0.0,0.0,0.0,0.0,0.0,0.0,0.0,0.0,0.0,0.0,0.0,0.0,0.0,0.0,0.0,0.0,0.0,-3.5036,-3.657,-3.729,-3.7918,-3.8365,-3.8365,-3.7296,-3.5811,0.0,0.0,-3.0956,-2.9333,-2.9655,-3.0443,-3.1256,-3.2059,-3.3331,-3.5541,-3.6329,-3.7416,-3.9586,0.0,0.0,0.0,0.0,0.0,0.0,0.0,0.0,0.0,0.0,0.0,-4.8269,-4.8086,-4.8067,-4.8306,-4.8306,-4.8306,-4.8306,-4.8306,-4.8306,-4.8306,-4.8306,-4.8306,-4.8306,-4.8306,-4.8306,-4.8306,-4.8306,0.0,0.0,-4.8306,-4.8306,-4.8306,-4.8306,-4.8306,-4.8306,-4.8306,-4.8159,-4.7865,0.0,0.0,0.0,0.0,0.0,0.0,-1.77,-1.9196,-2.0312,-2.0312,-2.1001,-2.1833,-2.2724,-2.3581,-2.4408,-2.5226,-2.5303,0.0,0.0,0.0,0.0,0.0,0.0,0.0,0.0,0.0,0.0,-2.5303,0.0,0.0,0.0,0.0,0.0,0.0,0.0,0.0,0.0,0.0,0.0,0.0,0.0,0.0,-2.8994,0.0,0.0,0.0,0.0,0.0,0.0,0.0,0.0,0.0,0.0,0.0,0.0,0.0,-3.3825,-3.4367,-3.6826,-3.7509,-3.7509,-3.7509,-3.6918,-3.5654,0.0,-3.1992,-3.0956,-2.9333,-2.9655,-3.0443,-3.1256,-3.2059,-3.3121,-3.4741,-3.6402,-3.8047,-3.9663,0.0,0.0,0.0,0.0,0.0,0.0,0.0,0.0,0.0,0.0,0.0,-4.8214,-4.7572,-4.7498,-4.8269,-4.8306,-4.8306,-4.8306,-4.8306,-4.8306,-4.8306,-4.8306,-4.8306,-4.8306,-4.8306,-4.8306,-4.8306,0.0,0.0,0.0,-4.8306,-4.8306,-4.8306,-4.8306,-4.8306,-4.8306,-4.8306,-4.781,-4.7131,0.0,0.0,0.0,0.0,0.0,0.0,0.0,-1.9177,-2.0312,-2.0312,-2.0523,-2.0996,-2.1808,-2.2681,-2.3554,-2.4408,-2.4985,0.0,0.0,0.0,0.0,0.0,0.0,0.0,0.0,0.0,-2.5303,-2.5303,-2.5245,-2.513,0.0,0.0,0.0,0.0,0.0,0.0,0.0,0.0,0.0,0.0,0.0,-2.7232,-2.8187,0.0,0.0,0.0,0.0,0.0,0.0,0.0,0.0,0.0,0.0,0.0,0.0,-2.996,-3.2082,0.0,-3.4101,-3.4943,-3.5641,-3.5108,-3.4375,-3.3432,-3.2083,-3.1157,-3.0425,-2.9936,-3.001,-3.0617,-3.1971,-3.2444,-3.3505,-3.625,-3.7156,0.0,0.0,0.0,0.0,0.0,0.0,0.0,0.0,0.0,0.0,0.0,0.0,0.0,-4.6636,-4.6416,-4.6654,-4.7462,-4.7498,-4.7223,-4.6673,-4.7223,-4.7498,-4.7498,-4.8049,-4.8306,-4.8306,-4.8306,-4.8306,0.0,0.0,0.0,0.0,-4.8306,-4.8306,-4.8306,-4.8306,-4.8306,-4.8233,-4.77,-4.7333,-4.6966,0.0,0.0,0.0,0.0,0.0,0.0,0.0,-1.872,-1.9815,-1.9815,-2.0369,-2.0938,-2.1444,-2.2565,-2.3505,-2.4063,-2.4851,0.0,0.0,0.0,0.0,0.0,0.0,0.0,0.0,-2.5303,-2.5303,-2.5303,-2.5303,-2.5245,-2.5111,-2.5111,-2.5072,0.0,0.0,0.0,0.0,0.0,0.0,0.0,-2.6293,-2.6745,-2.746,0.0,0.0,0.0,0.0,0.0,0.0,0.0,0.0,0.0,0.0,0.0,0.0,0.0,-2.9738,-3.1675,0.0,-3.3323,-3.3963,-3.3469,-3.2957,-3.2309,-3.1192,-3.0558,-3.0107,-2.9803,-2.9989,-3.0606,-3.1918,-3.2401,-3.3368,-3.5715,-3.6628,0.0,0.0,0.0,0.0,0.0,0.0,0.0,0.0,0.0,0.0,0.0,0.0,0.0,-4.5865,-4.5608,-4.5681,-4.6195,-4.6801,-4.6728,-4.5902,-4.6709,-4.6966,-4.6673,-4.748,-4.7865,-4.7865,-4.8159,-4.8306,0.0,0.0,0.0,0.0,-4.8306,-4.8306,-4.8306,-4.8306,-4.8122,-4.781,-4.7297,-4.6746,-4.6067,0.0,0.0,0.0,0.0,0.0,0.0,0.0,-1.7872,-1.8928,-1.8997,-2.0369,-2.1355,-2.1421,-2.2906,-2.3931,-2.4005,-2.4755,0.0,0.0,0.0,0.0,0.0,0.0,0.0,0.0,-2.5303,-2.5303,-2.5303,-2.5303,-2.5303,-2.5303,-2.5303,-2.5303,-2.5284,0.0,0.0,0.0,0.0,0.0,0.0,-2.581,-2.6168,0.0,0.0,0.0,0.0,0.0,0.0,0.0,0.0,0.0,0.0,0.0,0.0,0.0,0.0,0.0,0.0,0.0,-3.2262,-3.2335,-3.2279,-3.2317,-3.1955,-3.0443,-3.0107,0.0,-2.9242,-2.9678,-3.0495,-3.1382,-3.2137,-3.293,-3.3981,-3.5411,0.0,0.0,0.0,0.0,0.0,0.0,0.0,0.0,0.0,0.0,0.0,0.0,0.0,-4.5645,-4.5021,-4.4617,-4.4617,-4.614,-4.6581,-4.581,-4.6562,-4.6599,-4.5902,-4.6728,-4.7113,-4.715,-4.7939,-4.8306,0.0,0.0,0.0,0.0,-4.8251,-4.8251,-4.8306,-4.8251,-4.7774,-4.7075,-4.7058,-4.6049,-4.4709,0.0,0.0,0.0,0.0,0.0,0.0,0.0,0.0,0.0,0.0,-1.9339,-1.9835,-2.0504,-2.1498,-2.2387,0.0,0.0,0.0,0.0,0.0,0.0,0.0,0.0,0.0,0.0,-2.5303,-2.5303,-2.5303,-2.5303,-2.5303,-2.5303,-2.5303,-2.5303,-2.5303,-2.5245,-2.5149,0.0,0.0,0.0,0.0,-2.5958,-2.6032,0.0,0.0,0.0,0.0,-2.5003,-2.4892,0.0,0.0,0.0,0.0,0.0,0.0,0.0,0.0,-2.5815,-2.6254,-2.7645,0.0,-2.9711,-2.909,-2.9389,-2.9747,0.0,-2.9278,0.0,0.0,0.0,-3.0814,-3.2858,-3.2893,-3.3697,-3.7015,-3.735,0.0,0.0,0.0,0.0,0.0,0.0,0.0,0.0,0.0,0.0,0.0,0.0,-4.3663,-4.403,-4.3864,-4.3773,-4.3773,-4.4745,-4.5186,-4.4984,-4.5186,-4.548,-4.5902,-4.6728,-4.7113,-4.715,-4.7939,-4.8306,0.0,0.0,0.0,-4.8251,-4.7645,-4.7755,-4.8251,-4.7627,-4.7297,-4.704,-4.6416,-4.5553,-4.4617,0.0,0.0,0.0,0.0,0.0,0.0,0.0,0.0,0.0,0.0,-1.8751,-1.9339,-2.0208,-2.102,0.0,0.0,0.0,0.0,0.0,0.0,0.0,0.0,0.0,-2.5303,-2.5303,-2.5303,-2.5303,-2.5303,-2.5303,-2.5303,-2.5303,-2.5303,-2.5303,-2.5303,-2.5303,-2.5245,0.0,0.0,0.0,-2.5659,-2.5582,0.0,0.0,0.0,0.0,0.0,-2.4652,-2.4574,0.0,-2.4598,-2.4504,-2.4337,0.0,0.0,0.0,0.0,-2.4855,-2.4948,-2.5373,-2.7204,-2.8904,-2.8462,-2.8957,-2.954,-2.954,0.0,0.0,0.0,0.0,0.0,-3.2335,0.0,0.0,0.0,0.0,0.0,0.0,0.0,0.0,0.0,0.0,0.0,0.0,0.0,0.0,0.0,0.0,-4.3497,-4.3497,-4.3497,-4.3497,-4.3497,-4.392,-4.4158,-4.4158,-4.4525,-4.4727,-4.48,-4.5626,-4.6012,-4.6049,-4.6838,-4.7205,0.0,0.0,0.0,-4.7168,-4.6746,-4.6819,-4.7168,-4.6728,-4.6342,-4.5957,-4.5516,-4.4837,-4.4085,0.0,0.0,0.0,0.0,0.0,0.0,0.0,0.0,0.0,0.0,0.0,0.0,0.0,0.0,0.0,0.0,0.0,0.0,0.0,0.0,0.0,0.0,0.0,-2.5303,-2.5303,-2.5303,-2.5303,-2.5303,-2.5303,-2.5303,-2.5303,-2.5303,-2.5303,-2.5303,-2.5303,-2.5303,0.0,0.0,-2.5303,-2.5284,-2.5111,0.0,0.0,0.0,0.0,0.0,0.0,0.0,0.0,-2.4829,-2.4707,-2.4542,-2.4505,0.0,0.0,0.0,0.0,0.0,-2.4504,-2.6729,-2.8947,-2.8682,-2.9428,-3.0165,0.0,0.0,0.0,0.0,0.0,0.0,0.0,0.0,0.0,0.0,0.0,0.0,0.0,0.0,0.0,0.0,0.0,0.0,0.0,0.0,0.0,0.0,0.0,-4.3497,-4.3497,-4.3497,-4.3497,-4.3497,-4.3497,-4.3497,-4.3497,-4.4176,-4.425,-4.3681,-4.4378,-4.4709,-4.4745,-4.5535,-4.5902,-4.5902,0.0,0.0,-4.5883,-4.5773,-4.5792,-4.5883,-4.5755,-4.5296,-4.4709,-4.4709,-4.4195,-4.3497,0.0,0.0,0.0,0.0,0.0,0.0,0.0,0.0,0.0,0.0,0.0,0.0,0.0,0.0,0.0,0.0,0.0,0.0,0.0,0.0,0.0,0.0,-2.5303,-2.5303,-2.5303,-2.5303,-2.5303,-2.5303,-2.5303,-2.5303,-2.5303,-2.5303,-2.5303,-2.5303,-2.5303,-2.5303,-2.5303,-2.5303,-2.5303,-2.5303,-2.5264,0.0,0.0,0.0,0.0,0.0,0.0,0.0,0.0,-2.493,-2.4859,-2.4726,-2.4558,0.0,0.0,0.0,0.0,0.0,-2.5874,-2.7586,-2.868,-2.7299,-2.8594,-3.0002,0.0,0.0,0.0,0.0,0.0,0.0,0.0,0.0,0.0,0.0,0.0,0.0,0.0,0.0,0.0,0.0,0.0,0.0,0.0,0.0,0.0,0.0,0.0,-4.3497,-4.3497,-4.3497,-4.3497,-4.3497,-4.3497,-4.3497,-4.3497,-4.3608,-4.3956,-4.4525,-4.4654,-4.4709,-4.4745,-4.5535,-4.5902,-4.5902,0.0,-4.5902,-4.5847,-4.5168,-4.5296,-4.5828,-4.5149,-4.4819,-4.4709,-4.4709,-4.4195,-4.3497,0.0,0.0,0.0,0.0,0.0,0.0,0.0,0.0,0.0,0.0,0.0,0.0,0.0,0.0,0.0,0.0,0.0,0.0,0.0,0.0,0.0,-2.5303,-2.5303,-2.5303,-2.5303,-2.5303,-2.5303,-2.5303,-2.5303,-2.5303,-2.5303,-2.5303,-2.5303,-2.5303,-2.5303,-2.5303,-2.5303,-2.5303,-2.5303,-2.5303,0.0,0.0,0.0,0.0,0.0,0.0,0.0,0.0,0.0,0.0,-2.5053,-2.4887,-2.472,0.0,0.0,0.0,0.0,0.0,-2.5095,-2.6796,-2.816,-2.745,-2.9373,-3.1397,0.0,0.0,0.0,0.0,0.0,0.0,0.0,0.0,0.0,0.0,0.0,0.0,0.0,0.0,0.0,0.0,0.0,0.0,0.0,0.0,0.0,0.0,0.0,0.0,-4.3497,-4.3497,-4.3497,-4.3497,-4.3497,-4.3497,-4.3497,-4.3497,-4.3681,-4.4048,-4.4048,-4.4048,-4.4066,-4.4433,-4.4599,-4.4599,0.0,-4.4599,-4.4562,-4.4195,-4.4268,-4.4562,-4.4195,-4.4048,-4.4048,-4.4048,-4.3809,-4.3497,0.0,0.0,0.0,0.0,0.0,0.0,0.0,0.0,0.0,0.0,0.0,0.0,0.0,0.0,0.0,0.0,0.0,0.0,0.0,0.0,-2.5111,-2.5284,-2.5303,-2.5303,-2.5303,-2.5303,-2.5303,-2.5303,-2.5303,-2.5303,-2.5303,-2.5303,-2.5303,-2.5303,-2.5303,-2.5303,-2.5303,-2.5303,-2.5303,-2.5303,0.0,0.0,0.0,0.0,0.0,0.0,0.0,0.0,0.0,0.0,0.0,0.0,0.0,0.0,0.0,-2.4337,-2.4282,-2.4337,-2.467,-2.6241,-2.7895,-2.8252,0.0,0.0,0.0,0.0,0.0,0.0,0.0,0.0,0.0,0.0,0.0,0.0,0.0,0.0,0.0,0.0,0.0,0.0,0.0,0.0,0.0,0.0,0.0,0.0,0.0,0.0,-4.3497,-4.3497,-4.3497,-4.3497,-4.3497,-4.3497,-4.3497,-4.3497,-4.3497,-4.3497,-4.3497,-4.3497,-4.3497,-4.3497,-4.3497,-4.3497,-4.3497,-4.3497,-4.3497,-4.3497,-4.3497,-4.3497,-4.3497,-4.3497,-4.3497,-4.3497,-4.3497,-4.3497,0.0,0.0,0.0,0.0,0.0,0.0,0.0,0.0,0.0,0.0,0.0,0.0,0.0,0.0,0.0,0.0,0.0,0.0,0.0,0.0,-2.4514,-2.5264,-2.5303,-2.5303,-2.5303,-2.5303,-2.5303,-2.5303,-2.5303,-2.5303,-2.5303,-2.5303,-2.5303,-2.5303,-2.5303,-2.5303,-2.5303,-2.5303,-2.5303,-2.5303,-2.5303,0.0,0.0,0.0,0.0,0.0,0.0,0.0,0.0,0.0,0.0,0.0,0.0,0.0,-2.4892,-2.4559,-2.4485,-2.4744,-2.6078,-2.7096,-2.8158,-2.9646,0.0,0.0,0.0,0.0,0.0,0.0,0.0,0.0,0.0,0.0,0.0,0.0,0.0,0.0,0.0,0.0,0.0,0.0,0.0,0.0,0.0,0.0,0.0,0.0,0.0,0.0,-4.3497,-4.3497,-4.3497,-4.3497,-4.3497,-4.3497,-4.3497,-4.3497,-4.3497,-4.3497,-4.3497,-4.3497,-4.3497,-4.3497,-4.3497,-4.3497,-4.3497,-4.3497,-4.3497,-4.3497,-4.3497,-4.3497,-4.3497,-4.3497,-4.3497,-4.3497,-4.3497,-4.3497,0.0,0.0,0.0,0.0,0.0,0.0,0.0,0.0,0.0,0.0,0.0,0.0,0.0,0.0,0.0,0.0,0.0,0.0,0.0,0.0,-2.4457,-2.5264,-2.5303,-2.5303,-2.5303,-2.5303,-2.5303,-2.5303,-2.5303,-2.5303,-2.5303,-2.5303,-2.5303,-2.5303,-2.5303,-2.5303,-2.5303,-2.5303,-2.5303,-2.5303,-2.5303,-2.5303,0.0,0.0,0.0,0.0,0.0,0.0,0.0,0.0,-2.5303,-2.5264,-2.5072,-2.5,-2.4929,-2.4598,-2.45,-2.4577,-2.5003,-2.6425,0.0,0.0,0.0,0.0,0.0,0.0,0.0,0.0,0.0,0.0,0.0,0.0,0.0,0.0,0.0,0.0,0.0,0.0,0.0,0.0,0.0,0.0,0.0,0.0,0.0,0.0,0.0,0.0,-4.3497,-4.3497,-4.3497,-4.3497,-4.3497,-4.3497,-4.3497,-4.3497,-4.3497,-4.3497,-4.3497,-4.3497,-4.3497,-4.3497,-4.3497,-4.3497,-4.3497,-4.3497,-4.3497,-4.3497,-4.3497,-4.3497,-4.3497,-4.3497,-4.3497,-4.3497,-4.3497,-4.3497,0.0,0.0,0.0,0.0,0.0,0.0,0.0,0.0,0.0,0.0,0.0,0.0,0.0,0.0,0.0,0.0,0.0,0.0,-2.2331,-2.2967,-2.3794,-2.487,-2.4928,-2.5043,-2.5284,-2.5303,-2.5303,-2.5303,-2.5303,-2.5303,-2.5303,-2.5303,-2.5303,-2.5303,-2.5303,-2.5303,-2.5303,-2.5303,-2.5303,-2.5303,-2.5303,-2.5303,0.0,0.0,0.0,0.0,0.0,0.0,0.0,0.0,-2.5303,-2.5284,-2.5149,-2.5091,-2.5024,-2.4687,-2.478,-2.4928,-2.4647,-2.6167,-2.7857,0.0,0.0,0.0,0.0,0.0,0.0,0.0,0.0,0.0,0.0,0.0,0.0,0.0,0.0,0.0,0.0,0.0,0.0,0.0,0.0,0.0,0.0,0.0,0.0,0.0,0.0,0.0,0.0,-4.3497,-4.3497,-4.3497,-4.3497,-4.3497,-4.3497,-4.3497,-4.3497,-4.3497,-4.3497,-4.3497,-4.3497,-4.3497,-4.3497,-4.3497,-4.3497,-4.3497,-4.3497,-4.3497,-4.3497,-4.3497,-4.3497,-4.3497,-4.3497,-4.3497,-4.3497,-4.3497,0.0,0.0,0.0,0.0,0.0,0.0,0.0,0.0,0.0,0.0,0.0,0.0,0.0,0.0,0.0,0.0,0.0,0.0,-2.144,-2.1559,-2.2345,-2.4015,-2.4091,-2.4476,-2.5264,-2.5303,-2.5303,-2.5303,-2.5303,-2.5303,-2.5303,-2.5303,-2.5303,-2.5303,-2.5303,-2.5303,-2.5303,-2.5303,-2.5303,-2.5303,-2.5303,-2.5303,-2.5303,0.0,0.0,0.0,0.0,0.0,0.0,0.0,-2.5303,-2.5303,-2.5303,-2.5303,-2.5245,-2.4899,-2.5376,-2.5909,-2.5502,-2.6576,0.0,0.0,0.0,0.0,0.0,0.0,0.0,0.0,0.0,0.0,0.0,0.0,0.0,0.0,0.0,0.0,0.0,0.0,0.0,0.0,0.0,0.0,0.0,0.0,0.0,0.0,0.0,0.0,0.0,-4.3497,-4.3497,-4.3497,-4.3497,-4.3497,-4.3497,-4.3497,-4.3497,-4.3497,-4.3497,-4.3497,-4.3497,-4.3497,-4.3497,-4.3497,-4.3497,-4.3497,-4.3497,-4.3497,-4.3497,-4.3497,-4.3497,-4.3497,-4.3497,-4.3497,-4.3497,-4.3497,0.0,0.0,0.0,0.0,0.0,0.0,0.0,0.0,0.0,0.0,0.0,0.0,0.0,0.0,0.0,0.0,0.0,0.0,-2.1507,-2.1589,-2.2109,-2.3212,-2.3803,-2.4216,-2.4457,-2.5005,-2.5303,-2.5303,-2.5303,-2.5303,-2.5303,-2.5303,-2.5303,-2.5303,-2.5303,-2.5303,-2.5303,-2.5303,-2.5303,-2.5303,-2.5303,-2.5303,-2.5303,0.0,0.0,0.0,0.0,0.0,0.0,0.0,0.0,0.0,-2.5303,-2.5726,-2.603,-2.5069,-2.5372,-2.5799,-2.4814,-2.6127,0.0,0.0,0.0,0.0,0.0,0.0,0.0,0.0,0.0,0.0,0.0,0.0,0.0,0.0,0.0,0.0,0.0,0.0,0.0,0.0,0.0,0.0,0.0,0.0,0.0,0.0,0.0,0.0,0.0,-4.3497,-4.3497,-4.3497,-4.3497,-4.3497,-4.3497,-4.3497,-4.3497,-4.3497,-4.3497,-4.3497,-4.3497,-4.3497,-4.3497,-4.3497,-4.3497,-4.3497,-4.3497,-4.3497,-4.3497,-4.3497,-4.3497,-4.3497,-4.3497,-4.3497,-4.3497,-4.3497,0.0,0.0,0.0,0.0,0.0,0.0,0.0,0.0,0.0,0.0,0.0,0.0,0.0,0.0,0.0,0.0,0.0,0.0,0.0,-2.1106,-2.1498,-2.235,-2.3146,-2.3899,-2.4553,-2.5053,-2.5303,-2.5303,-2.5303,-2.5149,-2.4832,-2.5149,-2.513,-2.4832,-2.4832,-2.4832,0.0,-2.4457,-2.4514,-2.4832,-2.4832,-2.5005,-2.5303,0.0,0.0,0.0,0.0,0.0,0.0,0.0,0.0,0.0,-2.5303,-2.5659,-2.5992,-2.5435,-2.5857,-2.6342,-2.5792,0.0,0.0,0.0,0.0,0.0,0.0,0.0,0.0,0.0,0.0,0.0,0.0,0.0,0.0,0.0,0.0,0.0,0.0,0.0,0.0,0.0,0.0,0.0,0.0,0.0,0.0,0.0,0.0,0.0,0.0,-4.3497,-4.3497,-4.3497,-4.3497,-4.3497,-4.3497,-4.3497,-4.3497,-4.3497,-4.3497,-4.3497,-4.3497,-4.3497,-4.3497,-4.3497,-4.3497,-4.3497,-4.3497,-4.3497,-4.3497,-4.3497,-4.3497,-4.3497,-4.3497,-4.3497,-4.3497,-4.3497,0.0,0.0,-1.5762,-1.6562,0.0,0.0,0.0,0.0,0.0,0.0,0.0,-1.878,0.0,0.0,0.0,-2.0177,0.0,0.0,0.0,0.0,-2.0762,-2.1575,-2.2458,-2.3675,-2.5264,-2.5226,-2.5226,-2.5303,-2.5226,-2.4832,-2.4111,-2.4764,-2.4678,-2.3976,-2.3976,-2.3986,0.0,0.0,-2.3256,-2.3967,-2.3976,-2.4408,-2.5072,-2.5072,0.0,0.0,0.0,0.0,0.0,0.0,0.0,0.0,-2.5303,-2.5341,-2.5485,-2.5807,-2.6516,-2.7255,0.0,0.0,0.0,0.0,0.0,0.0,0.0,0.0,0.0,0.0,0.0,0.0,0.0,0.0,0.0,0.0,0.0,0.0,0.0,0.0,0.0,0.0,0.0,0.0,0.0,0.0,0.0,0.0,0.0,0.0,0.0,-4.3497,-4.3497,-4.3497,-4.3497,-4.3497,-4.3497,-4.3497,-4.3497,-4.3497,-4.3497,-4.3497,-4.3497,-4.3497,-4.3497,-4.3497,-4.3497,-4.3497,-4.3497,-4.3497,-4.3497,-4.3497,-4.3497,-4.3497,-4.3497,-4.3497,-4.3497,-4.3497,0.0,0.0,-1.6484,-1.668,0.0,0.0,0.0,0.0,-1.585,-1.5834,-1.6548,-1.7042,-1.7042,-1.8381,0.0,-1.928,-1.9965,0.0,0.0,0.0,-2.0866,-2.1718,-2.312,-2.4341,-2.5284,-2.4668,-2.4668,-2.5303,-2.4668,-2.4274,-2.4101,-2.3589,-2.3244,-2.3084,-2.3084,-2.3073,-2.3067,-2.2874,-2.2912,-2.3086,-2.3074,-2.3179,-2.3343,-2.3343,-2.3755,0.0,0.0,0.0,0.0,0.0,0.0,0.0,-2.5303,-2.5765,-2.6158,-2.5323,-2.6073,-2.7009,0.0,0.0,0.0,0.0,0.0,0.0,0.0,0.0,0.0,0.0,0.0,0.0,0.0,0.0,0.0,0.0,0.0,0.0,0.0,0.0,0.0,0.0,0.0,0.0,0.0,0.0,0.0,0.0,0.0,0.0,-4.3497,-4.3497,-4.3497,-4.3497,-4.3497,-4.3497,-4.3497,-4.3497,-4.3497,0.0,-4.3497,-4.3497,-4.3497,-4.3497,-4.3497,-4.3497,-4.3497,-4.3497,-4.3497,-4.3497,-4.3497,-4.3497,-4.3497,-4.3497,-4.3497,-4.3497,-4.3497,-4.3497,0.0,0.0,0.0,0.0,0.0,0.0,0.0,0.0,-1.6405,-1.6011,-1.6669,-1.7176,-1.7176,-1.7928,0.0,0.0,-1.9258,-1.9799,0.0,0.0,-2.102,-2.2331,-2.314,-2.3957,-2.4755,-2.4332,-2.4101,-2.409,-2.3266,-2.3285,0.0,0.0,-2.3785,-2.3398,-2.2985,-2.2791,-2.2744,-2.193,-2.1833,-2.2188,-2.2169,-2.2429,-2.2803,-2.2803,-2.3081,-2.3533,-2.3957,0.0,0.0,0.0,0.0,0.0,0.0,0.0,-2.5918,-2.5573,-2.6067,-2.6716,0.0,0.0,0.0,0.0,0.0,0.0,0.0,0.0,0.0,0.0,0.0,0.0,0.0,0.0,0.0,0.0,0.0,0.0,0.0,0.0,0.0,0.0,0.0,0.0,0.0,0.0,0.0,0.0,0.0,-4.3497,-4.3497,-4.3497,-4.3497,-4.3497,-4.3497,-4.3497,-4.3497,-4.3497,-4.3497,-4.3497,-4.3497,-4.3497,-4.3497,-4.3497,-4.3497,-4.3497,-4.3497,-4.3497,-4.3497,-4.3497,-4.3497,-4.3497,-4.3497,-4.3497,-4.3497,-4.3497,-4.3497,-4.3497,0.0,0.0,0.0,0.0,0.0,0.0,0.0,0.0,0.0,-1.6812,-1.7398,-1.7838,-1.7683,-1.7758,-1.7761,0.0,0.0,0.0,-1.9192,0.0,0.0,-2.2733,-2.2883,-2.3262,-2.3957,-2.3775,-2.337,-2.2802,-2.1922,0.0,0.0,0.0,0.0,-2.3843,-2.2959,-2.2574,-2.2485,-2.0943,-2.0685,-2.1297,-2.1297,-2.1718,-2.2369,-2.2369,-2.2447,-2.2678,-2.338,-2.3832,-2.4197,-2.487,0.0,0.0,0.0,0.0,-2.539,-2.5861,-2.6087,-2.6431,0.0,0.0,0.0,0.0,0.0,0.0,0.0,0.0,0.0,0.0,0.0,0.0,0.0,0.0,0.0,0.0,0.0,0.0,0.0,0.0,0.0,0.0,0.0,0.0,0.0,0.0,0.0,0.0,0.0,-4.3497,-4.3497,-4.3497,-4.3497,-4.3497,-4.3497,-4.3497,-4.3497,-4.3497,-4.3497,-4.3497,-4.3497,-4.3497,-4.3497,-4.3497,-4.3497,-4.3497,-4.3497,-4.3497,-4.3497,-4.3497,-4.3497,-4.3497,-4.3497,-4.3497,-4.3497,-4.3497,-4.3497,-4.3497,0.0,0.0,0.0,0.0,0.0,0.0,0.0,0.0,0.0,0.0,-1.7392,-1.7612,-1.6869,-1.7433,-1.7579,-1.6835,-1.7565,-1.8375,0.0,0.0,0.0,-2.1948,-2.2689,-2.3073,-2.3074,-2.2323,-2.2219,-2.2802,0.0,0.0,0.0,0.0,0.0,-2.2949,0.0,0.0,0.0,0.0,-2.0369,-2.0465,-2.0465,-2.0523,-2.0627,-2.0627,-2.1059,-2.1691,-2.1817,-2.2822,-2.4111,-2.4216,-2.4706,0.0,0.0,0.0,0.0,-2.5187,-2.5658,0.0,0.0,0.0,0.0,0.0,0.0,0.0,0.0,0.0,0.0,0.0,0.0,0.0,0.0,0.0,0.0,0.0,0.0,0.0,0.0,0.0,0.0,0.0,0.0,0.0,0.0,0.0,0.0,0.0,-4.3497,-4.3497,-4.3497,-4.3497,-4.3497,-4.3497,-4.3497,-4.3497,-4.3497,-4.3497,-4.3497,-4.3497,-4.3497,-4.3497,-4.3497,-4.3497,-4.3497,-4.3497,-4.3497,-4.3497,-4.3497,-4.3497,-4.3497,-4.3497,-4.3497,-4.3497,-4.3497,-4.3497,-4.3497,-4.3497,0.0,0.0,0.0,0.0,0.0,0.0,0.0,0.0,0.0,0.0,0.0,-1.8546,-1.8156,-1.7588,-1.7064,-1.6697,-1.6973,0.0,0.0,0.0,0.0,0.0,-2.1934,-2.2335,-2.2239,-2.1817,-2.1536,-2.1402,0.0,0.0,0.0,-2.2594,-2.292,0.0,0.0,0.0,0.0,0.0,-2.0704,-2.0312,-2.0312,-2.057,-2.0924,-2.0465,-2.08,-2.1498,-2.1498,-2.1982,-2.2784,-2.3775,-2.4332,-2.4706,-2.5168,0.0,0.0,0.0,0.0,0.0,0.0,0.0,0.0,0.0,0.0,0.0,0.0,0.0,0.0,0.0,0.0,0.0,0.0,0.0,0.0,0.0,0.0,0.0,0.0,0.0,0.0,0.0,0.0,0.0,0.0,0.0,0.0,0.0,-4.324,-4.3497,-4.3497,-4.3497,-4.3497,-4.3497,-4.3497,-4.3497,-4.3497,-4.3497,-4.3497,-4.3497,-4.3497,-4.3497,-4.3497,-4.3497,-4.3497,-4.3497,-4.3497,-4.3497,-4.3497,-4.3497,-4.3497,-4.3497,-4.3497,-4.3497,-4.3497,-4.3497,-4.3497,-4.3497,0.0,0.0,0.0,0.0,0.0,0.0,0.0,0.0,0.0,0.0,0.0,-1.9297,-1.9297,0.0,0.0,0.0,-1.6456,0.0,0.0,0.0,0.0,0.0,0.0,-2.123,-2.1367,-2.1313,-2.0962,0.0,0.0,0.0,-2.2802,-2.2795,-2.3698,0.0,-2.4457,0.0,0.0,0.0,0.0,-2.0608,-2.0608,-2.0962,-2.1451,-2.1073,-2.1312,-2.1833,-2.1833,-2.1976,0.0,0.0,0.0,0.0,0.0,0.0,0.0,0.0,0.0,0.0,0.0,0.0,0.0,0.0,0.0,0.0,0.0,0.0,0.0,0.0,0.0,0.0,0.0,0.0,0.0,0.0,0.0,0.0,0.0,0.0,0.0,0.0,0.0,0.0,0.0,0.0,0.0,0.0,-4.2543,-4.2892,-4.2892,-4.2892,-4.2983,-4.3185,-4.3185,-4.3277,-4.3497,-4.3497,-4.3497,-4.3497,-4.3497,-4.3497,-4.3497,-4.3497,-4.3497,-4.3497,-4.3497,-4.3497,-4.3497,-4.3497,-4.3497,-4.3497,-4.3497,-4.3497,-4.3497,-4.3497,-4.3497,-4.3497,0.0,0.0,0.0,0.0,0.0,0.0,0.0,0.0,0.0,0.0,0.0,-1.9297,-1.9297,-1.8477,-1.7598,-1.6777,-1.5937,0.0,0.0,0.0,0.0,0.0,0.0,0.0,-2.0449,-2.0468,0.0,0.0,0.0,0.0,-2.2802,-2.2795,-2.3698,-2.5264,-2.4457,-2.3621,-2.2738,0.0,0.0,-2.144,-2.144,-2.1459,-2.1586,-2.2374,-2.2698,-2.2724,-2.2724,0.0,0.0,0.0,0.0,0.0,0.0,0.0,-2.5303,0.0,0.0,0.0,0.0,0.0,0.0,0.0,0.0,0.0,0.0,0.0,0.0,0.0,0.0,0.0,0.0,0.0,0.0,0.0,0.0,0.0,0.0,0.0,0.0,0.0,0.0,0.0,0.0,0.0,0.0,0.0,-4.1203,-4.124,-4.124,-4.124,-4.1589,-4.2341,-4.2359,-4.2727,-4.3479,-4.3497,-4.3497,-4.3497,-4.3497,-4.3497,-4.3497,-4.3497,-4.3497,-4.3497,-4.3497,-4.3497,-4.3497,-4.3497,-4.3497,-4.3497,-4.3497,-4.3497,-4.3497,-4.3497,-4.3497,-4.3497,0.0,0.0,0.0,0.0,0.0,0.0,0.0,0.0,0.0,0.0,0.0,0.0,0.0,-1.8867,-1.7871,-1.7559,-1.623,0.0,0.0,0.0,0.0,0.0,0.0,0.0,0.0,0.0,0.0,0.0,0.0,-2.0866,-2.1968,-2.2537,-2.3122,-2.3698,-2.3984,-2.3927,-2.3583,-2.2709,0.0,0.0,-2.2331,-2.2665,0.0,-2.2901,-2.3151,-2.3562,0.0,0.0,0.0,0.0,0.0,0.0,-2.4534,-2.4889,-2.5303,-2.5303,0.0,0.0,0.0,0.0,0.0,0.0,0.0,0.0,0.0,0.0,0.0,0.0,0.0,0.0,0.0,0.0,0.0,0.0,0.0,0.0,0.0,0.0,0.0,0.0,0.0,0.0,0.0,0.0,0.0,0.0,0.0,-4.1111,-4.1111,-4.1111,-4.124,-4.1534,-4.1534,-4.1919,-4.2708,-4.2727,-4.2983,-4.3497,-4.3497,-4.3497,-4.3497,-4.3497,-4.3497,-4.3497,-4.3497,-4.3497,-4.3497,-4.3497,-4.3497,-4.3497,-4.3497,-4.3497,-4.3497,-4.3497,-4.3497,-4.3497,0.0,0.0,0.0,-2.0605,0.0,-2.0019,-1.8262,-1.873,-1.8984,-1.8105,0.0,0.0,0.0,0.0,-1.832,-1.8027,-1.6934,-1.6152,-1.5859,-1.6387,0.0,0.0,0.0,0.0,0.0,0.0,0.0,0.0,0.0,0.0,0.0,-2.2083,-2.2518,-2.2805,-2.3101,-2.355,0.0,0.0,0.0,-2.3251,0.0,0.0,-2.4072,0.0,-2.3995,-2.4438,0.0,0.0,0.0,0.0,0.0,0.0,-2.4495,-2.487,-2.5303,-2.5303,0.0,0.0,0.0,0.0,0.0,0.0,0.0,0.0,0.0,0.0,0.0,0.0,0.0,0.0,0.0,0.0,0.0,0.0,0.0,0.0,0.0,0.0,0.0,0.0,0.0,0.0,0.0,0.0,0.0,0.0,0.0,0.0,-4.0304,-4.0304,-4.0432,-4.0689,-4.0965,-4.1368,-4.1901,-4.2176,-4.2561,-4.3094,-4.3369,-4.3497,-4.3497,-4.3497,-4.3497,-4.3497,-4.3497,-4.3497,-4.3497,-4.3497,-4.3497,-4.3497,-4.3497,-4.3497,-4.3497,-4.3497,-4.3497,-4.3497,-2.0605,-2.0605,-2.0605,-2.0605,-2.0605,-2.0019,-1.8301,-1.8769,-1.9004,-1.8144,0.0,0.0,0.0,0.0,0.0,-1.8086,-1.8008,-1.7637,-1.6797,-1.6719,0.0,0.0,0.0,0.0,0.0,0.0,0.0,0.0,0.0,0.0,0.0,0.0,-2.1957,-2.2729,-2.1895,-2.2469,-2.4061,0.0,-2.4053,-2.4091,0.0,-2.4111,-2.4216,0.0,0.0,0.0,-2.5303,-2.5322,0.0,-2.5341,0.0,0.0,0.0,-2.5284,-2.5264,-2.5284,-2.5303,0.0,0.0,0.0,0.0,0.0,0.0,0.0,0.0,0.0,0.0,0.0,0.0,0.0,0.0,0.0,0.0,0.0,0.0,0.0,0.0,0.0,0.0,0.0,0.0,0.0,0.0,0.0,0.0,0.0,-3.8707,-3.8707,-3.8707,-3.8707,-3.9056,-3.9827,-4.0616,-4.1056,-4.1075,-4.1846,-4.2249,-4.2304,-4.3075,-4.3461,-4.3497,-4.3497,-4.3497,-4.3497,-4.3497,-4.3497,-4.3497,-4.3497,-4.3497,-4.3497,-4.3497,-4.3497,-4.3497,-4.3497,-4.3497,-4.3497,-2.0605,-2.0605,-2.0605,-2.0605,-2.0605,-2.0215,-1.9102,-1.9141,-1.9219,0.0,0.0,0.0,-2.0508,-1.9824,-1.8945,-1.8086,-1.8008,-1.7891,-1.7656,-1.7051,-1.7363,-1.8867,-1.834,-1.8809,-2.0527,0.0,0.0,0.0,0.0,0.0,0.0,-2.122,0.0,0.0,-2.2271,-2.272,-2.311,-2.2498,0.0,0.0,-2.4091,-2.4457,0.0,0.0,0.0,0.0,0.0,-2.5707,-2.6237,0.0,-2.6237,-2.614,0.0,0.0,0.0,-2.513,-2.5303,-2.5303,-2.5303,0.0,0.0,0.0,0.0,0.0,0.0,0.0,0.0,0.0,0.0,0.0,0.0,0.0,0.0,0.0,0.0,0.0,0.0,0.0,0.0,0.0,0.0,0.0,0.0,0.0,0.0,0.0,-3.8707,-3.8707,-3.8707,-3.8707,-3.8799,-3.9019,-3.9258,-3.9643,-4.023,-4.0451,-4.1148,-4.2304,-4.2525,-4.2928,-4.3497,-4.3497,-4.3497,-4.3497,-4.3497,-4.3497,-4.3497,-4.3497,-4.3497,-4.3497,-4.3497,-4.3497,-4.3497,-4.3497,-4.3497,-4.3497,-2.0605,-2.0605,-2.0605,-2.0605,-2.0605,-2.0312,-1.9434,-1.9609,-1.9707,0.0,0.0,0.0,-2.0547,-2.0469,-2.0039,-1.916,-1.9082,-1.8926,-1.8574,-1.8066,-1.8242,-1.9258,-1.8809,-1.918,-2.0527,-2.0449,0.0,0.0,0.0,-2.0312,-2.0312,-2.0781,-2.1001,-2.102,-2.1536,-2.1756,-2.171,-2.1212,0.0,0.0,-2.4466,0.0,0.0,-2.5303,-2.5303,0.0,0.0,0.0,-2.6612,-2.66,-2.6601,0.0,0.0,-2.5264,-2.4687,-2.5168,-2.5303,0.0,0.0,0.0,0.0,0.0,0.0,0.0,0.0,-2.9127,0.0,0.0,0.0,0.0,0.0,0.0,0.0,0.0,0.0,0.0,0.0,0.0,0.0,0.0,0.0,0.0,0.0,-3.8707,-3.8707,-3.8707,-3.8707,-3.8707,-3.8707,-3.8707,-3.8707,-3.8707,-3.8707,-3.8927,-3.9386,-3.9717,-4.0359,-4.1313,-4.1974,-4.2543,-4.3002,-4.3332,-4.3497,-4.3497,-4.3497,-4.3497,-4.3497,-4.3497,-4.3497,-4.3497,-4.3497,-4.3497,-4.3497,-4.3497,-4.3497,-4.3497,0.0,-2.0605,-2.0605,-2.0605,-2.0684,-2.0488,-1.9707,-2.0254,-2.0508,0.0,-2.0391,-2.0898,-2.0898,-2.1484,-2.1621,-2.0937,-2.0703,-2.0312,-1.9629,-1.9414,-1.9336,-1.9434,-1.9355,-1.9687,-2.0488,-2.0447,-2.0377,-2.0312,-2.0312,-2.0312,-2.0312,-2.0312,-2.0312,-2.0312,-2.0312,-2.0312,-2.0312,-2.0504,-2.1872,-2.4022,-2.4735,-2.513,0.0,0.0,-2.5303,-2.5303,-2.5409,-2.5996,-2.6756,-2.6841,-2.6875,0.0,0.0,-2.613,-2.5553,-2.536,-2.5437,0.0,-2.5457,-2.5246,0.0,0.0,-2.5762,0.0,-2.7218,-2.8227,-2.9108,0.0,0.0,0.0,0.0,0.0,0.0,0.0,0.0,0.0,0.0,0.0,0.0,0.0,0.0,0.0,-3.8707,-3.8707,-3.8707,-3.8707,-3.8707,-3.8707,-3.8707,-3.8707,-3.8707,-3.8707,-3.8707,-3.8707,-3.8707,-3.9405,-3.9808,-3.9918,-4.135,-4.2139,-4.2323,-4.3039,-4.3406,-4.3497,-4.3497,-4.3497,-4.3497,-4.3497,-4.3497,-4.3497,-4.3497,-4.3497,-4.3497,-4.3497,-4.3497,-4.3497,-2.0605,-2.0605,-2.0605,-2.0605,-2.1172,-2.1582,-2.1426,-2.1543,-2.1816,-2.2305,-2.2559,-2.2695,-2.2695,-2.2227,-2.209,-2.2578,-2.1387,-2.082,-2.1367,-2.0078,-1.9609,-2.0312,-1.9668,-1.9707,-2.0566,-2.0456,-2.0385,-2.0389,-2.0331,-2.0312,-2.0312,-2.0312,-2.0312,-2.0312,-2.0312,-2.0312,-2.0389,-2.1737,0.0,-2.3072,-2.3227,0.0,-2.5303,-2.5303,-2.5303,-2.539,-2.6102,-2.6911,-2.7749,-2.8395,-2.8614,-2.8376,0.0,-2.6965,-2.7119,-2.5707,-2.6294,-2.7236,-2.6544,-2.6524,-2.6601,-2.611,0.0,0.0,-2.5933,-2.6979,-2.8264,0.0,0.0,0.0,0.0,0.0,0.0,0.0,0.0,0.0,0.0,0.0,0.0,0.0,0.0,0.0,-3.8707,-3.8707,-3.8707,-3.8707,-3.8707,-3.8707,-3.8707,-3.8707,-3.8707,-3.8707,-3.8707,-3.8707,-3.8707,-3.8854,-3.9258,-3.99,-4.0212,-4.1038,-4.2304,-4.2451,-4.2892,-4.3497,-4.3497,-4.3497,-4.3497,-4.3497,-4.3497,-4.3497,-4.3497,-4.3497,-4.3497,-4.3497,-4.3497,-4.3497,-2.0605,-2.0957,-2.125,-2.125,-2.1934,-2.25,-2.25,-2.2539,-2.2676,-2.3047,-2.3516,-2.3633,-2.3203,-2.3144,-2.2969,-2.2539,-2.1738,-2.125,-2.125,-2.043,-2.0137,-2.0586,-2.0176,-2.0137,-2.0547,-2.0453,-2.0385,-2.035,-2.0331,-2.0312,-2.0312,-2.0312,-2.0504,-2.0885,-2.0485,-2.0762,-2.1575,0.0,-2.2654,-2.3475,-2.39,0.0,-2.5303,-2.5303,-2.5563,-2.5996,-2.6439,-2.7411,-2.8555,-2.8951,-2.9102,0.0,0.0,-2.7552,-2.7648,0.0,-2.6563,-2.7119,-2.6562,-2.6502,-2.6572,-2.6474,0.0,0.0,0.0,-2.7218,-2.814,-2.9357,0.0,0.0,0.0,0.0,0.0,0.0,0.0,0.0,0.0,0.0,0.0,0.0,0.0,0.0,-3.8707,-3.8707,-3.8707,-3.8707,-3.8707,-3.8707,-3.8707,-3.8707,-3.8707,-3.8707,-3.8707,-3.8707,-3.8707,-3.8707,-3.8909,-3.9313,-3.9698,-4.0322,-4.113,-4.1937,-4.2525,-4.291,-4.3314,-4.3497,-4.3497,-4.3497,-4.3497,-4.3497,-4.3497,-4.3497,-4.3497,-4.3497,-4.3497,-4.3497,-2.0605,-2.1309,-2.1894,-2.1894,-2.2695,-2.3359,-2.3359,-2.3398,-2.3418,-2.3359,-2.4102,-2.4375,-2.3672,-2.4082,-2.3926,-2.2734,-2.2324,-2.1894,-2.1367,-2.1035,-2.0918,-2.1074,-2.0762,-2.0625,-2.0742,-2.0508,-2.0355,-2.0312,-2.0312,-2.0312,-2.0312,-2.0312,-2.0723,-2.1479,-2.0823,0.0,0.0,0.0,0.0,-2.4178,0.0,-2.5303,-2.5303,-2.5303,-2.5842,-2.6631,-2.6968,-2.8052,-2.9348,-2.9349,-2.9357,-2.9206,-2.839,-2.8236,0.0,0.0,0.0,0.0,0.0,0.0,0.0,0.0,0.0,-2.7346,0.0,0.0,0.0,-2.9499,0.0,0.0,0.0,0.0,0.0,0.0,0.0,0.0,0.0,0.0,0.0,0.0,0.0,0.0,-3.8469,-3.8469,-3.8524,-3.8689,-3.856,-3.8542,-3.8689,-3.8707,-3.8707,-3.8707,-3.8707,-3.8707,-3.8707,-3.8707,-3.8707,-3.8707,-3.935,-3.9753,-3.9937,-4.124,-4.2011,-4.2341,-4.2983,-4.3351,-4.3497,-4.3497,-4.3497,-4.3497,-4.3497,-4.3497,-4.3497,-4.3497,-4.3497,-4.3497,-2.0605,-2.1309,-2.1894,-2.1894,-2.3203,-2.4258,-2.4258,-2.4258,-2.4258,-2.4258,-2.5019,-2.5508,-2.543,0.0,0.0,0.0,0.0,-2.3242,-2.3926,-2.2578,-2.207,-2.2773,-2.1348,-2.0879,-2.1641,-2.0762,-2.0316,-2.0312,-2.0312,-2.0312,-2.0312,-2.0312,-2.0723,-2.149,-2.1396,0.0,0.0,0.0,-2.3928,0.0,-2.4985,-2.5303,0.0,-2.5303,-2.5842,-2.6785,-2.8272,-2.9425,-3.0244,0.0,-3.0254,-3.0104,0.0,-2.9483,-2.9802,-2.8214,0.0,0.0,0.0,0.0,0.0,0.0,-2.8889,0.0,0.0,0.0,-2.8709,-2.8172,0.0,0.0,0.0,0.0,0.0,0.0,0.0,0.0,0.0,0.0,0.0,0.0,0.0,0.0,0.0,-3.7624,-3.7918,-3.8652,-3.8028,-3.7936,-3.867,-3.8707,-3.8707,-3.8707,-3.8707,-3.8707,-3.8707,-3.8707,-3.8707,-3.8707,-3.8799,-3.9203,-3.99,-4.0084,-4.0946,-4.2304,-4.2396,-4.2837,-4.3497,-4.3497,-4.3497,-4.3497,-4.3497,-4.3497,-4.3497,-4.3497,-4.3497,-4.3497,-2.0605,-2.1719,-2.248,-2.1992,-2.3691,-2.498,-2.4473,-2.4824,-2.5156,-2.5156,-2.5469,-2.5703,0.0,0.0,0.0,0.0,0.0,-2.3809,0.0,0.0,-2.2793,-2.3086,-2.1953,-2.1474,-2.1798,-2.0852,-2.0344,-2.0312,-2.0312,-2.0312,-2.0312,-2.0312,-2.1001,-2.2227,-2.1722,0.0,-2.4235,0.0,-2.437,0.0,0.0,0.0,0.0,-2.5303,-2.6158,-2.7569,-2.9252,-3.009,-3.0321,0.0,-2.9979,0.0,0.0,0.0,0.0,-2.8952,0.0,0.0,0.0,0.0,0.0,0.0,0.0,0.0,-2.7776,0.0,-2.9058,0.0,0.0,0.0,0.0,0.0,0.0,0.0,0.0,0.0,0.0,0.0,0.0,0.0,0.0,0.0,0.0,0.0,0.0,0.0,-3.7679,-3.7845,-3.867,-3.8707,-3.8707,-3.8707,-3.8707,-3.8707,-3.8707,-3.8707,-3.8707,-3.8707,-3.8707,-3.8891,-3.9221,-3.968,-4.0267,-4.0965,-4.1882,-4.2488,-4.2837,-4.3296,-4.3497,-4.3497,-4.3497,-4.3497,-4.3497,-4.3497,-4.3497,-4.3497,-2.0957,-2.1973,-2.2715,-2.2324,-2.3965,-2.5215,-2.4824,-2.5293,-2.5703,-2.5703,-2.5703,0.0,-2.5703,-2.5703,0.0,0.0,-2.4766,-2.4512,0.0,0.0,-2.3613,-2.3809,-2.2773,-2.2172,-2.2136,-2.1196,-2.057,-2.0312,-2.0312,-2.0312,-2.0312,-2.0312,-2.1059,-2.2427,-2.2038,-2.3026,-2.4947,0.0,-2.4908,-2.5659,-2.5659,-2.5803,-2.5996,-2.5996,-2.6946,-2.8418,-2.9886,-3.0398,-3.0302,-2.9663,-2.9886,0.0,-2.9663,0.0,-3.0559,0.0,0.0,0.0,-2.8879,0.0,0.0,0.0,0.0,0.0,0.0,0.0,0.0,0.0,0.0,0.0,0.0,0.0,0.0,0.0,0.0,0.0,0.0,0.0,0.0,0.0,0.0,0.0,0.0,0.0,0.0,0.0,0.0,-3.7514,-3.8322,-3.8579,-3.8707,-3.8707,-3.8707,-3.8707,-3.8707,-3.8707,-3.8707,-3.8707,-3.8707,-3.8707,-3.8726,-3.9294,-3.968,-3.9974,-4.1368,-4.2103,-4.2359,-4.3167,-4.3497,-4.3497,-4.3497,-4.3497,-4.3497,-4.3497,-4.3497,-4.3497,-2.1855,-2.1894,0.0,-2.3027,-2.3867,-2.4727,-2.5527,-2.5684,-2.5703,-2.5703,0.0,0.0,0.0,0.0,0.0,0.0,0.0,-2.5644,-2.5625,0.0,-2.4746,-2.5586,-2.3906,-2.2969,0.0,-2.1978,-2.1078,-2.0312,-2.0312,-2.0312,-2.0312,0.0,0.0,0.0,-2.2393,-2.3256,-2.4197,-2.4947,-2.5765,-2.6554,-2.6554,-2.7046,-2.7817,0.0,-2.8335,-2.9171,-3.009,0.0,0.0,-3.0359,-3.0379,0.0,0.0,0.0,0.0,0.0,0.0,0.0,0.0,0.0,0.0,-2.9794,0.0,0.0,0.0,0.0,-3.0173,0.0,0.0,0.0,0.0,0.0,0.0,0.0,0.0,0.0,0.0,0.0,0.0,0.0,0.0,0.0,0.0,0.0,0.0,0.0,-3.634,0.0,-3.7507,-3.8267,-3.8707,-3.8707,-3.8707,-3.8707,-3.8707,-3.8707,-3.8707,-3.8707,-3.8707,-3.8707,-3.8707,-3.8726,-3.9166,-3.9937,-4.0781,-4.1589,-4.2359,-4.3167,-4.3497,-4.3497,-4.3497,-4.3497,-4.3497,-4.3497,-4.3497,-4.3497,0.0,0.0,0.0,0.0,0.0,-2.5352,-2.5644,-2.5703,-2.5918,0.0,-2.6562,0.0,0.0,-2.7422,-2.7422,0.0,0.0,-2.7422,-2.7422,-2.6602,0.0,-2.6543,-2.4824,-2.3868,0.0,-2.2917,-2.2273,-2.1949,-2.1949,-2.1949,-2.193,0.0,0.0,0.0,0.0,-2.3293,0.0,0.0,0.0,0.0,0.0,-2.7953,-2.8687,0.0,-2.8868,-2.921,-3.009,-3.0398,0.0,-3.0398,-3.0283,-3.0148,-3.0148,-3.0244,-3.0336,-3.0065,-3.0117,-3.0323,0.0,0.0,-3.1672,-3.0565,0.0,0.0,0.0,0.0,0.0,0.0,0.0,0.0,0.0,0.0,0.0,0.0,0.0,0.0,0.0,0.0,0.0,0.0,0.0,0.0,0.0,0.0,0.0,0.0,-3.5661,0.0,-3.7441,-3.8267,-3.8707,-3.8707,-3.8707,-3.8707,-3.8707,-3.8707,-3.8707,-3.8707,-3.8707,-3.8707,-3.8707,-3.8707,-3.8854,-3.9148,-3.9955,-4.0451,-4.0818,-4.2139,-4.2708,-4.2763,-4.3277,-4.3497,-4.3497,-4.3497,-4.3497,-4.3497,-2.3574,0.0,0.0,0.0,0.0,-2.5703,-2.5703,-2.5957,0.0,0.0,-2.7266,0.0,-2.8242,0.0,-2.8301,0.0,-2.8301,-2.8164,-2.7851,-2.7598,0.0,-2.6536,-2.5658,0.0,0.0,0.0,-2.3146,-2.2791,-2.2791,-2.2791,-2.2772,0.0,0.0,0.0,0.0,-2.3281,-2.4178,0.0,-2.6275,0.0,0.0,-2.9094,0.0,0.0,-2.9567,-2.9644,0.0,-3.0398,-3.0379,-3.0283,-3.0148,-3.0042,-3.0251,-3.0254,-3.0174,-3.028,-3.0517,-3.0814,-3.12,-3.1936,0.0,-3.1506,-3.1656,0.0,-2.9946,0.0,-3.0632,0.0,0.0,0.0,0.0,0.0,0.0,0.0,-3.038,0.0,0.0,-2.9465,0.0,0.0,0.0,0.0,0.0,0.0,-3.2761,-3.333,-3.4633,0.0,0.0,-3.7826,-3.8395,-3.8689,-3.8707,-3.8707,-3.8707,-3.8707,-3.8707,-3.8707,-3.8707,-3.8707,-3.8707,-3.8707,-3.8707,-3.8744,-3.9551,-3.99,-4.001,-4.1644,-4.2304,-4.2378,-4.3185,-4.3497,-4.3497,-4.3497,-4.3497,-4.3497,-2.4453,0.0,0.0,0.0,-2.5156,0.0,0.0,0.0,-2.7012,0.0,-2.7812,-2.8379,-2.8418,-2.8437,-2.8437,-2.8437,-2.8437,-2.8086,-2.7246,-2.793,0.0,0.0,-2.6482,-2.6068,-2.4361,0.0,0.0,0.0,-2.292,-2.292,-2.2901,0.0,0.0,0.0,-2.286,0.0,-2.4216,-2.588,-2.7123,-2.8106,-2.9748,-3.0398,-3.0398,-3.0398,-3.0398,-3.0398,-3.0398,-3.0398,-3.0359,-3.009,-2.999,-3.0079,-3.0702,-3.0914,-3.095,-3.0942,-3.171,-3.241,-3.1618,-3.2031,-3.2661,-3.2613,-3.2223,0.0,0.0,0.0,-3.1458,0.0,0.0,0.0,0.0,0.0,0.0,0.0,-3.0687,0.0,0.0,0.0,0.0,0.0,0.0,0.0,0.0,0.0,-3.0889,-3.243,-3.333,0.0,0.0,-3.7037,-3.7845,-3.8615,-3.8689,-3.8707,-3.8707,-3.8707,-3.8707,-3.8707,-3.8707,-3.8707,-3.8707,-3.8707,-3.8707,-3.8744,-3.9515,-3.9827,-3.9955,-4.1534,-4.2176,-4.2268,-4.3112,-4.3442,-4.3497,-4.3497,-4.3497,-4.3497,-2.5371,-2.6074,-2.6387,0.0,-2.5547,-2.5703,0.0,0.0,0.0,0.0,-2.873,-2.9512,-3.0156,-3.0234,-3.0234,-3.0234,-3.0234,0.0,0.0,0.0,0.0,-2.8525,-2.8036,-2.7229,-2.6083,-2.5976,-2.5524,-2.4649,0.0,0.0,-2.463,0.0,0.0,0.0,0.0,0.0,-2.4216,-2.588,-2.7439,-2.8898,-2.9975,-3.0398,-3.0398,0.0,-3.0398,-3.0398,-3.0398,-3.0398,-3.0359,-3.009,-2.9908,-2.9878,-3.0479,-3.0552,-3.0574,-3.1329,-3.1914,-3.2384,-3.2762,-3.3168,-3.3534,-3.3705,-3.3231,-3.259,0.0,0.0,0.0,0.0,0.0,0.0,0.0,0.0,0.0,0.0,0.0,0.0,0.0,0.0,0.0,0.0,0.0,0.0,0.0,-3.0393,-3.1256,-3.1678,-3.2999,0.0,0.0,0.0,-3.7569,-3.779,-3.8395,-3.8707,-3.8707,-3.8707,-3.8707,-3.8707,-3.8707,-3.8707,-3.8707,-3.8707,-3.8707,-3.8707,-3.8927,-3.9019,-3.9093,-4.0102,-4.0506,-4.0653,-4.2066,-4.2965,-4.3497,-4.3497,-4.3497,-4.3497,-2.6191,0.0,0.0,-2.6914,0.0,0.0,-2.6328,-2.668,0.0,-2.8184,-2.9062,0.0,-3.0273,-3.0664,-3.0898,-3.0898,-3.0846,0.0,-3.0316,0.0,0.0,-2.8879,-2.8679,-2.8161,-2.7237,-2.6805,0.0,-2.5861,0.0,0.0,-2.5284,0.0,0.0,0.0,0.0,-2.4293,-2.4745,-2.6446,-2.7915,-2.9171,-3.0052,-3.0398,0.0,-3.0398,-3.0398,-3.0398,-3.0398,-3.0398,-3.0398,-3.0379,-3.0326,-3.0369,-3.1219,-3.1121,-3.0929,-3.2022,-3.2418,-3.2675,-3.3238,-3.3805,-3.4188,-3.4203,-3.3864,-3.3343,-3.2746,-3.2614,-3.2614,0.0,-3.2944,-3.3393,0.0,0.0,0.0,0.0,0.0,0.0,0.0,0.0,0.0,0.0,-2.8994,0.0,-2.8994,-2.9824,-3.0509,-3.0846,-3.2034,0.0,0.0,0.0,-3.7129,-3.7477,-3.8285,-3.8707,-3.8707,-3.8707,-3.8707,-3.8707,-3.8707,-3.8707,-3.8707,-3.8707,-3.8707,-3.8707,-3.8707,-3.8707,-3.8762,-3.957,-3.99,-4.0047,-4.1662,-4.2782,-4.3497,-4.3497,-4.3497,-4.3497,-2.7012,0.0,0.0,0.0,0.0,0.0,0.0,-2.7344,0.0,-2.8379,0.0,-2.9766,-2.9766,-3.0449,-3.0898,-3.0871,0.0,-3.0398,-2.9694,-3.0236,-2.9912,-2.8398,-2.8991,-2.8964,-2.8082,-2.7323,-2.6814,0.0,-2.5842,-2.5409,-2.5284,0.0,0.0,0.0,0.0,0.0,0.0,-2.727,-2.843,-2.9337,-3.011,-3.0398,-3.0398,-3.0398,-3.0398,-3.0398,-3.0525,-3.0544,-3.0564,-3.0814,-3.0949,-3.1204,-3.2284,-3.2114,-3.1773,-3.282,-3.3121,-3.3195,-3.3388,-3.4035,-3.4572,-3.4242,-3.4147,-3.3889,-3.2959,-3.2761,-3.2761,-3.2761,-3.2768,-3.2952,-3.366,0.0,0.0,0.0,0.0,0.0,0.0,0.0,0.0,0.0,0.0,0.0,0.0,-2.8994,-2.9333,-3.0143,-3.0846,0.0,0.0,0.0,-3.6486,-3.7312,-3.823,-3.8707,-3.8707,-3.8707,-3.8707,-3.8707,-3.8707,-3.8707,-3.8707,-3.8707,-3.8707,-3.8707,-3.8707,-3.8707,-3.8762,-3.9441,-3.9863,-4.0194,-4.1607,-4.269,-4.3497,-4.3497,-4.3497,-4.3497,-2.8047,0.0,0.0,0.0,0.0,-2.9316,-2.918,-2.9141,-2.9199,-2.9355,-3.0137,-3.0664,-3.0664,-3.0801,-3.0855,-3.0732,-3.0709,0.0,0.0,0.0,0.0,-3.0083,-3.0206,-2.9829,-2.8914,-2.8741,-2.7975,-2.6593,-2.6458,-2.5996,-2.5303,-2.5168,0.0,0.0,0.0,0.0,-2.746,-2.7769,0.0,-3.0186,-3.034,-3.0398,-3.0398,-3.0398,-3.0398,-3.0487,-3.121,-3.1338,-3.1114,-3.096,-3.1223,-3.1743,-3.2389,-3.2491,-3.2547,-3.3405,-3.3825,-3.3952,-3.3769,-3.3985,-3.4218,-3.3943,-3.385,-3.3831,-3.3623,-3.3587,-3.3587,-3.3587,-3.3587,-3.3623,-3.377,0.0,0.0,0.0,0.0,0.0,0.0,0.0,0.0,0.0,0.0,-2.8994,0.0,-2.8994,-2.9333,-3.0143,0.0,0.0,0.0,0.0,-3.5624,0.0,-3.7936,-3.8707,0.0,0.0,-3.8707,-3.8707,-3.8707,-3.8707,-3.8707,-3.8707,-3.8707,-3.8707,-3.8707,-3.8707,-3.8707,-3.8854,-3.9698,-4.0928,-4.1203,-4.2213,-4.3497,-4.3497,-4.3497,-4.3497,0.0,0.0,0.0,0.0,0.0,0.0,0.0,-3.1562,-3.1269,-3.0391,-3.0644,-3.0898,-3.0898,-3.0898,-3.0843,-3.0717,-3.066,-3.0621,-3.0544,-3.0525,-3.0487,-3.0448,-3.0448,-3.0244,-2.979,-2.9337,-2.8499,-2.7262,-2.6823,-2.616,-2.5303,-2.5303,-2.5303,-2.5322,0.0,-2.6439,0.0,0.0,0.0,-2.9771,-3.0225,-3.0398,-3.0398,-3.0398,-3.0679,-3.1133,-3.1549,-3.2095,-3.2563,-3.2296,-3.2284,-3.251,-3.3066,-3.3213,-3.3313,-3.3697,-3.388,-3.3962,-3.3844,-3.3891,-3.3956,-3.3823,-3.3807,-3.3807,-3.3807,-3.3807,-3.3807,-3.3807,-3.3807,-3.3807,-3.3807,-3.3486,0.0,0.0,0.0,0.0,0.0,0.0,0.0,0.0,0.0,0.0,0.0,0.0,0.0,0.0,0.0,0.0,0.0,0.0,-3.4981,0.0,0.0,0.0,-3.8707,0.0,-3.8707,-3.8707,-3.8707,-3.8707,-3.8707,-3.8707,-3.8707,-3.8707,-3.8707,-3.8707,-3.8707,-3.8707,-3.9405,-4.0524,-4.0946,-4.1827,-4.2928,-4.3332,-4.3497,-4.3497,0.0,-3.2598,0.0,0.0,-3.2871,0.0,-3.3301,-3.3555,-3.3144,-3.1621,-3.1426,-3.1426,-3.1426,-3.1426,-3.1379,-3.1245,-3.1176,-3.1102,-3.1025,-3.0814,-3.0679,-3.0679,-3.0494,-3.0398,-3.0398,-2.9733,-2.8979,0.0,-2.7294,-2.6439,-2.5563,-2.539,-2.5409,-2.5601,0.0,0.0,0.0,0.0,-2.921,-2.9433,-3.0129,-3.0506,-3.0679,-3.0679,-3.121,-3.1985,-3.2165,-3.2917,-3.3795,-3.369,-3.3474,-3.3331,-3.3697,-3.3807,-3.3807,-3.3807,-3.3807,-3.3807,-3.3807,-3.3807,-3.3807,-3.3807,-3.3807,-3.3807,-3.3807,-3.3807,-3.3807,-3.3807,-3.3807,-3.3807,-3.3807,-3.3807,0.0,0.0,0.0,0.0,0.0,0.0,0.0,0.0,0.0,0.0,-2.8994,0.0,0.0,0.0,0.0,0.0,-3.1352,0.0,0.0,0.0,0.0,-3.779,-3.8432,0.0,-3.8707,-3.8707,-3.8707,-3.8707,-3.8707,-3.8707,-3.8707,-3.8707,-3.8707,-3.8707,-3.8707,-3.8707,-3.9166,-3.9955,-4.0598,-4.1442,-4.2378,-4.3002,-4.3332,-4.3497,0.0,0.0,0.0,0.0,0.0,0.0,-3.3398,-3.4062,-3.4238,-3.3281,-3.3164,-3.3164,-3.3164,-3.3164,-3.3114,-3.2979,-3.2946,-3.2872,-3.2699,-3.1987,-3.1583,-3.1583,-3.0833,-3.0398,-3.0398,-3.0321,-2.9848,0.0,0.0,-2.7325,0.0,-2.5659,-2.5726,-2.6516,-2.7383,0.0,0.0,-2.9037,-2.9567,-3.0283,-3.0359,-3.0883,-3.1569,-3.1569,-3.2093,-3.2883,-3.3686,-3.3876,-3.3882,-3.44,-3.4353,-3.4054,-3.3844,-3.3807,-3.3807,-3.3807,-3.3807,-3.3807,-3.3807,-3.3807,-3.3807,-3.3807,-3.3807,-3.3807,-3.3807,-3.3807,-3.3807,-3.3807,-3.3807,-3.3807,-3.3807,-3.3807,-3.356,0.0,0.0,0.0,0.0,0.0,-3.0632,-2.9163,0.0,0.0,0.0,-2.8994,0.0,0.0,-2.9067,0.0,-3.1311,-3.2236,0.0,-3.5064,-3.667,-3.7533,-3.7606,-3.834,-3.8707,-3.8707,-3.8707,-3.8707,-3.8707,-3.8707,-3.8707,-3.8707,-3.8707,-3.8707,-3.8707,-3.8707,-3.9166,-3.99,-3.9974,-4.0946,-4.2304,-4.2378,-4.2873,-4.3497,0.0,0.0,0.0,0.0,0.0,0.0,0.0,-3.5254,-3.5351,-3.5019,-3.4512,-3.418,-3.418,-3.3673,-3.3305,-3.3213,-3.313,-3.3032,-3.291,-3.2602,-3.2429,-3.2429,-3.1614,-3.1172,-3.1172,-3.066,-2.9963,0.0,0.0,0.0,-2.7364,-2.7007,-2.7054,-2.7415,0.0,-2.8802,-2.9133,-2.9663,-3.0379,-3.1172,-3.1172,-3.1677,-3.242,-3.2417,-3.2942,-3.3737,-3.4063,-3.4466,-3.4826,-3.4903,-3.4623,-3.4154,-3.3862,-3.3807,-3.3825,-3.3999,-3.3944,-3.3844,-3.3999,-3.3925,-3.3807,-3.3807,-3.3807,-3.3807,-3.3807,-3.3807,-3.3807,-3.3807,-3.3807,-3.3807,-3.3807,-3.3807,-3.3697,-3.3368,0.0,0.0,0.0,0.0,0.0,-2.9784,0.0,-2.8994,0.0,0.0,0.0,0.0,0.0,-3.0217,-3.1339,-3.2164,0.0,-3.4954,0.0,-3.7,-3.7507,-3.8303,-3.8707,-3.8707,-3.8707,-3.8707,-3.8707,-3.8707,-3.8707,-3.8707,-3.8707,-3.8707,-3.8707,-3.8707,-3.8891,-3.9239,-3.9698,-4.0598,-4.1644,-4.2121,-4.28,-4.3497,-3.5996,0.0,-3.5273,0.0,-3.5488,-3.5293,-3.5918,-3.5996,-3.5996,-3.5996,-3.5469,-3.5075,-3.5057,-3.4449,-3.4019,-3.3905,-3.3828,-3.3743,-3.368,-3.341,-3.3276,-3.3276,-3.248,0.0,-3.205,-3.1453,-3.0845,-3.0225,-2.9982,0.0,-2.9021,-2.9021,-2.9028,-2.9037,-2.9605,-3.0002,-3.0244,-3.0621,-3.128,-3.2042,-3.2057,-3.2557,-3.3282,-3.3281,-3.3819,-3.4581,-3.4581,-3.4979,-3.5455,-3.5185,-3.481,-3.4391,-3.4013,-3.3999,-3.4072,-3.4173,-3.4154,-3.4125,-3.4297,-3.4127,-3.3925,-3.3925,-3.3844,-3.3807,-3.3807,-3.3807,-3.3807,-3.3807,-3.3807,-3.3807,-3.3807,-3.3807,-3.3733,-3.3505,0.0,0.0,0.0,-3.1272,0.0,-3.0236,-2.9485,-2.8994,-2.8994,-2.8994,0.0,0.0,0.0,-3.0793,-3.1354,-3.2139,0.0,0.0,0.0,0.0,-3.7129,-3.7955,-3.8469,-3.8707,-3.8707,-3.8707,-3.8707,-3.8707,-3.8707,-3.8707,-3.8707,-3.8707,-3.8707,-3.8707,-3.8707,-3.8762,-3.9331,-4.0194,-4.1185,-4.1754,-4.2598,-4.3497,-3.5996,-3.5996,-3.5996,-3.5996,-3.5996,-3.5996,-3.5996,-3.5996,-3.5996,-3.5996,-3.5996,-3.5962,-3.5888,-3.5886,-3.5795,-3.5584,-3.5565,-3.5545,-3.5468,-3.4661,-3.418,0.0,0.0,-3.2891,-3.2884,-3.2883,-3.2856,-3.2837,0.0,0.0,-3.1657,-3.1657,-3.1657,-3.1657,-3.1657,-3.2112,-3.2798,-3.2023,-3.2151,-3.2894,-3.2891,-3.3421,-3.4178,-3.4164,-3.473,-3.5474,-3.5474,-3.5474,-3.5455,-3.5185,-3.5095,-3.4983,-3.437,-3.442,-3.4631,-3.4301,-3.4425,-3.4687,-3.4705,-3.4457,-3.4209,-3.4209,-3.3999,-3.3807,-3.3807,-3.3807,-3.3807,-3.3807,-3.3807,-3.3807,-3.3807,-3.3807,-3.3542,-3.2738,0.0,0.0,0.0,-3.1392,0.0,-3.0286,-2.9485,-2.8994,-2.8994,-2.8994,0.0,0.0,0.0,-3.1391,-3.1401,-3.2173,0.0,-3.3788,-3.4586,0.0,-3.6303,-3.7092,-3.79,-3.8707,-3.8707,-3.8707,-3.8707,-3.8707,-3.8707,-3.8707,-3.8707,-3.8707,-3.8707,-3.8707,-3.8707,-3.8707,-3.8707,-3.9698,-4.1111,-4.113,-4.2139,-4.3497,-3.5996,-3.5996,-3.5996,-3.5996,-3.5996,-3.5996,-3.5996,-3.5996,-3.5996,-3.5996,-3.5996,-3.5942,-3.5771,-3.5763,-3.5718,0.0,-3.5565,-3.5526,0.0,-3.5238,-3.5084,-3.5084,-3.4257,-3.3795,-3.3788,-3.3199,-3.2891,-3.2891,0.0,0.0,0.0,-3.2513,-3.2513,-3.2513,-3.2513,-3.266,-3.2875,-3.2628,-3.3006,-3.3782,-3.3794,-3.4312,-3.5089,-3.5089,-3.5262,-3.5493,-3.5493,-3.5493,-3.5474,-3.5397,-3.5359,-3.5393,-3.5579,-3.5202,-3.4696,-3.4793,-3.4767,-3.4731,-3.4918,-3.4772,-3.4491,-3.4252,-3.4127,-3.4017,-3.3844,-3.3807,-3.3807,-3.3807,-3.3807,-3.3807,-3.3807,-3.3807,-3.3733,-3.3468,-3.3615,0.0,-3.3103,0.0,-3.1931,-3.1117,-3.0314,-2.9596,-2.9053,-2.9504,0.0,0.0,0.0,0.0,-3.221,0.0,0.0,0.0,-3.4567,0.0,-3.5423,-3.6806,-3.7625,-3.79,-3.8438,-3.8707,-3.8707,-3.8707,-3.8707,-3.8707,-3.8707,-3.8707,-3.8707,-3.8707,-3.8707,-3.8762,-3.9294,-4.0175,-4.1185,-4.1735,-4.2598,-4.3497,-3.5996,-3.5996,-3.5996,-3.5996,-3.5996,-3.5996,-3.5996,-3.5996,-3.5996,-3.5996,-3.5996,-3.5929,-3.5723,-3.5704,0.0,-3.5584,-3.5526,-3.5493,-3.5493,-3.5493,-3.5493,-3.5493,-3.4988,-3.4686,-3.4691,-3.4147,0.0,-3.3876,-3.3876,-3.3876,-3.3876,-3.3876,-3.3876,-3.3857,-3.3536,-3.3576,-3.3872,-3.3525,-3.3895,-3.4691,-3.4691,-3.4999,-3.5493,-3.5493,-3.5493,-3.5493,-3.5493,-3.5493,-3.5565,-3.5853,-3.5949,-3.6078,-3.6727,-3.6479,-3.5953,-3.6029,-3.5565,-3.5109,-3.5584,-3.5282,-3.4787,-3.4578,-3.4383,-3.4109,-3.3844,-3.3807,-3.3807,-3.3807,-3.3807,-3.3807,-3.3807,-3.3807,-3.3807,-3.3807,-3.3807,-3.3807,-3.3807,0.0,-3.2407,0.0,0.0,0.0,0.0,-3.0351,-3.0793,0.0,0.0,0.0,0.0,0.0,-3.3807,-3.3807,-3.4567,-3.5164,-3.5486,-3.682,-3.7649,-3.7955,-3.8456,-3.8707,-3.8707,-3.8707,-3.8707,-3.8707,-3.8707,-3.8707,-3.8707,-3.8707,-3.8707,-3.8781,-3.9588,-4.0396,-4.1203,-4.2011,-4.28,-4.3497,-3.5996,-3.5996,-3.5996,0.0,-3.5996,0.0,-3.5996,-3.5996,-3.5996,-3.5996,-3.5996,-3.5929,-3.5723,-3.5704,-3.5661,-3.5526,0.0,0.0,-3.5493,-3.5493,-3.5493,-3.5493,-3.5493,-3.5493,-3.5493,-3.5493,-3.5493,-3.5493,-3.5493,-3.5493,-3.5493,-3.5493,-3.5493,-3.5455,-3.4653,-3.4749,-3.5435,-3.4634,-3.4768,-3.5493,-3.5493,-3.5493,-3.5493,-3.5493,-3.5545,-3.5584,-3.5584,-3.5622,-3.5795,-3.6535,-3.6785,-3.6939,-3.7833,-3.8046,-3.7947,-3.769,-3.6708,-3.5853,-3.6593,-3.6059,-3.5282,-3.5205,-3.4713,-3.4173,-3.3925,-3.3844,-3.3844,-3.3825,-3.3825,-3.3825,-3.3807,-3.3807,-3.3807,-3.3807,-3.3807,-3.3807,-3.3807,-3.3158,-3.2665,0.0,0.0,0.0,-3.1399,-3.1436,-3.1783,0.0,0.0,0.0,0.0,0.0,-3.3862,-3.3862,-3.4623,-3.5413,-3.6297,-3.71,-3.7919,-3.8707,-3.8707,-3.8707,-3.8707,-3.8707,-3.8707,-3.8707,-3.8707,-3.8707,-3.8707,-3.8707,-3.8707,-3.8799,-3.9643,-4.0451,-4.1203,-4.2066,-4.2855,-4.3497,0.0,0.0,-3.5996,-3.5996,-3.5996,-3.5996,-3.5996,-3.5996,-3.5996,-3.5996,-3.5996,-3.5968,-3.5859,-3.5762,-3.568,-3.5584,-3.5545,-3.5493,-3.5493,-3.5493,-3.5493,-3.5493,-3.5493,-3.5493,-3.5493,-3.5493,-3.5493,-3.5493,-3.5493,-3.5493,-3.5493,-3.5493,-3.5493,-3.5474,-3.5282,-3.5301,-3.5474,-3.5282,-3.5301,-3.5493,-3.5493,-3.5493,-3.5493,-3.5493,-3.5872,-3.6406,-3.6406,-3.6843,-3.7448,-3.7621,-3.7695,-3.7828,-3.8723,-3.8554,-3.8001,-3.7916,-3.7676,-3.7444,-3.7646,-3.7506,-3.7107,-3.6232,-3.5301,-3.4567,-3.4494,-3.4494,-3.442,-3.4173,-3.4109,-3.4036,-3.3844,-3.3807,-3.3807,-3.3807,-3.3807,-3.3807,-3.3807,-3.3633,-3.3295,0.0,-3.2444,-3.2059,-3.1451,-3.1968,-3.2389,0.0,0.0,-3.3597,-3.3788,-3.4402,-3.4723,-3.4723,-3.4885,-3.5417,-3.6285,-3.7094,-3.7906,-3.8707,-3.8707,-3.8707,-3.8707,-3.8707,-3.8707,-3.8707,-3.8707,-3.8707,-3.8707,-3.8707,-3.8707,-3.8836,-4.0267,-4.0946,-4.1277,-4.269,-4.3332,-4.3497,-3.5996,-3.5996,-3.5996,-3.5996,-3.5996,-3.5996,-3.5996,-3.5996,-3.5996,-3.5996,-3.5996,-3.5974,-3.5903,-3.5776,-3.567,-3.5617,-3.5545,-3.5493,-3.5493,-3.5493,-3.5493,-3.5493,-3.5493,-3.5493,-3.5493,-3.5493,-3.5493,-3.5493,-3.5493,-3.5493,-3.5493,-3.5493,-3.5493,-3.5493,-3.5493,-3.5493,-3.5493,-3.5493,-3.5493,-3.5493,-3.5493,-3.5718,-3.6059,-3.6059,-3.6573,-3.7299,-3.7296,-3.7603,-3.806,-3.8464,-3.8589,-3.875,-3.9588,-3.9531,-3.9131,-3.9153,-3.8589,-3.8082,-3.8488,-3.8291,-3.7829,-3.7074,-3.6171,-3.539,-3.5277,-3.4973,-3.4651,-3.4461,-3.4431,-3.4402,-3.4246,-3.4091,-3.3981,-3.3981,-3.3862,-3.3807,-3.3807,-3.3807,-3.3633,-3.3195,-3.314,-3.2966,-3.2529,-3.2893,-3.314,-3.314,-3.356,0.0,-3.3807,-3.4209,-3.4631,-3.4989,-3.5754,-3.6352,-3.6833,-3.765,-3.8261,-3.8707,-3.8707,-3.8707,-3.8707,-3.8707,-3.8707,-3.8707,-3.8707,-3.8707,-3.8707,-3.8707,-3.8707,-3.8817,-4.0084,-4.0561,-4.0744,-4.2359,-4.2947,-4.3002,-3.5996,-3.5996,-3.5996,-3.5996,-3.5996,-3.5996,-3.5996,-3.5996,-3.5996,-3.5996,-3.5996,-3.5976,-3.5918,-3.5791,-3.5676,-3.5611,-3.5545,-3.5493,-3.5493,-3.5493,-3.5493,-3.5493,-3.5493,-3.5493,-3.5493,-3.5493,-3.5493,-3.5493,-3.5493,-3.5493,-3.5493,-3.5493,-3.5493,-3.5493,-3.5493,-3.5493,-3.5526,-3.5641,-3.568,-3.5699,-3.5815,-3.629,-3.6901,-3.6887,-3.7439,-3.8204,-3.8208,-3.8274,-3.8485,-3.9227,-3.9477,-3.9608,-4.0277,-4.0489,-4.0489,-4.0489,-3.9477,-3.8524,-3.9285,-3.8846,-3.8136,-3.7921,-3.7209,-3.6449,-3.6098,-3.5474,-3.496,-3.4787,-3.4774,-3.4748,-3.4711,-3.4482,-3.4252,-3.4218,-3.4054,-3.3925,-3.3862,0.0,-3.3844,-3.3844,-3.3825,-3.3807,-3.3807,-3.3807,-3.3807,-3.3807,-3.3807,-3.3807,-3.3807,-3.3925,-3.4283,-3.4971,-3.6501,-3.7436,-3.7686,-3.8383,-3.8707,-3.8707,-3.8707,-3.8707,-3.8707,-3.8707,-3.8707,-3.8707,-3.8707,-3.8707,-3.8707,-3.8707,-3.8707,-3.8781,-3.9588,-3.99,-4.0084,-4.1717,-4.2304,-4.2415,-3.5996,-3.5996,-3.5996,-3.5996,-3.5996,-3.5996,-3.5996,-3.5996,-3.5996,-3.5996,-3.5996,-3.5996,-3.5996,-3.581,-3.5696,-3.5688,-3.5584,-3.5493,-3.5493,-3.5493,-3.5493,-3.5493,-3.5493,-3.5493,-3.5493,-3.5493,-3.5493,-3.5493,-3.5493,-3.5493,-3.5493,-3.5493,-3.5493,-3.5493,-3.5493,-3.5493,-3.5545,-3.6232,-3.6516,-3.6573,-3.7319,-3.7698,-3.7795,-3.7786,-3.8343,-3.9108,-3.9092,-3.955,-4.0142,-4.0277,-4.0315,-4.0335,-4.045,-4.0489,-4.0489,-4.0489,-4.0315,-4.0142,-4.0277,-3.9723,-3.9092,-3.905,-3.8381,-3.7521,-3.6752,-3.6477,-3.6136,-3.5224,-3.5028,-3.4971,-3.4745,-3.4668,-3.4527,-3.4264,-3.4402,-3.4457,-3.4191,0.0,-3.4127,-3.4127,-3.3944,-3.3807,-3.3807,-3.3807,-3.3807,-3.3807,-3.3807,-3.3807,-3.3807,-3.4439,-3.4879,-3.4989,-3.5985,-3.715,-3.8493,-3.8652,-3.8707,-3.8707,-3.8707,-3.8707,-3.8707,-3.8707,-3.8707,-3.8707,-3.8707,-3.8707,-3.8707,-3.8707,-3.8707,-3.8781,-3.9588,-3.99,-4.0084,-4.1717,-4.2304,-4.2415,-3.5996,-3.5996,-3.5996,-3.5996,-3.5996,-3.5996,-3.5996,-3.5996,-3.5996,-3.5996,-3.5996,-3.5996,-3.5996,-3.5888,-3.5812,-3.5817,-3.5661,-3.5565,-3.5565,-3.5526,-3.5493,-3.5493,-3.593,-3.6372,-3.6834,-3.6862,-3.6612,-3.6155,-3.6155,-3.5911,-3.5493,-3.5493,-3.5738,-3.6155,-3.6155,-3.6406,-3.6862,-3.7242,-3.7401,-3.744,-3.7839,-3.8277,-3.8695,-3.8708,-3.9227,-3.9935,-3.9935,-4.0181,-4.0489,-4.0489,-4.0489,-4.0489,-4.0489,-4.0489,-4.0489,-4.0489,-4.0489,-4.0489,-4.0489,-4.0239,-3.9935,-3.9935,-3.9323,-3.8462,-3.7593,-3.7026,-3.6439,-3.5526,-3.532,-3.5282,-3.5147,-3.4999,-3.4864,-3.4718,-3.4708,-3.4661,-3.4484,-3.447,-3.447,-3.4463,-3.4357,-3.4283,-3.4283,-3.4109,-3.4017,-3.4017,-3.3862,-3.3807,-3.3807,-3.4154,-3.4549,-3.4989,-3.6271,-3.7509,-3.8689,-3.8707,-3.8707,-3.8707,-3.8707,-3.8707,-3.8707,-3.8707,-3.8707,-3.8707,-3.8707,-3.8707,-3.8707,-3.8707,-3.8707,-3.8744,-3.9111,-3.9239,-3.9441,-4.1056,-4.1662,-4.1827,-3.5996,-3.5996,-3.5996,-3.5996,-3.5996,-3.5996,-3.5996,-3.5996,-3.5996,-3.5996,-3.5996,-3.5996,-3.5996,-3.5949,-3.5889,-3.5894,-3.574,-3.5624,-3.5603,-3.5724,-3.5801,-3.5795,-3.6565,-3.7315,-3.8003,-3.8012,-3.7685,-3.6988,-3.6997,-3.6689,-3.6078,-3.6078,-3.6406,-3.7011,-3.7002,-3.7368,-3.8012,-3.8224,-3.8296,-3.8312,-3.8504,-3.8981,-3.9588,-3.9588,-3.9954,-4.0489,-4.0489,-4.0489,-4.0489,-4.0489,-4.0489,-4.0489,-4.0489,-4.0489,-4.0489,-4.0489,-4.0489,-4.0489,-4.0489,-4.0489,-4.0489,-4.0489,-4.0046,-3.9304,-3.8235,-3.7473,-3.6727,-3.5718,-3.5493,-3.5493,-3.5493,-3.532,-3.5166,-3.5109,0.0,-3.4851,-3.4798,-3.4787,-3.4792,-3.4782,-3.4745,-3.4684,-3.4684,-3.4455,-3.4315,-3.431,-3.4054,-3.388,-3.388,-3.3825,-3.4173,-3.4971,-3.6611,-3.7796,-3.842,-3.8634,-3.8707,-3.8707,-3.8707,-3.8707,-3.8707,-3.8707,-3.8707,-3.8707,-3.8707,-3.8707,-3.8707,-3.8707,-3.8707,-3.8707,-3.8707,-3.8817,-3.9148,-4.0598,-4.124,-4.1589,-3.5996,-3.5996,-3.5996,-3.5996,-3.5996,-3.5996,-3.5996,-3.5996,-3.5996,-3.5996,-3.5996,-3.5996,-3.5996,-3.5937,-3.5908,-3.5901,-3.5776,-3.5678,-3.5597,-3.6339,-3.6743,-3.6622,-3.745,-3.793,-3.7993,-3.8007,-3.7973,-3.7909,-3.7901,-3.7872,-3.7814,-3.7814,-3.7852,-3.7891,-3.7901,-3.7947,-3.8043,-3.8862,-3.9189,-3.9265,-4.0027,-4.0354,-4.0412,-4.0412,-4.045,-4.0489,-4.0489,-4.0489,-4.0489,-4.0489,-4.0489,-4.0489,-4.0489,-4.0489,-4.0489,-4.0489,-4.0489,-4.0489,-4.0489,-4.0489,-4.0489,-4.0489,-4.045,-3.9992,-3.837,-3.795,-3.7448,-3.5834,-3.5493,-3.5493,-3.5493,-3.5474,-3.5378,-3.5147,0.0,0.0,-3.5114,-3.507,-3.5062,-3.5062,-3.4836,-3.4702,-3.4702,-3.4683,-3.466,-3.4655,-3.4357,-3.4173,-3.4173,-3.3944,-3.4173,-3.4971,-3.6611,-3.7528,-3.7613,-3.8315,-3.8707,-3.8707,-3.8707,-3.8707,-3.8707,-3.8707,-3.8707,-3.8707,-3.8707,-3.8707,-3.8707,-3.8707,-3.8707,-3.8707,-3.8707,-3.9166,-3.9918,-4.0781,-4.1589,-4.2341,-3.5996,-3.5996,-3.5996,-3.5996,-3.5996,-3.5996,-3.5996,-3.5996,-3.5996,-3.5996,-3.5996,-3.5996,-3.5996,-3.6465,-3.6557,-3.6002,-3.6372,-3.6608,-3.6579,-3.6829,-3.7368,-3.8277,-3.8623,-3.9046,-3.9546,-3.9546,-3.93,-3.8808,-3.88,-3.8527,-3.7993,-3.7993,-3.8281,-3.8796,-3.8804,-3.9092,-3.9569,-3.9896,-4.0046,-4.0085,-4.0373,-4.0489,-4.0489,-4.0489,-4.0489,-4.0489,-4.0489,-4.0489,-4.0489,-4.0489,-4.0489,-4.0489,-4.0489,-4.0489,-4.0489,-4.0489,-4.0489,-4.0489,-4.0489,-4.0489,-4.0489,-4.0489,-4.0489,-4.0065,-3.837,-3.7988,-3.7525,-3.5853,-3.5493,-3.5493,-3.5493,-3.5493,-3.5455,-3.5359,0.0,-3.5455,-3.5359,-3.5339,-3.5339,-3.5339,-3.5262,-3.5205,-3.5205,-3.5037,-3.494,-3.4945,-3.468,-3.4515,-3.4529,-3.4228,-3.4191,-3.4494,-3.5975,-3.6993,-3.7491,-3.8297,-3.8707,-3.8707,-3.8707,-3.8707,-3.8707,-3.8707,-3.8707,-3.8707,-3.8707,-3.8707,-3.8707,-3.8707,-3.8707,-3.8707,-3.8707,-3.8891,-3.9313,-4.0634,-4.1295,-4.1754,-3.5996,-3.5996,-3.5996,-3.5996,-3.5996,-3.5996,-3.5996,-3.5996,-3.5996,-3.5996,-3.5996,-3.5996,-3.5996,-3.6777,-3.7051,-3.6465,-3.7165,-3.7622,-3.7583,-3.7732,-3.8273,-3.9292,-3.96,-3.9969,-4.0489,-4.0489,-4.0239,-3.9685,-3.9685,-3.9362,-3.8789,-3.8789,-3.9112,-3.9685,-3.9685,-3.9973,-4.0489,-4.0489,-4.0489,-4.0489,-4.0489,-4.0489,-4.0489,-4.0489,-4.0489,-4.0489,-4.0489,-4.0489,-4.0489,-4.0489,-4.0489,-4.0489,-4.0489,-4.0489,-4.0489,-4.0489,-4.0489,-4.0489,-4.0489,-4.0489,-4.0489,-4.0489,-4.0489,-4.0065,-3.837,-3.7988,-3.7525,-3.5853,-3.5493,-3.5493,-3.5493,-3.5493,-3.5493,-3.5493,-3.5493,-3.5493,-3.5493,-3.5493,-3.5493,-3.5493,-3.5493,-3.5493,-3.5493,-3.532,-3.5224,-3.5224,-3.4979,-3.4792,-3.4701,-3.4465,-3.4357,-3.4365,-3.5697,-3.6684,-3.7241,-3.8206,-3.8707,-3.8707,-3.8707,-3.8707,-3.8707,-3.8707,-3.8707,-3.8707,-3.8707,-3.8707,-3.8707,-3.8707,-3.8707,-3.8707,-3.8707,-3.9019,-3.9588,-4.0708,-4.1423,-4.2011,-3.5996,-3.5996,-3.5996,-3.5996,-3.5996,-3.5996,-3.5996,-3.5996,-3.5996,-3.5996,-3.5996,-3.5996,-3.5996,-3.6777,-3.7305,-3.7305,-3.8105,-3.8534,-3.8402,-3.916,-3.9548,-3.9418,-4.0235,-4.0639,-4.0489,-4.0489,-4.0489,-4.0489,-4.0489,-4.0489,-4.0489,-4.0489,-4.0489,-4.0489,-4.0489,-4.0489,-4.0489,-4.0489,-4.0489,-4.0489,-4.0489,-4.0489,-4.0489,-4.0489,-4.0489,-4.0489,-4.0489,-4.0489,-4.0489,-4.0489,-4.0489,-4.0489,-4.0489,-4.0489,-4.0489,-4.0489,-4.0489,-4.0489,-4.0489,-4.0489,-4.0489,-4.0489,-4.0489,-4.0065,-3.837,-3.7988,-3.7525,-3.5853,-3.5493,-3.5493,-3.5493,-3.5493,-3.5493,-3.5493,-3.5493,-3.5493,-3.5493,-3.5493,-3.5493,-3.5493,-3.5493,-3.5493,-3.5493,-3.5493,-3.5493,-3.5493,-3.5243,-3.4979,-3.473,-3.471,-3.4713,-3.4721,-3.6009,-3.6712,-3.6705,-3.8028,-3.8707,-3.8707,-3.8707,-3.8707,-3.8707,-3.8707,-3.8707,-3.8707,-3.8707,-3.8707,-3.8707,-3.8707,-3.8707,-3.8707,-3.8707,-3.968,-4.1111,-4.1111,-4.2121,-4.3479,-3.5996,-3.5996,-3.5996,-3.5996,-3.5996,-3.5996,-3.5996,-3.5996,-3.5996,-3.5996,-3.5996,-3.5996,-3.5996,-3.7324,-3.7969,-3.7344,-3.8105,-3.8571,-3.8534,-3.9914,-4.0665,-4.0529,-4.0648,-4.0677,-4.0639,-4.0562,-4.0489,-4.0489,-4.0489,-4.0489,-4.0489,-4.0489,-4.0489,-4.0489,-4.0489,-4.0489,-4.0489,-4.0489,-4.0489,-4.0489,-4.0489,-4.0489,-4.0489,-4.0489,-4.0489,-4.0489,-4.0489,-4.0489,-4.0489,-4.0489,-4.0489,-4.0489,-4.0489,-4.0489,-4.0489,-4.0489,-4.0489,-4.0489,-4.0489,-4.0489,-4.0354,-3.98,-4.0085,-3.9896,-3.7609,-3.755,-3.7525,-3.5853,-3.5493,-3.5493,-3.5493,-3.5493,-3.5493,-3.5493,-3.5493,-3.5493,-3.5493,-3.5493,-3.5493,-3.5493,-3.5493,-3.5493,-3.5493,-3.5493,-3.5493,-3.5493,-3.5416,-3.5339,-3.5262,-3.5089,-3.5239,-3.5812,-3.6573,-3.7279,-3.7882,-3.8438,-3.8707,-3.8707,-3.8707,-3.8707,-3.8707,-3.8707,-3.8707,-3.8707,-3.8707,-3.8707,-3.8707,-3.8707,-3.8707,-3.8707,-3.8707,-3.935,-4.0322,-4.0891,-4.1772,-4.2745,-3.5996,-3.5996,-3.5996,-3.5996,-3.5996,-3.5996,-3.5996,-3.5996,-3.5996,-3.5996,-3.5996,-3.5996,-3.5996,-3.7246,-3.7871,-3.7344,-3.8105,-3.875,-3.9082,-4.0101,-4.0656,-4.0569,-4.0723,-4.0784,-4.0696,-4.062,-4.0562,-4.0489,-4.0489,-4.0489,-4.0489,-4.0489,-4.0489,-4.0489,-4.0489,-4.0489,-4.0489,-4.0489,-4.0489,-4.0489,-4.0489,-4.0489,-4.0489,-4.0489,-4.0489,-4.0489,-4.0489,-4.0489,-4.0489,-4.0489,-4.0489,-4.0489,-4.0489,-4.0489,-4.0489,-4.0489,-4.0489,-4.0489,-4.0489,-4.0489,-4.0315,-3.9496,-3.9908,-3.9826,-3.7283,-3.7377,-3.7525,-3.5853,-3.5493,-3.5493,-3.5493,-3.5493,-3.5493,-3.5493,-3.5493,-3.5493,-3.5493,-3.5493,-3.5493,-3.5493,-3.5493,-3.5493,-3.5493,-3.5493,-3.5493,-3.5493,-3.5493,-3.5493,-3.5493,-3.5339,-3.5641,-3.6439,-3.6969,-3.7695,-3.8546,-3.8889,-3.8987,-3.8866,-3.8862,-3.8796,-3.8707,-3.8707,-3.8707,-3.8707,-3.8833,-3.8855,-3.8855,-3.8855,-3.8855,-3.8844,-3.8732,-3.9184,-3.9992,-4.0818,-4.1625,-4.2415,-3.5996,-3.5996,-3.5996,-3.5996,-3.5996,-3.5996,-3.5996,-3.5996,-3.5996,-3.5996,-3.5996,-3.5996,-3.5996,-3.6777,-3.7305,-3.7305,-3.8105,-3.8945,-3.9726,-3.9863,-3.9922,-4.0019,-4.0664,-4.0925,-4.0737,-4.0708,-4.0658,-4.0508,-4.0508,-4.0508,-4.0508,-4.0508,-4.0508,-4.0543,-4.0543,-4.0543,-4.0543,-4.0508,-4.0508,-4.0508,-4.0508,-4.0508,-4.0489,-4.0508,-4.0508,-4.0489,-4.0489,-4.0489,-4.0489,-4.0489,-4.0489,-4.0489,-4.0489,-4.0489,-4.0489,-4.0489,-4.0489,-4.0489,-4.0489,-4.0489,-4.0315,-3.9496,-3.9841,-3.975,-3.726,-3.732,-3.7429,-3.5834,-3.5493,-3.5493,-3.5493,-3.5493,-3.5493,-3.5493,-3.5493,-3.5493,-3.5493,-3.5493,-3.5493,-3.5493,-3.5493,-3.5493,-3.5493,-3.5493,-3.5493,-3.5493,-3.5493,-3.5493,-3.5493,-3.5493,-3.5872,-3.667,-3.7252,-3.7951,-3.8846,-3.94,-3.9507,-3.9132,-3.9144,-3.9016,-3.8773,-3.8762,-3.8732,-3.8732,-3.8999,-3.9099,-3.908,-3.9133,-3.9133,-3.9125,-3.8873,-3.9289,-4.0081,-4.0804,-4.1576,-4.2386,-3.5996,-3.5996,-3.5996,-3.5996,-3.5996,-3.5996,-3.5996,-3.5996,-3.5996,-3.5996,-3.5996,-3.5996,-3.5996,-3.6777,-3.7305,-3.7305,-3.8105,-3.8672,-3.8867,-3.9512,-4.0195,-4.0898,-4.1074,-4.1091,-4.0948,-4.0823,-4.0735,-4.0658,-4.0658,-4.0658,-4.0658,-4.0658,-4.0677,-4.0735,-4.0735,-4.0735,-4.0735,-4.0677,-4.0658,-4.0658,-4.0658,-4.06,-4.0508,-4.062,-4.06,-4.0489,-4.0489,-4.0489,-4.0489,-4.0489,-4.0489,-4.0489,-4.0489,-4.0489,-4.0489,-4.0489,-4.0489,-4.0489,-4.0489,-4.0489,-4.0315,-3.9496,-3.9415,-3.905,-3.7149,-3.6863,-3.6708,-3.5699,-3.5493,-3.5493,-3.5493,-3.5493,-3.5493,-3.5493,-3.5493,-3.5493,-3.5493,-3.5493,-3.5493,-3.5493,-3.5493,-3.5493,-3.5493,-3.5493,-3.5493,-3.5493,-3.5493,-3.5493,-3.5493,-3.5493,-3.5872,-3.667,-3.7463,-3.8312,-3.9189,-3.9915,-4.0027,-3.949,-3.9485,-3.9458,-3.9392,-3.9126,-3.9016,-3.9027,-3.9072,-3.9099,-3.9125,-3.9364,-3.9486,-3.9505,-3.9427,-3.9908,-4.0633,-4.0802,-4.1357,-4.2181,-3.5996,-3.5996,-3.5996,-3.5996,-3.5996,-3.5996,-3.5996,-3.5996,-3.5996,-3.5996,-3.5996,-3.5996,-3.5996,-3.6406,-3.668,-3.668,-3.7109,-3.7715,-3.8555,-3.9023,-3.9668,-4.0547,-4.0976,-4.0976,-4.0488,-4.0808,-4.0906,-4.0754,-4.0754,-4.0754,-4.0735,-4.0761,-4.0766,-4.0805,-4.0805,-4.0805,-4.0805,-4.0766,-4.0749,-4.0754,-4.0754,-4.0713,-4.0643,-4.0712,-4.0696,-4.0639,-4.062,-4.0562,-4.0489,-4.0489,-4.0489,-4.0489,-4.0489,-4.0489,-4.0489,-4.0489,-4.0489,-4.0489,-4.0489,-4.0489,-4.0392,-3.9973,-3.9588,-3.8843,-3.7098,-3.6699,-3.6477,-3.568,-3.5493,-3.5493,-3.5493,-3.5493,-3.5493,-3.5493,-3.5493,-3.5493,-3.5493,-3.5493,-3.5493,-3.5493,-3.5493,-3.5493,-3.5493,-3.5493,-3.5493,-3.5493,-3.5493,-3.5493,-3.5493,-3.5493,-3.5872,-3.667,-3.756,-3.8416,-3.9285,-4.0104,-4.0335,-4.0031,-3.9908,-3.9735,-3.9583,-3.9433,-3.9339,-3.9335,-3.9519,-3.9576,-3.9599,-3.9775,-3.984,-3.9819,-3.9668,-3.9863,-4.0273,-4.0645,-4.1305,-4.2077,-3.5996,-3.5996,-3.5996,-3.5996,-3.5996,-3.5996,-3.5996,-3.5996,-3.5996,-3.5996,-3.5996,-3.5996,-3.5996,-3.5996,-3.5996,-3.5996,-3.5996,-3.6738,-3.8496,-3.8594,-3.9062,-4.0078,-4.0801,-4.0859,-4.0137,-4.082,-4.1085,-4.0823,-4.0823,-4.0823,-4.0817,-4.0836,-4.0859,-4.0879,-4.0879,-4.0879,-4.0879,-4.084,-4.0833,-4.0823,-4.0823,-4.0828,-4.0798,-4.084,-4.0823,-4.0791,-4.0723,-4.062,-4.0489,-4.0489,-4.0489,-4.0489,-4.0489,-4.0489,-4.0489,-4.0489,-4.0489,-4.0489,-4.0489,-4.0489,-4.0489,-4.0489,-3.9896,-3.8935,-3.7464,-3.692,-3.6477,-3.568,-3.5493,-3.5493,-3.5493,-3.5493,-3.5493,-3.5493,-3.5493,-3.5493,-3.5493,-3.5493,-3.5493,-3.5493,-3.5493,-3.5493,-3.5493,-3.5493,-3.5493,-3.5493,-3.5493,-3.5493,-3.5493,-3.5641,-3.6021,-3.6689,-3.7698,-3.857,-3.9285,-4.0104,-4.0489,-4.0489,-4.0272,-4.0019,-3.9738,-3.9715,-3.9686,-3.9698,-3.9979,-4.0101,-4.0101,-4.0139,-4.0158,-4.0139,-3.9861,-3.9757,-3.9832,-4.0511,-4.1264,-4.1983,-3.5996,-3.5996,-3.5996,-3.5996,-3.5996,-3.5996,-3.5996,-3.5996,-3.5996,-3.5996,-3.5996,-3.5996,-3.5996,-3.5996,-3.5996,-3.5996,-3.5996,-3.6738,-3.8496,-3.8594,-3.9336,-4.0957,-4.1133,-4.1133,-4.1035,-4.1133,-4.1131,-4.0965,-4.0965,-4.0965,-4.0965,-4.0976,-4.1035,-4.1152,-4.1152,-4.1152,-4.1133,-4.1016,-4.0975,-4.0965,-4.0965,-4.0895,-4.0801,-4.0931,-4.0906,-4.0792,-4.0725,-4.062,-4.0489,-4.0489,-4.0489,-4.0489,-4.0489,-4.0489,-4.0489,-4.0489,-4.0489,-4.0489,-4.0489,-4.0489,-4.0489,-4.0489,-3.9896,-3.9246,-3.9012,-3.7777,-3.6477,-3.568,-3.5493,-3.5493,-3.5493,-3.5493,-3.5493,-3.5493,-3.5493,-3.5493,-3.5493,-3.5493,-3.5493,-3.5493,-3.5493,-3.5493,-3.5493,-3.5493,-3.5493,-3.5493,-3.5493,-3.5493,-3.5493,-3.6155,-3.6593,-3.6708,-3.8271,-3.9182,-3.9304,-4.0104,-4.0489,-4.0489,-4.0457,-4.0425,-4.037,-4.0137,-4.0044,-4.0032,-4.0081,-4.0101,-4.012,-4.0356,-4.0457,-4.0441,-4.0406,-4.0389,-4.0389,-4.0504,-4.1082,-4.1831,-3.5996,-3.5996,-3.5996,-3.5996,-3.5996,-3.5996,-3.5996,-3.5996,-3.5996,-3.5996,-3.5996,-3.5996,-3.5996,-3.5996,-3.5996,-3.5996,-3.5996,-3.6738,-3.8496,-3.8594,-3.9375,-4.1113,-4.1191,-4.1191,-4.1191,-4.1191,-4.1172,-4.1113,-4.1113,-4.1113,-4.1113,-4.1113,-4.1133,-4.1191,-4.1191,-4.1191,-4.1191,-4.1133,-4.1113,-4.1113,-4.1113,-4.1074,-4.1035,-4.1094,-4.1074,-4.1011,-4.0916,-4.0773,-4.0658,-4.062,-4.062,-4.06,-4.0508,-4.0489,-4.0489,-4.0489,-4.0489,-4.0489,-4.0489,-4.0489,-4.0489,-4.0489,-4.0239,-3.9838,-3.94,-3.8704,-3.7911,-3.7074,-3.6516,-3.6175,-3.6175,-3.5795,-3.5493,-3.5493,-3.5493,-3.5493,-3.5493,-3.5493,-3.5493,-3.5493,-3.5493,-3.5493,-3.5493,-3.5493,-3.5699,-3.6136,-3.6175,-3.6367,-3.6862,-3.7222,-3.7439,-3.742,-3.8638,-3.9311,-3.9304,-4.0104,-4.0489,-4.0489,-4.0489,-4.0489,-4.0489,-4.0373,-4.0315,-4.0315,-4.0315,-4.0321,-4.0339,-4.0457,-4.0489,-4.0489,-4.0489,-4.0489,-4.0489,-4.0489,-4.0739,-4.1066]}]]